     2              OBSERVATION DATA    GPS                 RINEX VERSION / TYPE
teqc 2002Apr3 20041109 01:33:07UTC                          PGM / RUN BY / DATE
                                                            COMMENT
L2: 1 -> 1; 5 -> 5; 60 -> 9                                 COMMENT
L2: 1 -> 1; 5 -> 5; 60 -> 9                                 COMMENT
L2: 1 -> 1; 5 -> 5; 60 -> 9                                 COMMENT
L2: 1 -> 1; 5 -> 5; 60 -> 9                                 COMMENT
L2: 1 -> 1; 5 -> 5; 60 -> 9                                 COMMENT
Original Marker Name: 7368                                  COMMENT
Campaign Name: CSRC/Caltrans post-San Simeon                COMMENT
4-Character Station Name: PM46                              COMMENT
6-Character Antenna Code: TRZEPH                            COMMENT
Vertical Measurement Point: BPA                             COMMENT
Vertical Offset to Rinex Ref. Point: 0.0000                 COMMENT
Radial Measurement Point: RRP                               COMMENT
Radial Offset to Rinex Ref. Point: 0.0000                   COMMENT
Antenna Height from Field Measurement: 2.0000 m             COMMENT
Original XYZ: -2652902.1851 -4470980.3352 3683017.8248      COMMENT
New XYZ position is based on association with SCEC monument COMMENT
E1F1A9P1+0011. Position of that monument is believed to be  COMMENT
valid to within 1 m horizontally; vertical accuracy         COMMENT
should be no worse than 3-times this value.                 COMMENT
                                                            COMMENT
Revised Rinex header created by UCSD GPS archive for        COMMENT
GSAC on 11-Feb-2005 (2005:042) 22:03:00 GMT                 COMMENT
For assistance contact dagnew@ucsd.edu                      COMMENT
or anderson@python.ucsd.edu                                 COMMENT
                                                            COMMENT
PM 46.87                                                    MARKER NAME
7368                                                        MARKER NUMBER
K. A. Forsberg CALIF DEPT TRANSPORTATION DISTRICT 5         OBSERVER / AGENCY
0220247368 TRIMBLE 5700 NP 2.01 / SP 0.00                   REC # / TYPE / VERS
12200350 TRM41249.00                                        ANT # / TYPE
 -2652905.0000 -4470992.0000  3683021.0000                  APPROX POSITION XYZ
        2.0000        0.0000        0.0000                  ANTENNA: DELTA H/E/N
     1     1     0                                          WAVELENGTH FACT L1/2
     7    C1    L1    L2    P1    P2    S1    S2            # / TYPES OF OBSERV
     0                                                      INTERVAL
  2004     8     4    20     9    0.000000                  TIME OF FIRST OBS
  2004     8     4    21    30   15.000000                  TIME OF LAST OBS
                                                            END OF HEADER
 04  8  4 20  9  0.0000000  0  6G20G 1G16G23G25G11
  20765809.0954  -40847910.31249 -38642109.63748                  20765806.8454
        47.0004         40.7504
  21005453.3094  -56333344.69949 -43871193.93748                  21005452.8444
        49.0004         39.7504
  22881758.7014  -22251334.91849 -17320499.02047                  22881758.7194
        40.7504         29.7504
  21655441.7474  -42480692.64149 -33038004.76647                  21655438.0454
        44.7504         37.0004
  22037445.0244  -60149297.08249 -46838048.69547                  22037443.0724
        47.2504         37.0004
  22927373.0114  -44322421.84449 -43665621.69947                  22927372.2714
        43.7504         29.2504
 04  8  4 20  9 15.0000000  0  6G20G 1G16G23G25G11
  20751394.0384  -40923661.88349 -38701136.83248                  20751392.2324
        47.5004         40.5004
  20993861.6654  -56394262.18749 -43918662.11748                  20993860.5504
        47.7504         40.0004
  22864543.5304  -22341803.20749 -17390993.75047                  22864542.7264
        41.2504         30.5004
  21640813.2404  -42557566.45749 -33097906.42247                  21640809.6544
        45.5004         36.5004
  22034153.0044  -60166596.84049 -46851529.04747                  22034151.1174
        47.5004         36.5004
  22924492.7444  -44337555.33649 -43677414.05947                  22924492.3524
        43.0004         29.7504
 04  8  4 20  9 30.0000000  0  6G20G 1G16G23G25G11
  20736999.2814  -40999305.83249 -38760080.15648                  20736997.8704
        47.5004         41.0004
  20982278.5264  -56455130.16049 -43966091.69548                  20982277.6704
        48.5004         40.0004
  22847343.1364  -22432191.82049 -17461426.40647                  22847341.8774
        43.2504         30.5004
  21626193.7324  -42634392.70749 -33157771.02347                  21626190.0574
        46.5004         36.0004
  22030873.8794  -60183828.99249 -46864956.70347                  22030872.2444
        48.0004         36.5004
  22921625.1774  -44352625.13649 -43689156.83647                  22921624.4994
        43.5004         29.7504
 04  8  4 20  9 45.0000000  0  6G20G 1G16G23G25G11
  20722625.9214  -41074836.28549 -38818935.05148                  20722624.5024
        46.0004         40.7504
  20970706.7094  -56515943.12549 -44013478.41848                  20970705.5854
        47.5004         40.5004
  22830159.0444  -22522494.86749 -17531792.38747                  22830157.8724
        42.7504         30.7504
  21611584.2094  -42711165.80949 -33217594.21147                  21611580.3314
        46.0004         36.5004
  22027608.3394  -60200988.35549 -46878327.64847                  22027606.4004
        46.7504         36.5004
  22918770.4164  -44367626.17249 -43700845.96547                  22918769.8374
        43.5004         30.0004
 04  8  4 20 10  0.0000000  0  6G20G 1G16G23G25G11
  20708274.4114  -41150254.23449 -38877702.28148                  20708272.7364
        48.2504         41.0004
  20959144.6794  -56576702.25449 -44060823.19548                  20959143.4344
        49.0004         41.0004
  22812991.0554  -22612713.21549 -17602092.35947                  22812990.1234
        44.0004         30.7504
  21596985.1084  -42787886.90249 -33277376.87147                  21596981.0514
        45.7504         36.5004
  22024356.7524  -60218076.30149 -46891642.94947                  22024355.2934
        48.0004         36.7504
  22915928.6394  -44382559.81249 -43712482.59047                  22915927.9924
        43.7504         29.5004
 04  8  4 20 10 15.0000000  0  6G20G 1G16G23G25G11
  20693943.7144  -41225563.50049 -38936384.82048                  20693941.6424
        47.0004         41.0004
  20947591.7644  -56637411.64149 -44108129.20748                  20947590.5164
        47.5004         40.5004
  22795838.6474  -22702850.47349 -17672329.16047                  22795837.3494
        43.5004         30.5004
  21582394.0074  -42864560.00849 -33337122.13747                  21582390.6034
        46.5004         36.5004
  22021117.3524  -60235097.10249 -46904905.91447                  22021116.0164
        47.7504         36.5004
  22913099.6424  -44397430.64149 -43724070.27747                  22913098.8234
        43.7504         29.7504
 04  8  4 20 10 30.0000000  0  6G20G 1G16G23G25G11
  20679632.4764  -41300771.40649 -38994988.38748                  20679630.3094
        48.5004         40.5004
  20936047.2734  -56698079.02749 -44155402.48848                  20936046.1174
        47.5004         41.0004
  22778699.8234  -22792913.97349 -17742508.47347                  22778698.6314
        43.0004         30.5004
  21567811.5494  -42941192.89149 -33396836.05147                  21567807.9554
        45.5004         36.7504
  22017889.7834  -60252058.80949 -46918122.84847                  22017888.5144
        48.0004         36.5004
  22910280.1614  -44412246.66049 -43735615.25047                  22910280.2154
        44.2504         30.2504
 04  8  4 20 10 45.0000000  0  6G20G 1G16G23G25G11
  20665341.0074  -41375872.02049 -39053508.34048                  20665338.8534
        47.5004         40.7504
  20924511.4664  -56758698.59849 -44202638.51648                  20924510.7124
        48.0004         40.0004
  22761576.4794  -22882897.53549 -17812625.50447                  22761575.2514
        43.5004         30.7504
  21553237.5744  -43017779.69549 -33456514.07847                  21553233.4564
        45.7504         36.2504
  22014674.4514  -60268955.97749 -46931289.48447                  22014672.8184
        48.0004         37.0004
  22907471.6894  -44427002.43049 -43747113.30147                  22907472.0264
        43.0004         29.5004
 04  8  4 20 11  0.0000000  0  6G20G 1G16G23G25G11
  20651071.2654  -41450862.04349 -39111942.12548                  20651068.8274
        47.0004         40.7504
  20912985.8144  -56819267.44549 -44249835.01648                  20912985.2694
        47.5004         40.2504
  22744469.0834  -22972797.79749 -17882677.61347                  22744468.1114
        42.7504         30.2504
  21538672.9404  -43094317.40649 -33516153.83647                  21538669.1784
        46.2504         36.7504
  22011472.0704  -60285785.73849 -46944403.59447                  22011470.6994
        47.0004         37.2504
  22904675.7434  -44441695.15649 -43758562.21547                  22904676.1344
        43.0004         29.5004
 04  8  4 20 11 15.0000000  0  6G20G 1G16G23G25G11
  20636820.6144  -41525748.62949 -39170295.31248                  20636818.5274
        48.7504         41.0004
  20901468.0184  -56879793.04749 -44296997.82048                  20901467.2364
        48.2504         39.7504
  22727376.0114  -23062621.91849 -17952670.39547                  22727374.8594
        43.2504         30.0004
  21524115.9894  -43170813.40249 -33575761.09447                  21524112.1224
        47.0004         36.5004
  22008280.5614  -60302555.77749 -46957471.16447                  22008279.1574
        47.5004         36.5004
  22901890.0954  -44456332.81649 -43769968.21947                  22901890.1454
        43.5004         29.5004
 04  8  4 20 11 30.0000000  0  6G20G 1G16G23G25G11
  20622588.8354  -41600534.80549 -39228570.25048                  20622587.0984
        47.0004         40.5004
  20889957.9284  -56940278.63349 -44344129.44148                  20889957.6874
        47.7504         40.0004
  22710297.3694  -23152372.68449 -18022606.03547                  22710295.5654
        44.0004         30.2504
  21509566.7114  -43247271.03949 -33635338.46947                  21509562.5024
        46.5004         36.5004
  22005100.2604  -60319269.67249 -46970494.98847                  22005098.9624
        47.7504         36.2504
  22899114.2224  -44470918.89549 -43781334.04347                  22899115.0734
        43.5004         29.5004
 04  8  4 20 11 45.0000000  0  6G20G 1G16G23G25G11
  20608376.6334  -41675221.24649 -39286767.47348                  20608374.7464
        47.2504         40.5004
  20878455.3184  -57000725.11749 -44391230.59848                  20878454.9864
        47.7504         41.0004
  22693231.5674  -23242050.64149 -18092484.91447                  22693231.1704
        42.0004         30.0004
  21495024.1044  -43323691.25449 -33694886.67247                  21495020.7374
        46.5004         36.2504
  22001929.9524  -60335928.60249 -46983475.98047                  22001928.3474
        48.2504         36.0004
  22896348.8734  -44485454.75849 -43792660.75047                  22896348.3884
        44.0004         30.2504
 04  8  4 20 12  0.0000000  0  6G20G 1G16G23G25G11
  20594183.8134  -41749806.60249 -39344885.93448                  20594181.8384
        48.2504         40.7504
  20866960.7024  -57061131.51649 -44438300.51248                  20866959.3724
        48.5004         40.5004
  22676180.8784  -23331654.42649 -18162306.01247                  22676179.9824
        44.0004         30.5004
  21480489.5054  -43400072.90249 -33754404.82047                  21480485.7144
        47.2504         37.2504
  21998770.7464  -60352531.85949 -46996413.59447                  21998769.0184
        47.5004         36.0004
  22893592.3354  -44499939.76249 -43803947.79347                  22893591.8234
        43.2504         30.2504
 04  8  4 20 12 15.0000000  0  6G20G 1G16G23G25G11
  20580009.1954  -41824292.57049 -39402926.94548                  20580007.3724
        48.0004         41.2504
  20855473.2024  -57121499.71949 -44485340.67248                  20855471.7004
        47.5004         40.5004
  22659143.7004  -23421185.41849 -18232070.37147                  22659142.9734
        43.2504         31.5004
  21465961.3874  -43476417.86749 -33813894.39147                  21465957.5014
        47.5004         36.7504
  21995621.3954  -60369081.48849 -47009309.41847                  21995620.2164
        47.5004         36.2504
  22890845.0824  -44514376.01249 -43815196.85547                  22890845.3574
        43.0004         30.5004
 04  8  4 20 12 30.0000000  0  7G20G 1G13G16G23G25G11
  20565853.8524  -41898680.12549 -39460891.26648                  20565851.8804
        48.0004         40.2504
  20843992.4204  -57181831.09049 -44532352.12948                  20843991.0634
        48.0004         39.7504
  24630153.9104     -64371.99258
        34.7504
  22642119.9564  -23510644.61749 -18301778.81247                  22642119.3634
        42.7504         30.5004
  21451440.1104  -43552727.50849 -33873356.43747                  21451436.3094
        46.5004         37.2504
  21992481.9104  -60385579.08249 -47022164.69947                  21992480.8724
        47.5004         36.0004
  22888107.7534  -44528765.24649 -43826409.28147                  22888107.4704
        43.5004         29.0004
 04  8  4 20 12 45.0000000  0  7G20G 1G13G16G23G25G11
  20551717.6734  -41972967.30949 -39518777.38748                  20551715.6554
        48.5004         40.5004
  20832519.0654  -57242123.88349 -44579333.51648                  20832517.9474
        48.7504         40.2504
  24612873.3584    -155183.94149    -92768.98456                  24612872.8044
        37.5004         18.2504
  22625110.4564  -23600029.97749 -18371429.71147                  22625109.8374
        43.0004         31.7504
  21436926.1404  -43628999.94549 -33932789.49647                  21436922.2084
        48.0004         37.2504
  21989353.1194  -60402023.28549 -47034978.37547                  21989351.4144
        48.5004         37.2504
  22885378.0644  -44543106.15649 -43837584.05947                  22885377.9604
        43.2504         30.5004
 04  8  4 20 13  0.0000000  0  7G20G 1G13G16G23G25G11
  20537599.8304  -42047157.94149 -39576588.26648                  20537597.7644
        48.7504         41.2504
  20821051.9624  -57302382.17649 -44626288.03148                  20821051.0854
        48.5004         40.5004
  24595592.8454    -245992.23449   -163528.62146                  24595592.6414
        37.5004         18.5004
  22608114.6374  -23689345.06249 -18441025.85947                  22608113.2064
        44.5004         31.5004
  21422418.0644  -43705239.44949 -33992196.89147                  21422414.1914
        47.2504         36.7504
  21986232.9174  -60418418.39849 -47047753.79347                  21986231.9474
        47.7504         36.5004
  22882657.5234  -44557402.98849 -43848724.48047                  22882656.9314
        44.0004         29.0004
 04  8  4 20 13 15.0000000  0  7G20G 1G13G16G23G25G11
  20523500.1434  -42121251.50849 -39634323.51248                  20523498.0914
        49.5004         41.0004
  20809591.8774  -57362605.77349 -44673215.51248                  20809591.1644
        47.7504         40.5004
  24578314.0324    -336796.81649   -234285.43046                  24578313.0164
        37.7504         18.5004
  22591131.5974  -23778589.35549 -18510566.85547                  22591131.0204
        44.2504         30.7504
  21407916.7604  -43781445.59449 -34051578.30147                  21407912.7004
        45.5004         37.0004
  21983122.3024  -60434764.43049 -47060490.97347                  21983121.0324
        47.7504         36.5004
  22879945.2384  -44571655.96149 -43859830.73847                  22879945.3364
        43.5004         29.7504
 04  8  4 20 13 30.0000000  0  7G20G 1G13G16G23G25G11
  20509418.6514  -42195250.78549 -39691985.28948                  20509416.7514
        48.2504         40.7504
  20798137.7324  -57422797.73049 -44720118.33648                  20798137.1174
        48.7504         40.7504
  24561034.3544    -427600.55549   -305041.54746                  24561033.7244
        38.5004         19.2504
  22574162.1334  -23867765.52049 -18580054.74247                  22574161.2194
        43.2504         31.7504
  21393420.7604  -43857621.43449 -34110936.08247                  21393417.1964
        47.0004         37.7504
  21980020.8144  -60451064.66849 -47073192.45347                  21980019.1274
        48.0004         36.5004
  22877240.7454  -44585868.61349 -43870905.56647                  22877240.5524
        44.0004         30.0004
 04  8  4 20 13 45.0000000  0  7G20G 1G13G16G23G25G11
  20495355.2184  -42269154.19149 -39749572.34448                  20495353.3114
        49.2504         41.0004
  20786689.8334  -57482956.71149 -44766995.46548                  20786688.8584
        49.2504         40.0004
  24543755.3934    -518402.11349   -375795.99246                  24543754.3354
        36.0004         18.2504
  22557206.0514  -23956871.76649 -18649488.15247                  22557205.3774
        43.2504         31.5004
  21378930.8094  -43933765.52749 -34170269.12547                  21378927.2884
        48.2504         37.0004
  21976927.6914  -60467318.05949 -47085857.44147                  21976926.1984
        48.7504         36.2504
  22874544.4164  -44600039.59049 -43881947.93447                  22874544.6644
        43.2504         30.7504
 04  8  4 20 14  0.0000000  0  7G20G 1G13G16G23G25G11
  20481310.0824  -42342961.45349 -39807084.48848                  20481308.1124
        48.5004         40.5004
  20775248.1264  -57543082.80549 -44813846.96148                  20775247.8974
        49.0004         40.5004
  24526476.6584    -609201.64149   -446548.86346                  24526476.1574
        36.7504         17.7504
  22540262.5184  -24045907.78149 -18718866.83647                  22540262.3974
        44.0004         32.0004
  21364447.5094  -44009877.94149 -34229577.48847                  21364443.9124
        48.5004         37.5004
  21973843.6844  -60483524.80949 -47098486.09847                  21973842.3544
        47.5004         36.0004
  22871855.6274  -44614169.41449 -43892958.23847                  22871855.6954
        43.5004         30.0004
 04  8  4 20 14 15.0000000  0  7G20G 1G13G16G23G25G11
  20467283.2394  -42416672.89549 -39864521.98048                  20467281.3274
        50.0004         40.5004
  20763812.8544  -57603176.57849 -44860673.27748                  20763812.2674
        49.0004         40.2504
  24509197.7954    -699999.68748   -517300.55146                  24509198.4244
        35.0004         18.2504
  22523333.4514  -24134873.77049 -18788190.95347                  22523332.8114
        44.7504         31.2504
  21349969.7524  -44085959.25049 -34288861.59847                  21349965.7604
        48.5004         37.5004
  21970768.3484  -60499685.82449 -47111079.10247                  21970766.3974
        48.5004         36.0004
  22869174.1794  -44628259.00049 -43903937.17247                  22869174.7694
        43.2504         30.2504
 04  8  4 20 14 30.0000000  0  7G20G 1G13G16G23G25G11
  20453274.8744  -42490287.02749 -39921883.65248                  20453273.0704
        48.7504         41.2504
  20752383.5484  -57663236.87549 -44907473.49648                  20752382.8894
        49.2504         40.2504
  24491920.4344    -790794.93048   -588050.08246                  24491920.7964
        35.0004         19.0004
  22506417.0114  -24223768.16049 -18857459.28147                  22506415.9334
        43.5004         30.5004
  21335497.9714  -44162008.12549 -34348120.45747                  21335493.8804
        49.0004         38.0004
  21967701.7784  -60515800.15649 -47123635.73047                  21967699.9984
        47.2504         36.2504
  22866501.1884  -44642307.45349 -43914884.06647                  22866501.6224
        42.0004         29.2504
 04  8  4 20 14 45.0000000  0  7G20G 1G13G16G23G25G11
  20439285.3054  -42563803.48849 -39979169.20348                  20439283.3304
        48.7504         41.7504
  20740960.9374  -57723263.46149 -44954247.46148                  20740959.7764
        49.0004         40.2504
  24474642.4574    -881587.23448   -658797.30546                  24474643.6714
        33.2504         17.7504
  22489514.3704  -24312590.37149 -18926671.35947                  22489513.9034
        43.2504         30.5004
  21321032.4514  -44238024.49249 -34407353.98447                  21321028.8554
        48.2504         37.5004
  21964644.3294  -60531867.82049 -47136155.99647                  21964642.8674
        47.7504         36.2504
  22863835.5124  -44656315.05549 -43925799.10947                  22863835.5474
        42.5004         28.5004
 04  8  4 20 15  0.0000000  0  7G20G 1G13G16G23G25G11
  20425314.1704  -42637222.43749 -40036378.77348                  20425311.9364
        49.7504         41.7504
  20729544.7164  -57783256.72349 -45000995.45748                  20729543.6584
        50.0004         40.5004
  24457365.7474    -972377.10948   -729542.64146                  24457366.2044
        32.2504         15.5004
  22472625.9294  -24401340.40649 -18995827.20747                  22472625.7144
        45.0004         31.0004
  21306573.3274  -44314008.60949 -34466562.37947                  21306569.3724
        48.5004         37.5004
  21961594.8504  -60547889.54749 -47148640.46947                  21961593.8504
        46.5004         36.0004
  22861177.8334  -44670282.36349 -43936682.77747                  22861178.1474
        43.2504         29.0004
 04  8  4 20 15 15.0000000  0  7G20G 1G13G16G23G25G11
  20411361.7054  -42710543.51249 -40093512.07048                  20411359.5144
        49.7504         41.5004
  20718134.7104  -57843216.67649 -45047717.51248                  20718133.7394
        49.7504         40.7504
  24440089.9714   -1063164.49248   -800286.05946                  24440089.4304
        35.2504         15.5004
  22455750.9984  -24490017.82049 -19064926.47747                  22455749.9724
        43.7504         31.0004
  21292120.3314  -44389960.55149 -34525745.69947                  21292116.4064
        48.2504         37.5004
  21958554.7034  -60563865.45349 -47161089.25047                  21958553.6074
        47.7504         36.2504
  22858527.5104  -44684209.83649 -43947535.39847                  22858527.5764
        43.5004         28.5004
 04  8  4 20 15 30.0000000  0  7G20G 1G13G16G23G25G11
  20397427.5934  -42783766.78149 -40150569.16448                  20397425.8024
        49.7504         41.7504
  20706730.9024  -57903143.62549 -45094413.82448                  20706730.0434
        48.5004         40.5004
  24422814.5894   -1153949.57448   -871027.65246                  24422814.1214
        34.5004         17.5004
  22438890.2724  -24578622.64549 -19133969.16847                  22438889.6214
        43.5004         31.2504
  21277672.7384  -44465880.53549 -34584904.10947                  21277669.3794
        48.0004         37.7504
  21955524.0754  -60579796.21549 -47173502.83647                  21955522.6384
        46.5004         36.2504
  22855884.9494  -44698098.10249 -43958357.47747                  22855884.8164
        43.0004         29.0004
 04  8  4 20 15 45.0000000  0  7G20G 1G13G16G23G25G11
  20383512.5174  -42856891.05149 -40207549.12148                  20383510.4944
        49.5004         41.7504
  20695333.7914  -57963036.73849 -45141083.79348                  20695332.6194
        49.2504         41.0004
  24405538.9574   -1244731.58249   -941766.88346                  24405538.6364
        37.0004         17.5004
  22422043.4054  -24667153.59849 -19202954.28947                  22422042.6754
        43.5004         31.7504
  21263232.3894  -44541767.68449 -34644036.94147                  21263228.3874
        49.5004         38.0004
  21952501.3644  -60595681.16849 -47185880.73447                  21952500.0934
        47.0004         36.2504
  22853249.3104  -44711946.77049 -43969148.68047                  22853249.1324
        43.0004         27.7504
 04  8  4 20 16  0.0000000  0  7G20G 1G13G16G23G25G11
  20669410.0304  -42929909.89149 -40264446.91448                  20669408.1394
        49.2504         41.7504
  20983736.2754  -58022890.72349 -45187723.26248                  20983735.0794
        48.0004         40.7504
  24688057.9874   -1335503.18449  -1012498.00446                  24688057.4454
        37.7504         17.7504
  22705004.0824  -24755603.07049 -19271875.93747                  22705003.5944
        43.5004         31.5004
  21548591.4354  -44617615.60249 -34703139.20747                  21548587.6714
        47.0004         38.5004
  22249279.5454  -60611518.27049 -47198221.34847                  22249278.0964
        46.7504         36.0004
  23150414.8604  -44725753.74649 -43979907.42647                  23150414.1864
        43.7504         28.0004
 04  8  4 20 16 15.0000000  0  7G20G 1G13G16G23G25G11
  20655533.3794  -43002833.19949 -40321270.27748                  20655531.3654
        49.0004         41.2504
  20972352.0484  -58082713.84849 -45234338.67248                  20972351.5334
        48.7504         41.0004
  24670784.5674   -1426276.69948  -1083230.57046                  24670783.7094
        35.7504         17.0004
  22688186.5714  -24843982.76249 -19340743.20747                  22688185.3654
        44.2504         31.7504
  21534163.2184  -44693434.65249 -34762218.98447                  21534159.6094
        48.5004         38.2504
  22246274.7394  -60627310.08249 -47210526.66047                  22246273.5104
        47.0004         36.2504
  23147794.5684  -44739521.47349 -43990635.53547                  23147794.3004
        43.0004         27.7504
 04  8  4 20 16 30.0000000  0  7G20G 1G13G16G23G25G11
  20641675.7424  -43075655.39849 -40378014.84848                  20641673.5694
        49.0004         41.0004
  20960974.9314  -58142501.77749 -45280926.67248                  20960974.0084
        48.7504         40.7504
  24653511.8084   -1517045.68449  -1153959.62946                  24653510.5414
        37.5004         17.5004
  22671382.9494  -24932286.07049 -19409550.96147                  22671381.5744
        43.5004         31.5004
  21519742.0464  -44769219.39849 -34821272.02047                  21519738.5414
        47.2504         38.2504
  22243278.2474  -60643055.49649 -47222795.82047                  22243276.9044
        47.2504         36.7504
  23145182.3614  -44753249.20349 -44001332.51247                  23145181.7364
        43.2504         27.2504
 04  8  4 20 16 45.0000000  0  7G20G 1G13G16G23G25G11
  20627836.9814  -43148376.80149 -40434680.87148                  20627834.9464
        49.5004         41.5004
  20949604.4384  -58202254.98449 -45327487.60948                  20949603.6434
        49.7504         40.5004
  24636239.1094   -1607810.70749  -1224685.55546                  24636238.5084
        37.0004         19.0004
  22654593.7994  -25020513.06249 -19478299.23847                  22654593.1064
        43.5004         31.7504
  21505327.1944  -44844970.27349 -34880298.66447                  21505323.4504
        48.5004         38.5004
  22240290.8504  -60658755.26649 -47235029.42247                  22240289.5224
        46.5004         36.0004
  23142577.7634  -44766937.76649 -44011998.97347                  23142577.1694
        44.7504         27.5004
 04  8  4 20 17  0.0000000  0  7G20G 1G13G16G23G25G11
  20614017.9644  -43220996.58649 -40491267.71548                  20614016.2284
        49.5004         41.2504
  20938240.5574  -58261973.05949 -45374021.17248                  20938239.6514
        50.0004         40.7504
  24618968.4164   -1698571.22749  -1295407.99246                  24618968.6264
        38.0004         18.2504
  22637819.6344  -25108662.98449 -19546987.46147                  22637818.5684
        44.2504         31.5004
  21490918.6224  -44920686.83249 -34939298.57047                  21490914.6944
        48.2504         38.2504
  22237312.2294  -60674409.21149 -47247227.30947                  22237310.7404
        47.5004         35.5004
  23139979.9174  -44780586.82849 -44022634.64847                  23139979.9514
        43.5004         28.2504
 04  8  4 20 17 15.0000000  0  7G20G 1G13G16G23G25G11
  20600218.0744  -43293515.70749 -40547776.12148                  20600216.0244
        48.7504         41.2504
  20926883.1034  -58321657.13349 -45420528.25048                  20926882.1344
        48.7504         41.0004
  24601697.6854   -1789328.52049  -1366127.88746                  24601698.1694
        38.2504         19.0004
  22621059.7644  -25196736.53149 -19615616.17647                  22621058.9384
        44.7504         31.5004
  21476516.6664  -44996370.15249 -34998272.58247                  21476513.0764
        48.0004         37.7504
  22234341.7464  -60690018.69149 -47259390.55547                  22234340.1734
        46.0004         36.5004
  23137390.4064  -44794197.88749 -44033240.70347                  23137389.5654
        44.0004         28.0004
 04  8  4 20 17 30.0000000  0  7G20G 1G13G16G23G25G11
  20586437.5274  -43365934.85249 -40604206.61748                  20586435.2784
        49.2504         41.7504
  20915531.6394  -58381308.24649 -45467009.63748                  20915530.6304
        49.5004         40.5004
  24584427.5334   -1880083.44549  -1436846.00846                  24584427.8304
        38.5004         18.2504
  22604313.9894  -25284734.43749 -19684185.94547                  22604312.5584
        44.2504         31.2504
  21462120.5074  -45072021.21549 -35057221.45347                  21462117.0284
        47.7504         38.2504
  22231379.5494  -60705584.93049 -47271520.10947                  22231378.3784
        47.0004         35.5004
  23134806.8194  -44807772.36749 -44043818.26647                  23134806.8394
        44.2504         27.5004
 04  8  4 20 17 45.0000000  0  7G20G 1G13G16G23G25G11
  20572674.5274  -43438256.46149 -40660561.12148                  20572672.7614
        49.0004         41.5004
  20904186.4644  -58440929.03149 -45513467.39548                  20904185.1314
        48.7504         40.5004
  24567156.6744   -1970838.77049  -1507564.38746                  24567157.5394
        36.2504         17.7504
  22587582.5564  -25372658.87949 -19752698.46947                  22587581.4134
        44.0004         31.0004
  21447730.5394  -45147642.68449 -35116147.25847                  21447726.8974
        48.2504         38.5004
  22228425.1514  -60721110.86349 -47283618.24647                  22228423.9304
        46.0004         35.5004
  23132230.4734  -44821313.44949 -44054369.78947                  23132230.4564
        44.7504         28.5004
 04  8  4 20 18  0.0000000  0  7G20G 1G13G16G23G25G11
  20558931.4004  -43510478.98049 -40716838.41048                  20558929.3144
        48.7504         41.2504
  20892846.5914  -58500518.14849 -45559900.47348                  20892845.8944
        48.5004         40.2504
  24549887.4694   -2061593.10949  -1578282.02746                  24549887.8414
        37.7504         17.5004
  22570865.1304  -25460508.17649 -19821152.43447                  22570864.4704
        42.5004         31.5004
  21433346.1794  -45223233.27049 -35175049.00447                  21433342.1244
        47.7504         38.0004
  22225478.1704  -60736595.30149 -47295684.05947                  22225477.1074
        46.5004         35.5004
  23129660.6054  -44834819.98449 -44064894.39847                  23129660.2424
        44.5004         29.0004
 04  8  4 20 18 15.0000000  0  7G20G 1G13G16G23G25G11
  20545207.5054  -43582600.43749 -40773036.95348                  20545205.3454
        49.5004         41.2504
  20881513.5844  -58560073.94549 -45606307.58648                  20881512.9584
        48.7504         40.2504
  24532617.7754   -2152344.88749  -1648997.72346                  24532617.9354
        37.5004         17.5004
  22554162.9684  -25548280.21949 -19889546.20747                  22554162.4094
        44.5004         31.7504
  21418967.6834  -45298791.16849 -35233925.28547                  21418963.8994
        48.7504         38.2504
  22222540.2194  -60752037.04749 -47307716.60247                  22222539.4644
        46.0004         35.5004
  23127096.9164  -44848290.81249 -44075391.19947                  23127096.9104
        44.5004         28.0004
 04  8  4 20 18 30.0000000  0  7G20G 1G13G16G23G25G11
  20531502.1104  -43654621.48449 -40829157.24248                  20531500.4404
        50.0004         41.7504
  20870186.8044  -58619597.34849 -45652689.45748                  20870186.3894
        48.7504         40.5004
  24515348.2984   -2243094.89149  -1719711.97346                  24515348.2554
        36.0004         17.0004
  22537475.4314  -25635975.64149 -19957880.27047                  22537473.9394
        45.2504         32.5004
  21404595.5594  -45374317.27049 -35292776.78547                  21404591.7954
        48.0004         38.5004
  22219609.3764  -60767437.17649 -47319716.71947                  22219608.7644
        45.0004         35.7504
  23124539.7904  -44861727.03949 -44085861.03947                  23124540.1054
        44.0004         28.5004
 04  8  4 20 18 45.0000000  0  7G20G 1G13G16G23G25G11
  20517816.0694  -43726540.65649 -40885198.15648                  20517814.6254
        49.5004         41.7504
  20858866.2544  -58679087.16449 -45699045.15248                  20858865.5034
        49.0004         40.7504
  24498079.9554   -2333841.89849  -1790423.90646                  24498079.9314
        37.2504         18.5004
  22520802.3634  -25723592.87149 -20026153.42647                  22520800.9014
        45.0004         30.5004
  21390229.9364  -45449810.28949 -35351602.51247                  21390225.9854
        48.0004         38.0004
  22216686.7134  -60782794.71149 -47331683.63747                  22216685.4814
        45.7504         36.7504
  23121990.0114  -44875127.66849 -44096303.13347                  23121989.7564
        44.0004         28.0004
 04  8  4 20 19  0.0000000  0  7G20G 1G13G16G23G25G11
  20504150.4554  -43798356.21549 -40941158.32448                  20504148.3994
        48.7504         41.7504
  20847552.1354  -58738541.96149 -45745373.57048                  20847551.6114
        48.0004         40.5004
  24480811.2964   -2424584.53149  -1861132.44946                  24480812.0194
        36.5004         16.2504
  22504144.4474  -25811130.09049 -20094364.21947                  22504143.2424
        43.7504         31.5004
  21375870.5864  -45525268.84049 -35410401.36347                  21375867.1814
        47.2504         38.2504
  22213773.2164  -60798108.55549 -47343616.52347                  22213771.6834
        46.5004         36.2504
  23119447.2714  -44888491.71149 -44106716.71947                  23119446.5414
        44.2504         27.2504
 04  8  4 20 19 15.0000000  0  7G20G 1G13G16G23G25G11
  20490503.2514  -43870069.51649 -40997038.81648                  20490501.7214
        49.5004         41.5004
  20836244.6924  -58797963.32049 -45791675.91848                  20836243.9444
        48.5004         40.5004
  24463545.1394   -2515324.42649  -1931838.77746                  24463544.7154
        38.2504         18.5004
  22487501.5464  -25898588.41449 -20162513.54347                  22487500.5054
        45.5004         31.0004
  21361517.4824  -45600694.42249 -35469174.53947                  21361513.9744
        47.7504         38.2504
  22210866.9444  -60813380.45349 -47355516.71147                  22210865.7924
        45.7504         36.0004
  23116910.9734  -44901821.10249 -44117103.27347                  23116909.0184
        45.0004         27.2504
 04  8  4 20 19 30.0000000  0  7G20G 1G13G16G23G25G11
  20476876.8044  -43941678.19949 -41052837.78948                  20476875.0284
        50.0004         41.7504
  20824943.9374  -58857349.05149 -45837950.50848                  20824943.5994
        49.5004         41.0004
  24446278.7414   -2606059.32049  -2002541.27046                  24446279.0594
        36.5004         20.5004
  22470873.9494  -25985965.40249 -20230599.47747                  22470872.8754
        44.5004         31.7504
  21347171.2494  -45676084.81649 -35527920.28547                  21347167.2684
        47.5004         38.5004
  22207969.4604  -60828608.45749 -47367382.70347                  22207968.3374
        46.7504         36.5004
  23114380.9724  -44915114.02349 -44127461.44147                  23114379.8484
        45.5004         27.5004
 04  8  4 20 19 45.0000000  0  7G20G 1G13G16G23G25G11
  20463270.0704  -44013181.03549 -41108554.28548                  20463268.5454
        49.7504         42.0004
  20813650.1244  -58916698.21149 -45884196.60548                  20813649.8404
        48.5004         41.2504
  24429013.6624   -2696788.26649  -2073239.12546                  24429014.0604
        40.2504         20.5004
  22454262.3264  -26073259.66049 -20298620.94147                  22454261.3904
        44.7504         32.2504
  21332831.5354  -45751439.07449 -35586637.88347                  21332828.0644
        47.2504         38.2504
  22205079.7444  -60843791.93049 -47379213.98447                  22205078.6504
        47.5004         36.2504
  23111858.2114  -44928369.88349 -44137790.73447                  23111858.4664
        45.0004         28.5004
 04  8  4 20 20  0.0000000  0  7G20G 1G13G16G23G25G11
  20449683.8964  -44084578.24649 -41164188.47748                  20449682.0934
        50.5004         41.5004
  20802363.2284  -58976011.23849 -45930414.54748                  20802363.0294
        49.0004         40.7504
  24411749.8444   -2787511.77349  -2143932.72746                  24411750.1674
        39.7504         22.2504
  22437666.8574  -26160471.19549 -20366577.95347                  22437665.6234
        46.2504         32.5004
  21318499.0214  -45826757.60549 -35645327.65247                  21318494.8584
        47.7504         38.0004
  22202199.0534  -60858931.63349 -47391011.18047                  22202197.4914
        46.7504         36.2504
  23109342.8344  -44941589.40249 -44148091.69147                  23109342.9424
        44.2504         27.5004
 04  8  4 20 20 15.0000000  0  7G20G 1G13G16G23G25G11
  20436118.0124  -44155869.14149 -41219739.82848                  20436116.0204
        48.7504         41.2504
  20791083.0684  -59035287.76649 -45976604.05148                  20791082.9834
        48.2504         40.5004
  24394486.3184   -2878229.24249  -2214621.59446                  24394486.9354
        38.2504         21.5004
  22421086.7604  -26247599.26249 -20434469.94147                  22421085.7084
        45.2504         31.5004
  21304173.2164  -45902039.93049 -35703989.19147                  21304169.6234
        47.2504         38.2504
  22199326.1794  -60874027.26249 -47402774.01247                  22199324.7754
        47.0004         36.0004
  23106834.4254  -44954772.52049 -44158364.28947                  23106834.6134
        44.5004         28.5004
 04  8  4 20 20 30.0000000  0  7G20G 1G13G16G23G25G11
  20422572.0584  -44227053.78149 -41275208.37548                  20422570.0554
        49.7504         41.2504
  20779810.2884  -59094528.17249 -46022765.40248                  20779809.5154
        48.7504         40.2504
  24377224.8424   -2968940.98049  -2285306.06246                  24377225.3864
        38.5004         21.7504
  22404522.7154  -26334643.90649 -20502296.91047                  22404522.0114
        45.5004         32.2504
  21289854.2594  -45977286.38349 -35762622.78147                  21289850.4664
        47.7504         38.5004
  22196461.7064  -60889079.44149 -47414502.99247                  22196460.6734
        46.2504         35.5004
  23104332.5374  -44967919.92249 -44168609.05947                  23104332.4784
        44.7504         28.7504
 04  8  4 20 20 45.0000000  0  7G20G 1G13G16G23G25G11
  20409046.3094  -44298131.08249 -41330593.28148                  20409044.2124
        49.0004         41.5004
  20768544.1894  -59153731.48049 -46068897.84848                  20768543.7264
        49.0004         40.7504
  24359963.9494   -3059646.32449  -2355985.49246                  24359964.9244
        37.5004         20.0004
  22387974.3554  -26421603.87549 -20570057.88347                  22387973.7634
        45.2504         31.5004
  21275542.0144  -46052496.09449 -35821227.75047                  21275538.7434
        47.0004         38.5004
  22193606.2104  -60904087.44149 -47426197.54747                  22193604.7974
        46.7504         36.0004
  23101837.2084  -44981030.99249 -44178825.52747                  23101837.0374
        44.5004         28.0004
 04  8  4 20 21  0.0000000  0  7G20G 1G13G16G23G25G11
  20395541.1124  -44369100.39549 -41385894.05148                  20395539.1604
        50.2504         42.0004
  20757285.4204  -59212897.35949 -46115001.14148                  20757284.6384
        49.5004         40.5004
  24342704.1574   -3150344.84449  -2426659.62146                  24342704.8344
        38.0004         18.5004
  22371443.0174  -26508478.38349 -20637752.29347                  22371441.8364
        44.7504         32.0004
  21261237.9304  -46127668.59449 -35879803.71947                  21261233.7204
        48.0004         38.2504
  22190758.5004  -60919051.22349 -47437857.65247                  22190757.1814
        46.7504         35.5004
  23099349.2174  -44994105.87949 -44189013.80547                  23099348.3344
        43.0004         26.2504
 04  8  4 20 21 15.0000000  0  7G20G 1G13G16G23G25G11
  20382057.2114  -44439960.86749 -41441110.00048                  20382054.8584
        49.5004         41.7504
  20746033.7914  -59272025.13349 -46161074.72748                  20746033.0944
        49.2504         41.0004
  24325446.3894   -3241035.94549  -2497327.96146                  24325446.7224
        38.2504         17.7504
  22354927.6284  -26595266.42249 -20705379.29747                  22354927.0164
        45.0004         32.5004
  21246939.7844  -46202803.26649 -35938350.21147                  21246936.1544
        47.2504         38.0004
  22187919.3534  -60933970.50449 -47449483.07847                  22187917.9924
        46.2504         35.5004
  23096868.0884  -45007144.23849 -44199173.62547                  23096867.4854
        44.7504         27.7504
 04  8  4 20 21 30.0000000  0  7G20G 1G13G16G23G25G11
  20368593.2624  -44510711.68049 -41496240.50448                  20368591.4394
        49.5004         41.2504
  20734789.7124  -59331114.29349 -46207118.22748                  20734789.0534
        48.7504         41.0004
  24308190.7414   -3331718.90659  -2567989.99256                  24308190.1344
        38.5004         18.5004
  22338429.2684  -26681967.19149 -20772938.32447                  22338428.2644
        45.5004         32.7504
  21232649.7444  -46277899.45349 -35996866.70347                  21232645.9184
        46.5004         37.7504
  22185089.2204  -60948844.82049 -47461073.46147                  22185087.5714
        46.2504         35.0004
  23094394.0964  -45020145.78949 -44209304.75047                  23094394.4034
        43.0004         28.0004
 04  8  4 20 21 45.0000000  0  7G20G 1G13G16G23G25G11
  20355151.0834  -44581352.16049 -41551285.03548                  20355149.0024
        50.2504         41.5004
  20723552.6544  -59390164.42649 -46253131.31648                  20723551.7244
        49.0004         41.0004
  24290934.8624   -3422393.54749  -2638645.53946                  24290934.7344
        39.2504         19.2504
  22321947.6134  -26768579.83249 -20840428.66047                  22321946.8994
        46.7504         32.5004
  21218366.7374  -46352956.75049 -36055352.91447                  21218363.0874
        48.0004         38.0004
  22182266.6204  -60963674.10949 -47472628.77047                  22182265.6924
        45.5004         35.2504
  23091926.8814  -45033110.53549 -44219407.20347                  23091927.6244
        43.0004         28.0004
 04  8  4 20 22  0.0000000  0  7G20G 1G13G16G23G25G11
  20341729.8434  -44651880.67249 -41606242.31648                  20341727.9454
        49.2504         41.7504
  20712323.7074  -59449174.16849 -46299112.93048                  20712322.4604
        48.7504         40.7504
  24273682.6214   -3513058.43449  -2709293.50046                  24273682.8924
        38.5004         20.0004
  22305482.5494  -26855102.51249 -20907848.90247                  22305482.1824
        45.5004         32.0004
  21204091.0214  -46427973.84049 -36113807.78147                  21204087.7304
        46.5004         37.7504
  22179454.2024  -60978457.27349 -47484148.12547                  22179452.5464
        46.0004         35.5004
  23089467.3854  -45046037.46949 -44229480.18047                  23089467.8604
        43.2504         28.2504
 04  8  4 20 22 15.0000000  0  7G20G 1G13G16G23G25G11
  20328329.7854  -44722297.61749 -41661112.66048                  20328327.8024
        50.2504         42.0004
  20701102.1964  -59508144.10949 -46345063.53948                  20701101.3094
        49.7504         41.0004
  24256431.2994   -3603713.90649  -2779934.07846                  24256431.5944
        38.5004         21.7504
  22289035.1834  -26941535.52349 -20975199.27347                  22289034.0344
        46.0004         32.2504
  21189823.7094  -46502951.14849 -36172231.65647                  21189819.3864
        47.5004         37.7504
  22176649.1464  -60993195.11749 -47495632.17247                  22176648.1494
        46.5004         35.0004
  23087014.6464  -45058927.47349 -44239524.37547                  23087014.4664
        43.5004         28.5004
 04  8  4 20 22 30.0000000  0  7G20G 1G13G16G23G25G11
  20314951.0784  -44792603.25849 -41715896.27348                  20314949.4004
        49.2504         41.7504
  20689887.8504  -59567074.66849 -46390983.45748                  20689886.9644
        49.7504         41.0004
  24239181.3974   -3694360.68449  -2850567.87146                  24239182.5194
        39.2504         21.7504
  22272604.0574  -27027879.04349 -21042479.91847                  22272603.4034
        45.5004         32.2504
  21175563.4604  -46577889.09049 -36230624.84847                  21175559.4154
        47.5004         37.7504
  22173853.3694  -61007888.41049 -47507081.49647                  22173852.0374
        45.0004         34.7504
  23084569.1734  -45071781.34049 -44249540.43747                  23084569.0204
        45.0004         28.5004
 04  8  4 20 22 45.0000000  0  7G20G 1G13G16G23G25G11
  20301593.4784  -44862798.77749 -41770594.08648                  20301591.7414
        49.5004         41.2504
  20678681.1864  -59625967.35549 -46436873.85948                  20678680.1934
        49.2504         41.0004
  24221934.2254   -3785000.05149  -2921195.93046                  24221934.3454
        40.5004         22.5004
  22256190.8484  -27114134.03949 -21109691.58647                  22256189.4574
        46.7504         32.5004
  21161310.1544  -46652789.16049 -36288988.53547                  21161305.9994
        46.2504         38.0004
  22171065.6614  -61022538.78949 -47518497.38747                  22171064.1164
        45.2504         34.0004
  23082129.1894  -45084600.94549 -44259529.78147                  23082128.7084
        44.5004         27.5004
 04  8  4 20 23  0.0000000  0  7G20G 1G13G16G23G25G11
  20288256.8054  -44932882.85249 -41825205.05548                  20288255.3524
        50.2504         41.7504
  20667481.3574  -59684821.20349 -46482733.99648                  20667480.5154
        49.5004         41.0004
  24204686.4114   -3875631.23449  -2991817.58646                  24204688.2344
        39.2504         22.2504
  22239793.8904  -27200299.28549 -21176833.32447                  22239792.8174
        47.0004         32.0004
  21147064.6464  -46727650.34049 -36347321.89847                  21147060.4784
        47.2504         38.0004
  22168285.9614  -61037145.47749 -47529879.22347                  22168284.4634
        46.0004         35.0004
  23079696.3844  -45097385.68749 -44269491.97747                  23079695.9674
        43.2504         27.2504
 04  8  4 20 23 15.0000000  0  7G20G 1G13G16G23G25G11
  20574734.2994  -45002851.58249 -41879726.14148                  20574732.5544
        49.0004         41.7504
  20956082.3284  -59743633.21949 -46528561.53948                  20956081.4024
        49.5004         41.0004
  24487234.6974   -3966249.05149  -3062428.83646                  24487235.8134
        39.5004         22.0004
  22523207.9034  -27286369.56649 -21243901.06647                  22523205.9874
        46.5004         32.5004
  21432619.4994  -46802468.55149 -36405621.80947                  21432615.7914
        46.7504         38.0004
  22465307.1694  -61051708.67249 -47541227.18747                  22465305.6954
        46.5004         34.5004
  23377062.8144  -45110135.85949 -44279427.24647                  23377062.4644
        44.0004         27.2504
 04  8  4 20 23 30.0000000  0  7G20G 1G13G16G23G25G11
  20561440.0124  -45072715.24249 -41934165.35548                  20561438.1744
        49.7504         41.0004
  20944897.4524  -59802412.33249 -46574363.45748                  20944896.2394
        49.5004         40.7504
  24469991.1354   -4056866.56249  -3133039.83246                  24469992.1944
        40.7504         21.7504
  22506844.9524  -27372357.10249 -21310904.32447                  22506843.3754
        45.7504         32.0004
  21418388.4964  -46877254.98049 -36463896.93747                  21418384.4794
        48.2504         38.0004
  22462543.6014  -61066231.82049 -47552543.93047                  22462542.1154
        46.5004         34.5004
  23374641.9584  -45122854.68449 -44289338.05147                  23374642.6684
        44.0004         27.2504
 04  8  4 20 23 45.0000000  0  7G20G 1G13G16G23G25G11
  20548166.6474  -45142468.25849 -41988518.35248                  20548164.9404
        49.5004         41.2504
  20933718.9944  -59861153.97749 -46620136.15248                  20933718.0174
        48.0004         40.5004
  24452749.0024   -4147477.25049  -3203645.52746                  24452749.3744
        40.7504         23.0004
  22490498.2974  -27458255.19949 -21377837.87547                  22490497.4684
        47.0004         32.5004
  21404164.0224  -46952003.83649 -36522142.78947                  21404159.7854
        46.2504         37.7504
  22459787.5974  -61080713.55149 -47563828.41047                  22459786.7524
        45.0004         34.7504
  23372228.1734  -45135541.09449 -44299223.62547                  23372228.4954
        44.5004         28.5004
 04  8  4 20 24  0.0000000  0  7G20G 1G13G16G23G25G11
  20534914.0014  -45212110.93749 -42042785.36748                  20534912.0694
        50.0004         41.2504
  20922547.4584  -59919858.76249 -46665880.14148                  20922546.7174
        49.0004         40.7504
  24435507.5254   -4238081.52049  -3274246.24246                  24435508.4324
        42.0004         23.0004
  22474169.6234  -27544064.14549 -21444701.96547                  22474168.7674
        46.5004         32.2504
  21389946.9304  -47026715.71949 -36580359.83647                  21389943.1344
        47.5004         38.0004
  22457039.6334  -61095154.57449 -47575081.17647                  22457038.1194
        45.7504         34.0004
  23369820.2384  -45148195.96149 -44309084.60947                  23369820.3124
        44.7504         27.7504
 04  8  4 20 24 15.0000000  0  7G20G 1G13G16G23G25G11
  20521681.8444  -45281643.80149 -42096966.82048                  20521680.3844
        49.7504         41.2504
  20911383.4044  -59978527.48449 -46711596.03548                  20911382.5644
        49.0004         40.5004
  24418267.3974   -4328680.26249  -3344842.65646                  24418268.4924
        40.7504         25.0004
  22457858.2004  -27629784.34449 -21511496.92247                  22457856.6474
        46.7504         33.2504
  21375736.9904  -47101391.35549 -36638548.63747                  21375732.7594
        48.0004         38.2504
  22454299.1894  -61109556.00849 -47586303.07047                  22454297.9224
        46.0004         34.2504
  23367417.6014  -45160820.31649 -44318921.81247                  23367417.2284
        44.2504         27.5004
 04  8  4 20 24 30.0000000  0  7G20G 1G13G16G23G25G11
  20508471.9374  -45351066.28549 -42151062.26648                  20508469.8374
        50.2504         41.5004
  20900226.1304  -60037159.79749 -46757283.54748                  20900225.2044
        48.2504         41.2504
  24401027.9674   -4419273.32049  -3415434.59046                  24401028.4794
        39.5004         22.2504
  22441562.8084  -27715415.05549 -21578222.12147                  22441561.7194
        45.7504         33.0004
  21361533.1864  -47176030.28549 -36696708.83247                  21361529.1924
        47.0004         38.2504
  22451566.1774  -61123917.68749 -47597493.99647                  22451564.6124
        45.5004         34.2504
  23365021.6994  -45173414.26249 -44328735.33247                  23365021.3654
        45.2504         28.0004
 04  8  4 20 24 45.0000000  0  7G20G 1G13G16G23G25G11
  20495282.3764  -45420376.48049 -42205070.21148                  20495280.6654
        50.2504         41.7504
  20889075.9554  -60095753.90249 -46802941.28948                  20889075.4764
        48.7504         41.7504
  24383789.8204   -4509858.63349  -3486020.53146                  24383790.8874
        42.0004         22.2504
  22425285.2744  -27800954.12149 -21644875.90247                  22425284.4574
        47.0004         33.0004
  21347337.2444  -47250630.82049 -36754839.10947                  21347333.8604
        48.0004         38.0004
  22448840.8714  -61138238.07449 -47608652.76247                  22448839.3784
        44.7504         34.0004
  23362631.0074  -45185976.24249 -44338523.91047                  23362630.4204
        44.0004         27.2504
 04  8  4 20 25  0.0000000  0  7G20G 1G13G16G23G25G11
  20482114.4874  -45489573.67249 -42258990.10248                  20482112.6554
        50.0004         41.7504
  20877933.1964  -60154309.45349 -46848568.98848                  20877932.2814
        49.2504         41.2504
  24366553.5534   -4600435.95349  -3556600.19946                  24366554.1794
        42.0004         21.0004
  22409025.3634  -27886400.83649 -21711457.73447                  22409024.3324
        47.5004         33.5004
  21333148.4604  -47325192.39849 -36812939.03147                  21333144.6734
        47.5004         38.2504
  22446124.0984  -61152517.23449 -47619779.39147                  22446122.3754
        44.5004         33.5004
  23360246.7704  -45198506.31649 -44348287.66847                  23360246.4644
        45.0004         27.7504
 04  8  4 20 25 15.0000000  0  7G20G 1G13G16G23G25G11
  20468968.8034  -45558655.84449 -42312820.37148                  20468967.0544
        50.0004         41.5004
  20866798.1474  -60212824.66449 -46894165.25448                  20866797.1514
        49.2504         41.5004
  24349319.9524   -4691003.46549  -3627172.25846                  24349319.5494
        43.5004         23.0004
  22392783.4564  -27971753.06249 -21777965.94947                  22392782.3254
        47.5004         32.7504
  21318967.8344  -47399713.31649 -36871007.27347                  21318964.3194
        48.5004         38.2504
  22443414.9344  -61166753.57449 -47630872.65247                  22443413.1824
        44.0004         34.0004
  23357868.1984  -45211003.04749 -44358025.42647                  23357868.8734
        44.5004         27.0004
 04  8  4 20 25 30.0000000  0  7G20G 1G13G16G23G25G11
  20455844.9894  -45627622.60549 -42366560.70348                  20455842.9834
        50.2504         41.2504
  20855670.7244  -60271299.35549 -46939729.94148                  20855669.6964
        49.7504         41.0004
  24332086.7204   -4781560.95749  -3697736.49246                  24332086.5284
        43.5004         22.7504
  22376559.1434  -28057010.25449 -21844400.10247                  22376558.3544
        47.0004         32.0004
  21304794.8304  -47474193.35949 -36929043.66847                  21304790.8494
        48.0004         38.5004
  22440713.3954  -61180947.01649 -47641932.48047                  22440712.2574
        45.2504         33.0004
  23355496.9524  -45223466.57049 -44367737.32047                  23355497.0284
        44.5004         28.0004
 04  8  4 20 25 45.0000000  0  7G20G 1G13G16G23G25G11
  20442743.3514  -45696472.04749 -42420209.61748                  20442741.2924
        50.0004         41.7504
  20844551.5384  -60329731.77049 -46985261.69548                  20844550.4264
        50.0004         41.2504
  24314856.3594   -4872106.75049  -3768291.60946                  24314855.9234
        43.2504         22.2504
  22360354.1024  -28142170.32449 -21910758.57447                  22360352.7914
        47.0004         32.7504
  21290629.7764  -47548630.80949 -36987046.86747                  21290625.6654
        48.5004         38.5004
  22438021.3334  -61195096.22349 -47652957.86347                  22438020.3934
        45.2504         34.7504
  23353131.4314  -45235895.72749 -44377422.40247                  23353131.7384
        44.0004         27.5004
 04  8  4 20 26  0.0000000  0  7G20G 1G13G16G23G25G11
  20429663.8824  -45765204.09849 -42473767.06248                  20429661.9594
        50.2504         41.5004
  20833440.0404  -60388122.12949 -47030760.66848                  20833439.2024
        50.2504         40.7504
  24297627.7464   -4962641.02749  -3838837.77046                  24297627.4804
        41.7504         20.5004
  22344166.9004  -28227233.14149 -21977041.26647                  22344165.9034
        46.7504         33.5004
  21276472.9694  -47623025.77349 -37045016.95347                  21276469.0344
        48.0004         38.5004
  22435336.9664  -61209201.57849 -47663949.05147                  22435335.9574
        44.5004         34.0004
  23350773.1894  -45248290.78149 -44387080.95347                  23350772.7534
        44.7504         26.7504
 04  8  4 20 26 15.0000000  0  7G20G 1G13G16G23G25G11
  20416606.7384  -45833819.00849 -42527233.22748                  20416604.9664
        49.5004         41.5004
  20822336.7844  -60446470.91849 -47076227.26648                  20822336.1064
        50.0004         41.0004
  24280401.3314   -5053164.35549  -3909375.39546                  24280401.3914
        42.5004         19.2504
  22327998.8934  -28312198.81249 -22043248.26247                  22327997.6044
        47.5004         33.2504
  21262324.2024  -47697378.72749 -37102954.32847                  21262320.0524
        48.0004         38.5004
  22432661.3774  -61223263.82849 -47674906.66447                  22432659.6434
        46.2504         34.2504
  23348420.8714  -45260652.72749 -44396713.69147                  23348420.7654
        44.5004         27.7504
 04  8  4 20 26 30.0000000  0  7G20G 1G13G16G23G25G11
  20403572.0054  -45902316.79349 -42580608.12148                  20403570.1824
        48.7504         40.5004
  20811241.0184  -60504778.29749 -47121661.57848                  20811240.6204
        48.5004         40.5004
  24263178.4514   -5143676.75549  -3979904.52746                  24263177.5954
        42.5004         21.0004
  22311848.4824  -28397067.28949 -22109379.53147                  22311847.1654
        47.0004         33.2504
  21248182.9104  -47771689.84449 -37160859.09047                  21248178.9214
        47.5004         38.0004
  22429993.3754  -61237283.32049 -47685830.95747                  22429992.1594
        45.2504         34.7504
  23346074.6434  -45272982.10549 -44406321.04347                  23346073.9334
        45.2504         26.2504
 04  8  4 20 26 45.0000000  0  7G20G 1G13G16G23G25G11
  20390560.1284  -45970695.93749 -42633890.56248                  20390557.8994
        49.5004         41.0004
  20800153.7124  -60563042.98049 -47167062.62948                  20800153.1334
        49.2504         40.5004
  24245956.6054   -5234177.16849  -4050424.23846                  24245956.4514
        41.5004         21.7504
  22295717.4104  -28481836.89849 -22175433.75447                  22295716.4134
        47.5004         33.5004
  21234050.3494  -47845957.73449 -37218730.16047                  21234046.2034
        49.2504         38.7504
  22427333.9134  -61251259.12149 -47696721.20347                  22427332.8804
        45.5004         33.7504
  23343734.6594  -45285277.79749 -44415902.13747                  23343734.5304
        44.2504         28.0004
 04  8  4 20 27  0.0000000  0  7G20G 1G13G16G23G25G11
  20377570.0884  -46038958.57849 -42687082.23448                  20377567.9874
        49.7504         41.5004
  20789074.3384  -60621267.39149 -47212432.30148                  20789073.4034
        48.2504         41.0004
  24228736.8544   -5324667.78549  -4120936.32446                  24228737.2564
        42.0004         21.2504
  22279604.8854  -28566509.69549 -22241412.52347                  22279603.6504
        47.7504         33.2504
  21219925.3394  -47920184.80949 -37276569.43047                  21219921.3474
        48.0004         38.0004
  22424682.3914  -61265193.94949 -47707579.52347                  22424680.9064
        43.7504         34.7504
  23341401.0674  -45297542.68049 -44425459.23447                  23341400.5244
        44.5004         28.0004
 04  8  4 20 27 15.0000000  0  7G20G 1G13G16G23G25G11
  20364602.4744  -46107103.77349 -42740182.39848                  20364600.2124
        49.7504         41.7504
  20778002.1194  -60679450.78149 -47257770.00848                  20778001.2384
        49.0004         41.0004
  24211518.7504   -5415147.93449  -4191440.32446                  24211519.2024
        41.7504         21.7504
  22263510.5704  -28651084.46549 -22307314.93747                  22263509.0984
        47.7504         33.0004
  21205808.1544  -47994370.38349 -37334376.35947                  21205804.2934
        47.5004         38.5004
  22422038.9614  -61279087.14549 -47718405.40247                  22422037.6504
        46.7504         35.2504
  23339072.9124  -45309776.32049 -44434992.00446                  23339072.0384
        44.5004         24.5004
 04  8  4 20 27 30.0000000  0  7G20G 1G13G16G23G25G11
  20351657.1834  -46175132.93049 -42793192.12548                  20351654.8314
        50.0004         42.0004
  20766937.7824  -60737594.88749 -47303077.10248                  20766937.2734
        49.2504         41.5004
  24194302.8084   -5505619.32849  -4261937.50446                  24194302.7664
        41.0004         21.2504
  22247434.7544  -28735562.68449 -22373142.10547                  22247433.5844
        47.5004         32.5004
  21191698.7184  -48068515.99249 -37392152.15647                  21191695.2194
        47.2504         38.2504
  22419402.3174  -61292940.77749 -47729200.46147                  22419401.4554
        45.7504         34.0004
  23336750.0334  -45321980.76649 -44444502.00446                  23336749.5274
        43.5004         25.0004
 04  8  4 20 27 45.0000000  0  7G20G 1G13G16G23G25G11
  20338733.1324  -46243047.78549 -42846112.78548                  20338731.1694
        49.5004         41.2504
  20755880.4674  -60795701.52349 -47348354.99648                  20755879.6464
        49.2504         41.2504
  24177087.2564   -5596083.83249  -4332429.28546                  24177087.2094
        39.5004         20.0004
  22231376.9594  -28819945.83649 -22438895.19547                  22231376.3934
        46.5004         32.2504
  21177596.5124  -48142623.46949 -37449898.22747                  21177592.8864
        47.7504         38.2504
  22416773.3224  -61306756.96549 -47739966.32447                  22416772.1384
        45.5004         34.7504
  23334432.9354  -45334158.26249 -44453991.00446                  23334432.1134
        44.7504         24.7504
 04  8  4 20 28  0.0000000  0  7G20G 1G13G16G23G25G11
  20325831.5184  -46310847.20349 -42898943.51248                  20325829.8644
        50.2504         41.5004
  20744830.4384  -60853769.85549 -47393603.05148                  20744829.4504
        49.2504         41.2504
  24159873.7524   -5686540.48149  -4402914.98446                  24159873.1804
        39.5004         20.5004
  22215337.9024  -28904232.64849 -22504573.19947                  22215336.9964
        46.5004         32.0004
  21163501.7004  -48216691.91849 -37507613.89847                  21163497.8964
        47.5004         38.2504
  22414151.6944  -61320535.02349 -47750702.50047                  22414150.5954
        46.5004         35.0004
  23332121.2084  -45346308.41849 -44463458.69946                  23332120.7104
        44.0004         24.7504
 04  8  4 20 28 15.0000000  0  7G20G 1G13G16G23G25G11
  20312951.5874  -46378530.42249 -42951683.68448                  20312949.4484
        50.2504         41.7504
  20733787.6804  -60911799.43749 -47438820.90648                  20733786.6664
        49.5004         41.0004
  24142662.2704   -5776988.92249  -4473394.18746                  24142662.0684
        39.5004         20.0004
  22199317.1404  -28988422.43749 -22570175.62547                  22199315.9374
        47.7504         32.2504
  21149414.4264  -48290720.84449 -37565298.76647                  21149410.7044
        47.5004         38.7504
  22411536.6634  -61334274.74249 -47761408.78147                  22411536.0894
        46.5004         35.2504
  23329814.0924  -45358431.03549 -44472904.93047                  23329814.1474
        43.5004         26.5004
 04  8  4 20 28 30.0000000  0  7G20G 1G13G16G23G25G11
  20300093.7704  -46446099.66449 -43004335.04348                  20300091.8894
        49.5004         41.2504
  20722751.8284  -60969792.50449 -47484010.30148                  20722751.1454
        48.5004         40.5004
  24125451.5744   -5867431.44549  -4543868.84446                  24125452.4494
        37.2504         20.5004
  22183314.7234  -29072517.06249 -22635703.87947                  22183313.2844
        47.2504         31.7504
  21135334.8884  -48364712.57049 -37622954.64547                  21135331.0374
        48.0004         38.0004
  22408929.1954  -61347978.60249 -47772087.13347                  22408927.4654
        45.7504         35.2504
  23327511.9444  -45370528.69149 -44482331.72347                  23327512.1474
        43.5004         25.7504
 04  8  4 20 28 45.0000000  0  7G20G 1G13G16G23G25G11
  20287257.6114  -46513554.22749 -43056897.04348                  20287255.8834
        50.0004         41.5004
  20711723.2384  -61027748.67649 -47529170.95348                  20711722.2644
        49.5004         41.0004
  24108241.6774   -5957867.63349  -4614338.57846                  24108242.6064
        38.5004         20.5004
  22167330.0114  -29156515.84849 -22701157.45747                  22167329.0324
        48.0004         32.5004
  21121261.4194  -48438666.57849 -37680581.14147                  21121257.5904
        48.7504         38.5004
  22406328.2474  -61361646.50849 -47782737.46547                  22406327.0684
        47.0004         35.5004
  23325214.4914  -45382601.32049 -44491739.01246                  23325215.4614
        43.0004         25.2504
 04  8  4 20 29  0.0000000  0  7G20G 1G13G16G23G25G11
  20274443.3894  -46580893.88749 -43109369.50848                  20274441.5484
        50.7504         41.5004
  20700701.6324  -61085668.07849 -47574302.95748                  20700700.6064
        49.5004         41.0004
  24091034.6654   -6048297.47749  -4684803.36346                  24091034.3174
        40.5004         20.5004
  22151364.4334  -29240418.57049 -22766536.17647                  22151363.0734
        48.0004         33.2504
  21107195.8684  -48512582.96949 -37738178.32047                  21107192.1704
        48.7504         39.0004
  22403734.2084  -61375278.73449 -47793359.98847                  22403733.2544
        45.7504         35.5004
  23322921.9664  -45394649.33249 -44501127.13347                  23322922.2554
        44.0004         26.5004
 04  8  4 20 29 15.0000000  0  7G20G 1G13G16G23G25G11
  20261650.8734  -46648117.73449 -43161751.73048                  20261649.1714
        49.7504         42.0004
  20689687.0084  -61143549.71549 -47619405.53148                  20689686.0894
        50.5004         41.0004
  24073827.0584   -6138720.13349  -4755262.58246                  24073826.7944
        39.5004         20.0004
  22135416.4084  -29324223.87549 -22831839.01247                  22135415.0684
        48.0004         33.0004
  21093137.4684  -48586460.80549 -37795745.46547                  21093133.5174
        49.0004         38.5004
  22401146.7074  -61388874.69949 -47803954.25847                  22401145.2624
        46.5004         35.2504
  23320634.2374  -45406672.24649 -44510495.69946                  23320634.3564
        43.2504         25.5004
 04  8  4 20 29 30.0000000  0  7G20G 1G13G16G23G25G11
  20248880.5574  -46715227.38749 -43214044.96148                  20248878.5134
        50.0004         41.5004
  20678679.4064  -61201395.54349 -47664480.20348                  20678678.7084
        49.5004         41.0004
  24056620.8094   -6229137.56649  -4825717.66046                  24056621.7784
        39.7504         19.2504
  22119487.4024  -29407933.35949 -22897067.16047                  22119485.9794
        48.2504         33.5004
  21079085.3874  -48660301.98849 -37853284.04347                  21079082.4184
        49.0004         39.0004
  22398566.3364  -61402436.56649 -47814521.96147                  22398565.2814
        46.5004         35.2504
  23318350.9314  -45418672.18749 -44519846.35246                  23318350.4244
        42.7504         25.5004
 04  8  4 20 29 45.0000000  0  7G20G 1G13G16G23G25G11
  20236131.7424  -46782222.52049 -43266248.95748                  20236129.6824
        50.0004         42.5004
  20667678.6134  -61259205.44949 -47709526.87548                  20667677.5154
        49.7504         41.5004
  24039416.7934   -6319549.66049  -4896168.60946                  24039417.0734
        40.5004         21.0004
  22103575.7264  -29491546.56649 -22962220.29347                  22103574.6844
        47.0004         33.2504
  21065040.9844  -48734106.33649 -37910793.92247                  21065037.1974
        48.2504         38.7504
  22395991.9494  -61415964.53949 -47825063.26247                  22395991.1684
        46.5004         35.5004
  23316071.2994  -45430649.56649 -44529179.40646                  23316071.6994
        43.5004         25.5004
 04  8  4 20 30  0.0000000  0  7G20G 1G13G16G23G25G11
  20223404.6574  -46849103.97349 -43318364.38348                  20223402.8014
        50.5004         42.5004
  20656684.1464  -61316980.59449 -47754546.47348                  20656683.2774
        49.2504         40.7504
  24022212.6714   -6409957.58649  -4966616.30146                  24022212.0424
        41.5004         19.2504
  22087683.2644  -29575064.41849 -23027299.12547                  22087681.8524
        46.2504         33.0004
  21051003.7524  -48807875.01249 -37968276.01247                  21050999.7744
        48.2504         38.5004
  22393423.9524  -61429459.95749 -47835579.18747                  22393422.5604
        45.7504         35.0004
  23313796.8014  -45442605.81649 -44538496.00846                  23313797.0114
        43.5004         25.2504
 04  8  4 20 30 15.0000000  0  7G20G 1G13G16G23G25G11
  20210698.9894  -46915872.54749 -43370391.84448                  20210696.9534
        50.0004         42.0004
  20645696.1754  -61374721.93049 -47799539.72348                  20645695.5224
        50.0004         40.7504
  24005009.2584   -6500362.40649  -5037061.61346                  24005007.9174
        41.7504         17.7504
  22071808.0794  -29658487.58249 -23092304.16847                  22071807.0604
        47.2504         33.0004
  21036972.0714  -48881608.88749 -38025730.96547                  21036968.8444
        48.5004         38.5004
  22390861.4394  -61442924.02049 -47846070.67247                  22390860.4164
        45.5004         35.0004
  23311524.9764  -45454542.31649 -44547797.22346                  23311525.3904
        43.5004         25.0004
 04  8  4 20 30 30.0000000  0  7G20G 1G13G16G23G25G11
  20198014.5474  -46982528.34449 -43422331.42648                  20198012.8874
        50.0004         41.2504
  20634714.9384  -61432429.60249 -47844506.74248                  20634714.4434
        49.5004         41.2504
  23987805.6984   -6590764.10549  -5107504.41846                  23987805.4474
        42.7504         19.0004
  22055951.0644  -29741815.75449 -23157235.18747                  22055950.0554
        47.0004         33.0004
  21022947.6644  -48955308.12949 -38083158.93747                  21022944.0374
        47.7504         38.7504
  22388305.5324  -61456356.96549 -47856537.90647                  22388304.5554
        46.7504         35.0004
  23309257.3384  -45466459.51249 -44557083.38746                  23309256.9884
        43.5004         24.5004
 04  8  4 20 30 45.0000000  0  7G20G 1G13G16G23G25G11
  20485145.4204  -47049068.31249 -43474180.75048                  20485142.9434
        50.2504         41.7504
  20923532.8564  -61490101.47349 -47889445.85548                  20923532.2944
        50.2504         41.2504
  24270397.4304   -6681158.28949  -5177941.40646                  24270397.3004
        42.2504         19.0004
  22339905.6824  -29825044.73449 -23222088.91847                  22339904.9024
        47.7504         32.5004
  21308722.8484  -49028969.38349 -38140557.30947                  21308718.8484
        49.5004         39.0004
  22685547.2364  -61469760.02049 -47866981.86347                  22685546.4114
        45.5004         34.5004
  23606785.8874  -45478358.63349 -44566355.49646                  23606785.1414
        43.2504         25.0004
 04  8  4 20 31  0.0000000  0  7G20G 1G13G16G23G25G11
  20472503.4254  -47115500.64549 -43525946.20348                  20472500.7194
        49.5004         41.2504
  20912563.7654  -61547744.85549 -47934362.77748                  20912563.4384
        50.0004         41.2504
  24253194.8944   -6771556.66049  -5248381.61346                  24253194.4374
        42.7504         19.5004
  22324084.6214  -29908184.98049 -23286873.50847                  22324083.8014
        46.7504         33.0004
  21294711.0174  -49102602.19149 -38197933.51247                  21294707.4594
        48.7504         39.2504
  22683002.0764  -61483134.85249 -47877403.82047                  22683001.0954
        45.5004         34.2504
  23604524.2274  -45490241.26649 -44575614.73046                  23604523.3864
        44.7504         24.2504
 04  8  4 20 31 15.0000000  0  7G20G 1G13G16G23G25G11
  20459882.8704  -47181821.39849 -43577624.72348                  20459880.4884
        50.0004         41.7504
  20901600.5284  -61605356.52749 -47979254.98448                  20901600.1274
        49.5004         41.2504
  24235992.5674   -6861953.90249  -5318820.95746                  24235991.9194
        43.5004         20.5004
  22308281.2354  -29991231.09449 -23351584.74647                  22308280.3364
        47.5004         33.5004
  21280705.5244  -49176202.19949 -38255284.16447                  21280701.9244
        48.0004         39.0004
  22680462.0874  -61496481.46149 -47887803.78547                  22680460.9614
        45.5004         34.2504
  23602266.5454  -45502107.55149 -44584861.24246                  23602266.7084
        43.5004         25.0004
 04  8  4 20 31 30.0000000  0  7G20G 1G13G16G23G25G11
  20447283.7954  -47248032.43449 -43629217.73848                  20447281.0414
        50.5004         42.0004
  20890643.0204  -61662938.43449 -48024124.00848                  20890642.2724
        49.5004         41.2504
  24218790.7204   -6952352.03149  -5389261.03146                  24218789.4644
        43.5004         19.0004
  22292496.1374  -30074184.87549 -23416224.03947                  22292494.7384
        48.0004         32.7504
  21266705.7604  -49249771.41049 -38312610.81247                  21266702.1364
        48.0004         38.5004
  22677927.9994  -61509802.02049 -47898183.45747                  22677926.5154
        46.0004         33.7504
  23600010.7694  -45513959.88749 -44594096.87947                  23600011.9954
        43.5004         25.7504
 04  8  4 20 31 45.0000000  0  7G20G 1G13G16G23G25G11
  20434705.3274  -47314132.14549 -43680724.01248                  20434703.2824
        50.2504         42.0004
  20879691.5784  -61720489.35549 -48068968.87548                  20879690.7754
        48.7504         41.0004
  24201588.5204   -7042749.66449  -5459700.69146                  24201587.6124
        43.5004         20.0004
  22276728.5054  -30157044.77349 -23480790.18047                  22276727.0234
        48.0004         33.5004
  21252712.4064  -49323308.44149 -38369912.39847                  21252708.2744
        48.5004         38.5004
  22675398.2374  -61523095.38349 -47908541.93447                  22675396.7984
        45.0004         34.0004
  23597758.3964  -45525797.31249 -44603320.90647                  23597759.0224
        43.0004         25.7504
 04  8  4 20 32  0.0000000  0  7G20G 1G13G16G23G25G11
  20422147.8094  -47380121.76249 -43732144.49648                  20422145.9484
        49.2504         41.5004
  20868745.6534  -61778010.80949 -48113790.78548                  20868744.7084
        49.7504         41.0004
  24184385.9294   -7133148.36349  -5530141.23046                  24184385.0854
        42.5004         20.0004
  22260978.4154  -30239811.96149 -23545284.07447                  22260976.9594
        47.7504         34.0004
  21238724.2604  -49396814.77349 -38427190.05147                  21238720.3274
        47.7504         38.7504
  22672872.9654  -61536363.55549 -47918880.77747                  22672871.9924
        44.7504         33.0004
  23595508.6964  -45537621.75049 -44612534.78947                  23595509.0014
        43.5004         26.5004
 04  8  4 20 32 15.0000000  0  7G20G 1G13G16G23G25G11
  20409611.7094  -47445998.12549 -43783476.71948                  20409610.0614
        49.7504         41.5004
  20857805.7914  -61835499.73049 -48158587.35548                  20857804.9374
        49.0004         41.2504
  24167184.0594   -7223545.14549  -5600580.25446                  24167183.0904
        40.5004         19.5004
  22245246.5844  -30322482.99249 -23609703.03947                  22245245.3384
        47.2504         34.0004
  21224742.7284  -49470287.34849 -38484441.40248                  21224738.9424
        48.5004         39.5004
  22670353.8724  -61549603.49249 -47929197.62947                  22670352.3524
        45.2504         32.5004
  23593261.6854  -45549430.42249 -44621736.38347                  23593261.0754
        43.2504         26.5004
 04  8  4 20 32 30.0000000  0  7G20G 1G13G16G23G25G11
  20397097.3524  -47511761.01649 -43834720.52348                  20397095.6464
        49.5004         41.5004
  20846872.2624  -61892956.00849 -48203358.47348                  20846871.2814
        48.2504         41.5004
  24149982.4334
        37.7504
  22229532.7724  -30405057.50849 -23674046.80147                  22229531.6054
        47.5004         33.2504
  21210768.3414  -49543726.08649 -38541666.37147                  21210764.5904
        48.0004         38.7504
  22667839.1614  -61562815.48449 -47939492.71147                  22667838.0494
        43.7504         32.5004
  23591017.1594  -45561223.64849 -44630925.97347                  23591016.8364
        43.0004         26.7504
 04  8  4 20 32 45.0000000  0  7G20G 1G13G16G23G25G11
  20384605.3364  -47577410.05949 -43885875.63348                  20384603.3074
        50.2504         42.0004
  20835945.0334  -61950379.44949 -48248104.02048                  20835944.2904
        49.0004         41.5004
  24132781.0994    -101247.59849  -5726431.51256                  24132780.8134
        39.7504         21.5004
  22213838.0674  -30487535.03549 -23738314.96947                  22213836.1504
        48.2504         33.5004
  21196799.6114  -49617130.60549 -38598864.69547                  21196796.1204
        48.5004         39.0004
  22665330.0494  -61575999.62149 -47949766.07047                  22665329.3424
        44.5004         31.5004
  23588776.1644  -45573001.64549 -44640103.68747                  23588776.0264
        43.0004         27.5004
 04  8  4 20 33  0.0000000  0  7G20G 1G13G16G23G25G11
  20372134.2294  -47642946.76649 -43936943.19548                  20372132.1894
        50.0004         42.5004
  20825023.5404  -62007771.82049 -48292825.34448                  20825023.0324
        49.7504         41.5004
  24115579.6524    -191639.81649  -5796866.97746                  24115579.7604
        41.0004         20.5004
  22198161.3224  -30569916.91849 -23802508.63347                  22198159.2054
        48.0004         33.5004
  21182837.4484  -49690502.77749 -38656037.80547                  21182833.2674
        49.0004         39.2504
  22662826.5744  -61589157.88349 -47960019.28947                  22662825.1734
        44.5004         32.0004
  23586536.9854  -45584766.37149 -44649271.05547                  23586537.8424
        42.5004         26.5004
 04  8  4 20 33 15.0000000  0  7G20G 1G13G16G23G25G11
  20359684.4504  -47708369.46549 -43987921.93048                  20359682.1284
        49.0004         41.0004
  20814108.4064  -62065131.64149 -48337521.30948                  20814107.2304
        48.5004         41.0004
  24098379.3804    -282030.03549  -5867300.83246                  24098379.3994
        42.2504         22.7504
  22182503.1474  -30652201.42649 -23866626.41447                  22182501.0504
        47.0004         32.7504
  21168881.6314  -49763841.02349 -38713184.48847                  21168878.1174
        47.2504         39.0004
  22660327.6584  -61602289.01649 -47970251.34847                  22660326.1704
        45.0004         31.5004
  23584300.9534  -45596516.82849 -44658427.32047                  23584302.2134
        42.5004         25.7504
 04  8  4 20 33 30.0000000  0  7G20G 1G13G16G23G25G11
  20347256.3634  -47773678.49649 -44038812.07848                  20347254.4824
        49.5004         41.0004
  20803199.1664  -62122459.37149 -48382192.26648                  20803198.1824
        49.5004         41.0004
  24081179.3504    -372418.84449  -5937733.67246                  24081178.9084
        43.5004         25.0004
  22166862.8604  -30734388.69549 -23930668.42247                  22166861.4024
        47.0004         33.2504
  21154932.0474  -49837145.92649 -38770305.18048                  21154928.2694
        48.7504         39.5004
  22657834.0854  -61615393.87949 -47980462.94147                  22657833.1724
        44.2504         32.5004
  23582067.5774  -45608253.69949 -44667572.98047                  23582068.9344
        41.5004         26.5004
 04  8  4 20 33 45.0000000  0  7G20G 1G13G16G23G25G11
  20334850.3894  -47838873.61349 -44089613.46948                  20334848.0024
        50.0004         41.7504
  20792296.1674  -62179755.06249 -48426838.25848                  20792295.3464
        49.0004         41.0004
  24063978.7124    -462806.19949  -6008165.32047                  24063979.4844
        43.0004         26.2504
  22151241.9104  -30816478.41449 -23994634.42247                  22151239.9684
        47.2504         33.5004
  21140989.1004  -49910417.29749 -38827399.75048                  21140985.2864
        48.7504         39.7504
  22655345.3524  -61628472.53149 -47990654.11747                  22655343.9174
        44.7504         32.7504
  23579837.0744  -45619977.47349 -44676708.43747                  23579837.9314
        41.0004         26.5004
 04  8  4 20 34  0.0000000  0  7G20G 1G13G16G23G25G11
  20322465.7084  -47903954.58649 -44140325.91848                  20322463.5034
        50.2504         41.2504
  20781399.2784  -62237018.63749 -48471459.22348                  20781398.5494
        47.7504         41.2504
  24046779.0414    -553192.16849  -6078595.88347                  24046779.4804
        44.5004         27.5004
  22135639.5014  -30898470.27049 -24058524.15647                  22135637.6814
        47.2504         33.2504
  21127052.5894  -49983655.19949 -38884468.23448                  21127048.7744
        46.2504         39.7504
  22652861.8184  -61641525.21149 -48000825.04747                  22652860.3414
        44.0004         32.0004
  23577608.1804  -45631688.52049 -44685833.98447                  23577608.9184
        42.7504         26.2504
 04  8  4 20 34 15.0000000  0  7G20G 1G13G16G23G25G11
  20310103.1414  -47968920.91849 -44190949.03948                  20310100.9474
        49.5004         42.0004
  20770508.5394  -62294249.77749 -48516054.91048                  20770507.8984
        49.0004         40.7504
  24029579.5324    -643576.47749  -6149025.19147                  24029579.9874
        45.7504         28.5004
  22120055.4654  -30980363.59449 -24122337.12547                  22120054.1614
        47.7504         33.5004
  21113121.8004  -50056859.23449 -38941510.32848                  21113118.4314
        48.2504         39.5004
  22650382.0874  -61654551.89549 -48010975.71947                  22650381.3504
        44.5004         32.5004
  23575381.5414  -45643386.74649 -44694949.53547                  23575382.6874
        41.7504         26.2504
 04  8  4 20 34 30.0000000  0  7G20G 1G13G16G23G25G11
  20297761.9714  -48033773.93049 -44241483.85948                  20297759.5114
        50.0004         41.5004
  20759623.8614  -62351450.05149 -48560626.55548                  20759622.8104
        49.5004         40.2504
  24012379.8374    -733960.46149  -6219454.23447                  24012380.5944
        45.5004         27.0004
  22104490.1134  -31062159.67249 -24186074.30547                  22104488.9884
        47.5004         34.0004
  21099198.1914  -50130030.92249 -38998527.23447                  21099194.2724
        48.0004         39.2504
  22647908.3244  -61667554.30149 -48021107.48447                  22647906.9234
        44.0004         32.2504
  23573159.0734  -45655074.07449 -44704056.61747                  23573158.8384
        41.7504         27.5004
 04  8  4 20 34 45.0000000  0  7G20G 1G13G16G23G25G11
  20285442.7504  -48098511.46949 -44291928.70348                  20285440.7984
        50.0004         42.0004
  20748745.0504  -62408617.43049 -48605172.56648                  20748744.2604
        49.2504         40.5004
  23995181.4774    -824342.16449  -6289881.50846                  23995181.1664
        44.5004         25.5004
  22088944.0664  -31143856.13749 -24249733.86347                  22088942.6134
        48.0004         33.5004
  21085280.3704  -50203168.19949 -39055517.30947                  21085276.6054
        48.0004         39.0004
  22645439.2084  -61680530.80149 -48031219.06247                  22645437.5404
        44.5004         32.5004
  23570936.6434  -45666749.02349 -44713154.03547                  23570937.5704
        41.2504         26.2504
 04  8  4 20 35  0.0000000  0  7G20G 1G13G16G23G25G11
  20273145.4604  -48163133.22349 -44342283.31648                  20273143.7894
        50.7504         41.5004
  20737872.6574  -62465751.68449 -48649692.75848                  20737871.8524
        48.5004         41.0004
  23977982.1314    -914721.57449  -6360306.97347                  23977982.6134
        43.5004         26.0004
  22073417.0184  -31225452.55549 -24313315.46947                  22073415.7374
        48.0004         34.0004
  21071369.3814  -50276270.83649 -39112480.39547                  21071365.5374
        48.5004         38.0004
  22642974.3014  -61693481.48049 -48041310.50447                  22642973.4984
        44.7504         32.5004
  23568717.6674  -45678411.69549 -44722241.87947                  23568718.2624
        42.2504         26.0004
 04  8  4 20 35 15.0000000  0  7G20G 1G13G16G23G25G11
  20260870.4694  -48227638.46949 -44392547.14548                  20260869.2194
        50.2504         42.0004
  20727006.4544  -62522852.43049 -48694186.85248                  20727005.9814
        49.2504         40.7504
  23960783.6394   -1005098.28549  -6430730.34046                  23960784.5664
        43.2504         23.5004
  22057908.8774  -31306948.13749 -24376818.50847                  22057906.8594
        48.2504         33.5004
  21057464.9514  -50349338.43749 -39169416.18047                  21057461.0334
        48.2504         38.5004
  22640515.2084  -61706406.09849 -48051381.65647                  22640513.9674
        44.5004         32.7504
  23566500.9874  -45690061.99649 -44731320.06247                  23566501.2794
        43.7504         26.0004
 04  8  4 20 35 30.0000000  0  7G20G 1G13G16G23G25G11
  20248617.6254  -48292027.98049 -44442720.79348                  20248616.1044
        50.5004         42.5004
  20716146.8384  -62579920.63349 -48738655.58248                  20716145.9994
        49.0004         40.5004
  23943585.9444   -1095473.01649  -6501152.20746                  23943585.9324
        42.0004         24.0004
  22042419.7814  -31388343.52749 -24440243.46947                  22042417.8914
        48.0004         33.5004
  21043567.0204  -50422371.82849 -39226325.30147                  21043563.6624
        47.5004         38.7504
  22638060.6784  -61719305.82849 -48061433.42247                  22638059.0014
        45.7504         32.7504
  23564285.6624  -45701701.03949 -44740389.52347                  23564286.6964
        43.5004         27.0004
 04  8  4 20 35 45.0000000  0  7G20G 1G13G16G23G25G11
  20236387.2564  -48356300.71949 -44492803.44948                  20236385.3184
        50.7504         42.5004
  20705293.6434  -62636955.43749 -48783098.29348                  20705292.9774
        50.0004         40.7504
  23926388.5064   -1185844.94549  -6571571.83246                  23926388.8004
        41.5004         22.5004
  22026950.1454  -31469637.52749 -24503589.43047                  22026947.9624
        48.0004         34.0004
  21029676.0604  -50495370.07449 -39283207.05147                  21029672.5784
        49.0004         39.2504
  22635610.8174  -61732180.08249 -48071465.30947                  22635609.9324
        46.0004         32.7504
  23562073.4374  -45713328.50049 -44749449.94947                  23562074.4974
        42.5004         26.2504
 04  8  4 20 36  0.0000000  0  7G20G 1G13G16G23G25G11
  20224179.1774  -48420454.41049 -44542793.33648                  20224176.9234
        50.5004         42.0004
  20694447.1904  -62693954.77349 -48827513.35948                  20694446.1294
        49.2504         40.5004
  23909192.7684   -1276212.17249  -6641987.82046                  23909192.1834
        41.0004         23.0004
  22011499.9924  -31550827.82049 -24566854.57447                  22011498.4304
        47.7504         34.0004
  21015792.1124  -50568331.19149 -39340059.85547                  21015788.4664
        48.0004         39.0004
  22633166.2124  -61745026.98049 -48081475.90647                  22633164.8294
        44.7504         32.7504
  23559862.7494  -45724942.71549 -44758500.06646                  23559863.6674
        41.0004         25.2504
 04  8  4 20 36 15.0000000  0  7G20G 1G13G16G23G25G11
  20211993.6084  -48484488.12949 -44592689.73848                  20211991.7724
        49.2504         41.2504
  20683607.3724  -62750917.73849 -48871900.08248                  20683606.9334
        49.5004         40.7504
  23891996.8344   -1366573.76249  -6712399.39846                  23891996.8844
        40.5004         21.7504
  21996069.7854  -31631913.28549 -24630038.03147                  21996068.5704
        46.2504         33.2504
  21001915.2484  -50641254.31249 -39396883.06247                  21001911.2504
        48.5004         38.0004
  22630726.5794  -61757845.95749 -48091464.72747                  22630725.6484
        44.2504         32.5004
  23557655.9174  -45736543.08649 -44767539.32446                  23557655.9874
        42.2504         25.0004
 04  8  4 20 36 30.0000000  0  7G20G 1G13G16G23G25G11
  20199831.5124  -48548404.11349 -44642494.40248                  20199829.2214
        50.0004         41.2504
  20672774.0634  -62807846.80149 -48916260.39848                  20672773.5304
        49.5004         41.2504
  23874802.1054   -1456932.23849  -6782808.56646                  23874802.4584
        40.5004         21.7504
  21980659.4844  -31712895.96949 -24693141.40247                  21980658.3414
        47.0004         34.0004
  20988045.0654  -50714141.74249 -39453678.45747                  20988041.5794
        49.2504         39.0004
  22628292.1974  -61770639.65649 -48101433.85947                  22628290.7674
        46.5004         32.7504
  23555451.1314  -45748132.50449 -44776570.09047                  23555450.9604
        40.7504         26.7504
 04  8  4 20 36 45.0000000  0  7G20G 1G13G16G23G25G11
  20187690.6974  -48612201.09449 -44692206.34048                  20187688.8564
        49.7504         41.5004
  20661947.6444  -62864740.85549 -48960593.42248                  20661946.7614
        49.0004         41.2504
  23857609.0014   -1547286.41849  -6853214.38346                  23857608.1724
        40.0004         20.5004
  21965268.8934  -31793774.46149 -24756163.59047                  21965267.5654
        48.0004         34.5004
  20974181.8974  -50786992.47749 -39510445.25447                  20974178.3334
        47.5004         39.0004
  22625862.3694  -61783407.20349 -48111382.61347                  22625861.4724
        44.5004         33.5004
  23553246.9244  -45759710.02049 -44785591.59447                  23553248.5864
        40.5004         26.0004
 04  8  4 20 37  0.0000000  0  7G20G 1G13G16G23G25G11
  20175573.6624  -48675878.05149 -44741824.75448                  20175571.3294
        50.2504         41.5004
  20651128.2834  -62921599.08649 -49004898.53948                  20651126.9284
        50.0004         41.0004
  23840416.7784   -1637635.50449  -6923616.22346                  23840415.3114
        41.2504         21.2504
  21949898.1764  -31874547.73449 -24819103.78947                  21949896.9854
        47.5004         34.5004
  20960326.4364  -50859805.64149 -39567182.78148                  20960322.7614
        49.0004         39.7504
  22623437.5724  -61796148.03949 -48121310.53947                  22623436.7024
        45.0004         32.5004
  23551046.2504  -45771274.91049 -44794603.24647                  23551047.8434
        40.5004         25.7504
 04  8  4 20 37 15.0000000  0  7G20G 1G13G16G23G25G11
  20163479.2544  -48739434.96549 -44791349.62148                  20163476.8364
        50.0004         42.0004
  20640314.7514  -62978421.72749 -49049175.92248                  20640314.2394
        50.5004         41.0004
  23823224.0764   -1727979.61749  -6994014.20346                  23823224.3504
        41.0004         22.2504
  21934547.4744  -31955215.65249 -24881961.89147                  21934546.0884
        48.0004         34.5004
  20946477.2714  -50932581.35549 -39623891.12947                  20946474.1504
        49.0004         39.0004
  22621018.4134  -61808862.73849 -48131218.12547                  22621017.2314
        45.2504         32.2504
  23548848.1014  -45782828.25849 -44803605.92647                  23548849.0354
        40.5004         26.2504
 04  8  4 20 37 30.0000000  0  7G20G 1G13G16G23G25G11
  20151407.6834  -48802871.61349 -44840780.78148                  20151405.4484
        50.0004         42.0004
  20629508.6024  -63035208.58649 -49093425.43048                  20629508.1114
        49.7504         41.7504
  23806032.6684   -1818318.75049  -7064408.28546                  23806033.3674
        41.0004         22.2504
  21919216.7744  -32035777.75849 -24944737.52747                  21919216.0534
        47.5004         34.0004
  20932635.7124  -51005319.44149 -39680570.14847                  20932632.6874
        48.2504         39.0004
  22618603.8214  -61821551.35949 -48141105.36747                  22618602.5094
        45.5004         32.2504
  23546651.9824  -45794370.32049 -44812599.79347                  23546652.8564
        40.5004         25.7504
 04  8  4 20 37 45.0000000  0  7G20G 1G13G16G23G25G11
  20139358.6594  -48866189.08249 -44890119.07048                  20139356.3544
        50.0004         41.7504
  20618709.3184  -63091961.04349 -49137648.12548                  20618708.4054
        49.2504         41.5004
  23788842.0794   -1908654.21549  -7134799.51246                  23788843.0704
        42.2504         23.5004
  21903906.4904  -32116235.12949 -25007431.56247                  21903904.7544
        47.5004         34.2504
  20918801.1224  -51078021.19549 -39737220.85547                  20918797.4344
        46.7504         39.0004
  22616193.6844  -61834215.53549 -48150973.57047                  22616192.2344
        45.7504         32.5004
  23544457.5364  -45805902.62549 -44821586.07446                  23544458.3514
        40.7504         24.2504
 04  8  4 20 38  0.0000000  0  7G20G 1G13G16G23G25G11
  20427125.7214  -48929381.79749 -44939360.14848                  20427123.5364
        50.7504         42.0004
  20907709.3394  -63148674.02749 -49181840.06248                  20907708.5384
        49.0004         41.7504
  24071446.8864   -1998978.77049  -7205182.22746                  24071446.8374
        43.0004         23.7504
  22188409.3884  -32196580.92249 -25070038.65647                  22188407.9904
        47.5004         34.0004
  21204767.2474  -51150680.53149 -39793838.50847                  21204763.3154
        47.7504         39.0004
  22913581.3414  -61846853.42249 -48160821.28947                  22913579.8764
        45.7504         32.2504
  23842057.5734  -45817423.42649 -44830563.39546                  23842057.9594
        40.5004         24.7504
 04  8  4 20 38 15.0000000  0  7G20G 1G13G16G23G25G11
  20415122.8174  -48992458.92649 -44988511.16048                  20415120.2734
        50.2504         41.2504
  20896923.3554  -63205356.09049 -49226007.90648                  20896922.5814
        49.7504         41.5004
  24054258.9534   -2089305.37949  -7275566.53946                  24054258.5874
        43.0004         23.0004
  22173138.8624  -32276826.43449 -25132567.60947                  22173137.4654
        47.0004         33.7504
  21190946.3144  -51223308.04349 -39850431.37947                  21190942.6244
        48.2504         38.5004
  22911181.1764  -61859467.82049 -48170650.70747                  22911179.9994
        46.5004         31.7504
  23839866.7694  -45828935.68749 -44839534.02746                  23839866.4094
        40.5004         25.5004
 04  8  4 20 38 30.0000000  0  7G20G 1G13G16G23G25G11
  20403142.4474  -49055417.29749 -45037569.63748                  20403139.8484
        50.2504         41.7504
  20886143.1704  -63262004.79349 -49270149.75848                  20886142.4894
        49.5004         41.0004
  24037070.0904   -2179629.47349  -7345948.93446                  24037069.7684
        43.0004         24.5004
  22157888.7904  -32356967.37549 -25195015.07847                  22157886.8364
        47.5004         33.5004
  21177132.9464  -51295900.21549 -39906996.70347                  21177129.0114
        49.0004         38.7504
  22908785.2694  -61872059.36749 -48180462.32847                  22908783.8704
        45.5004         32.7504
  23837677.5354  -45840440.38349 -44848498.80147                  23837677.9224
        41.2504         26.0004
 04  8  4 20 38 45.0000000  0  7G20G 1G13G16G23G25G11
  20391183.8714  -49118257.60549 -45086536.11348                  20391182.0884
        50.7504         41.7504
  20875369.9024  -63318620.82049 -49314266.13748                  20875368.8884
        50.0004         41.2504
  24019882.4784   -2269951.67649  -7416329.82046                  24019882.4584
        44.0004         25.2504
  22142658.3964  -32437004.09849 -25257381.34447                  22142656.5174
        48.5004         33.5004
  21163325.1024  -51368457.77049 -39963535.04747                  21163321.8924
        48.0004         38.7504
  22906393.0984  -61884629.06649 -48190256.91047                  22906392.2734
        46.5004         32.5004
  23835489.0184  -45851938.44149 -44857458.39546                  23835490.1994
        40.5004         24.2504
 04  8  4 20 39  0.0000000  0  7G20G 1G13G16G23G25G11
  20379248.7004  -49180978.78949 -45135409.76248                  20379246.7444
        49.2504         41.7504
  20864602.2234  -63375203.18049 -49358356.29748                  20864601.6554
        49.7504         41.5004
  24002695.4914   -2360271.03149  -7486708.50847                  24002695.0014
        45.2504         27.0004
  22127447.9514  -32516935.44149 -25319665.49647                  22127445.8204
        47.5004         33.7504
  21149524.8024  -51440979.62149 -40020045.58248                  21149521.2144
        48.5004         39.5004
  22904005.5274  -61897176.12149 -48200033.85547                  22904004.3744
        44.7504         32.2504
  23833302.2624  -45863429.36749 -44866412.43046                  23833303.6634
        40.0004         23.0004
 04  8  4 20 39 15.0000000  0  7G20G 1G13G16G23G25G11
  20367335.6464  -49243581.30549 -45184190.94148                  20367333.6794
        49.7504         42.0004
  20853841.3334  -63431752.60949 -49402420.78148                  20853840.6604
        50.0004         41.2504
  23985508.3314   -2450588.28149  -7557085.55147                  23985508.7684
        44.2504         27.2504
  22112257.5584  -32596761.80549 -25381867.84447                  22112255.6604
        47.5004         34.2504
  21135730.6354  -51513466.44549 -40076528.80948                  21135727.6124
        48.2504         39.5004
  22901621.9354  -61909701.64849 -48209794.02347                  22901620.8724
        45.0004         32.5004
  23831117.4234  -45874914.13349 -44875361.66846                  23831118.2384
        39.5004         22.2504
 04  8  4 20 39 30.0000000  0  7G20G 1G13G16G23G25G11
  20355445.4614  -49306064.32849 -45232879.01248                  20355443.8814
        50.0004         42.0004
  20843086.7304  -63488268.43449 -49446459.08648                  20843086.1334
        48.2504         41.0004
  23968321.4224   -2540902.78549  -7627460.44547                  23968322.3424
        44.7504         27.7504
  22097087.1674  -32676482.19949 -25443987.60947                  22097085.5404
        49.0004         34.5004
  21121944.4264  -51585917.59849 -40132984.25447                  21121940.7224
        46.5004         39.2504
  22899242.5634  -61922205.30549 -48219537.14847                  22899241.9244
        44.0004         32.5004
  23828933.0714  -45886392.38349 -44884305.78946                  23828933.9344
        39.5004         22.5004
 04  8  4 20 39 45.0000000  0  7G20G 1G13G16G23G25G11
  20343578.0434  -49368428.50049 -45281474.47748                  20343576.1744
        49.7504         42.0004
  20832338.5844  -63544751.41849 -49490471.79748                  20832337.6794
        50.0004         41.5004
  23951136.0184   -2631215.24249  -7697833.75047                  23951135.7074
        43.7504         26.5004
  22081936.6634  -32756097.13749 -25506025.20347                  22081935.4724
        47.7504         34.0004
  21108163.7634  -51658333.83249 -40189412.47347                  21108160.2274
        48.0004         38.5004
  22896867.1454  -61934688.06249 -48229263.98447                  22896866.3214
        44.5004         33.5004
  23826749.9964  -45897865.33249 -44893245.83246                  23826750.9024
        40.5004         22.7504
 04  8  4 20 40  0.0000000  0  7G20G 1G13G16G23G25G11
  20331733.5814  -49430670.54749 -45329974.77048                  20331732.1064
        50.2504         42.2504
  20821597.0324  -63601198.41049 -49534456.46548                  20821596.2134
        49.5004         41.2504
  23933951.2584   -2721522.54349  -7768203.02747                  23933951.2914
        44.5004         28.0004
  22066807.5864  -32835603.18749 -25567977.95347                  22066806.2154
        48.5004         34.5004
  21094390.9184  -51730712.00449 -40245811.04347                  21094387.2294
        48.2504         39.0004
  22894496.4264  -61947146.89849 -48238972.18747                  22894495.4844
        44.7504         32.5004
  23824567.8334  -45909330.30149 -44902179.63346                  23824569.3644
        39.2504         22.5004
 04  8  4 20 40 15.0000000  0  7G20G 1G13G16G23G25G11
  20319912.3514  -49492792.29749 -45378381.33248                  20319910.3584
        50.0004         42.0004
  20810862.1304  -63657611.46949 -49578414.69548                  20810860.9604
        49.7504         41.0004
  23916765.8974   -2811826.78149  -7838569.93747                  23916767.2224
        42.5004         25.7504
  22051698.2364  -32915002.13349 -25629847.25047                  22051697.2624
        47.2504         34.5004
  21080624.4884  -51803054.05149 -40302181.46147                  21080620.6914
        48.2504         39.0004
  22892129.5234  -61959584.19549 -48248663.62147                  22892128.7684
        44.2504         32.2504
  23822387.9154  -45920789.50449 -44911108.94546                  23822388.4164
        38.2504         22.2504
 04  8  4 20 40 30.0000000  0  7G20G 1G13G16G23G25G11
  20308113.5134  -49554795.50449 -45426695.52348                  20308111.8044
        50.0004         42.2504
  20800133.1594  -63713992.59449 -49622348.03948                  20800132.5364
        50.5004         41.2504
  23899582.3264   -2902129.97749  -7908936.02046                  23899583.4004
        44.0004         25.0004
  22036609.1194  -32994295.71149 -25691634.43447                  22036607.7734
        48.2504         34.5004
  21066864.6594  -51875361.86749 -40358525.21147                  21066861.0644
        49.2504         39.2504
  22889766.6964  -61972002.30949 -48258340.08247                  22889765.9744
        43.5004         32.2504
  23820208.4954  -45932245.21949 -44920035.56246                  23820208.6334
        38.5004         22.5004
 04  8  4 20 40 45.0000000  0  7G20G 1G13G16G23G25G11
  20296337.7664  -49616678.10549 -45474915.73448                  20296335.7364
        50.0004         41.5004
  20789410.4664  -63770339.79349 -49666254.94948                  20789409.5394
        50.2504         40.7504
  23882398.8104   -2992430.10249  -7979299.67646                  23882399.5864
        43.2504         25.0004
  22021540.8014  -33073481.63749 -25753337.72747                  22021539.2254
        48.2504         34.2504
  21053112.0514  -51947633.54349 -40414840.80147                  21053107.9674
        48.2504         38.7504
  22887407.0474  -61984399.27749 -48268000.09047                  22887406.6954
        44.5004         31.0004
  23818029.4584  -45943695.78549 -44928958.13346                  23818028.7054
        40.0004         22.5004
 04  8  4 20 41  0.0000000  0  7G20G 1G13G16G23G25G11
  20284585.2214  -49678438.59049 -45523040.79348                  20284582.9214
        49.5004         41.7504
  20778694.7884  -63826651.64849 -49710134.31648                  20778693.6164
        49.7504         41.0004
  23865216.0484   -3082725.64149  -8049659.86346                  23865215.9134
        43.2504         23.0004
  22006492.8444  -33152558.16849 -25814955.78947                  22006491.3744
        47.5004         34.5004
  21039366.1354  -52019867.66049 -40471127.12547                  21039362.7354
        47.2504         38.7504
  22885052.8444  -61996773.88349 -48277642.66047                  22885052.0234
        44.0004         30.7504
  23815851.5474  -45955140.43749 -44937876.07446                  23815851.3014
        41.7504         22.7504
 04  8  4 20 41 15.0000000  0  7G20G 1G13G16G23G25G11
  20272856.1614  -49740075.65649 -45571069.67648                  20272853.9654
        50.0004         41.7504
  20767985.9974  -63882927.12149 -49753985.34448                  20767984.5654
        50.0004         41.2504
  23848034.4864   -3173015.79749  -8120015.80546                  23848034.7404
        43.2504         22.5004
  21991466.0634  -33231524.14149 -25876487.69947                  21991464.4864
        47.7504         34.5004
  21025628.1414  -52092063.12149 -40527383.32447                  21025624.2804
        48.5004         39.0004
  22882702.2414  -62009125.46949 -48287267.30547                  22882701.6434
        45.0004         31.7504
  23813674.0354  -45966578.50449 -44946788.94546                  23813675.3454
        39.0004         22.5004
 04  8  4 20 41 30.0000000  0  7G20G 1G13G16G23G25G11
  20261149.7444  -49801591.28149 -45619003.93048                  20261148.2394
        50.0004         42.5004
  20757283.3444  -63939168.28549 -49797809.62148                  20757282.5694
        50.0004         41.0004
  23830853.5064   -3263302.53149  -8190369.10246                  23830852.5624
        42.2504         21.7504
  21976460.2204  -33310381.20749 -25937934.75847                  21976458.5694
        48.5004         35.0004
  21011896.6204  -52164221.88349 -40583610.92647                  21011892.6814
        48.2504         38.7504
  22880355.7164  -62021456.33249 -48296875.77347                  22880355.5274
        45.5004         31.2504
  23811498.4884  -45978012.29049 -44955698.47746                  23811499.7044
        38.2504         22.2504
 04  8  4 20 41 45.0000000  0  7G20G 1G13G16G23G25G11
  20249466.9674  -49862985.49649 -45666843.58648                  20249464.9704
        50.0004         42.0004
  20746587.5024  -63995375.30949 -49841607.30148                  20746586.7134
        49.2504         41.0004
  23813673.3454   -3353586.05149  -8260719.88346                  23813672.3104
        42.0004         21.7504
  21961475.0714  -33389129.27749 -25999296.87547                  21961473.3414
        48.5004         34.5004
  20998172.1524  -52236344.10549 -40639810.05547                  20998168.2304
        47.5004         38.5004
  22878012.8694  -62033766.87549 -48306468.43047                  22878012.3864
        42.0004         31.0004
  23809324.3254  -45989442.29749 -44964605.03146                  23809325.3524
        39.0004         23.7504
 04  8  4 20 42  0.0000000  0  7G20G 1G13G16G23G25G11
  20237807.5474  -49924255.24249 -45714586.25048                  20237805.5364
        49.0004         41.5004
  20735898.8494  -64051545.16449 -49885376.02048                  20735897.9394
        50.2504         41.2504
  23796494.4474   -3443863.39549  -8331065.82046                  23796493.2014
        42.5004         22.5004
  21946510.6884  -33467765.13749 -26060571.54747                  21946509.4164
        48.0004         33.7504
  20984455.3694  -52308426.94549 -40695978.50447                  20984451.3914
        48.5004         39.0004
  22875674.5754  -62046054.36349 -48316043.10247                  22875673.8234
        43.5004         31.5004
  23807150.2014  -46000865.86749 -44973506.57846                  23807150.7844
        40.2504         23.2504
 04  8  4 20 42 15.0000000  0  7G20G 1G13G16G23G25G11
  20226172.6434  -49985398.34049 -45762230.22348                  20226170.5874
        49.7504         41.7504
  20725217.4194  -64107675.98049 -49929114.32848                  20725216.6324
        50.0004         41.0004
  23779316.4634   -3534132.58649  -8401405.44546                  23779315.3504
        42.5004         22.0004
  21931568.9144  -33546286.56649 -26121757.06647                  21931567.4644
        47.7504         34.2504
  20970746.4154  -52380468.27749 -40752114.59847                  20970742.2924
        49.0004         38.5004
  22873341.4754  -62058317.14849 -48325598.54747                  22873340.0194
        44.0004         31.7504
  23804978.6204  -46012281.38349 -44982401.85546                  23804978.4634
        42.2504         22.5004
 04  8  4 20 42 30.0000000  0  8G20G 1G13G16G23G 4G25G11
  20214561.5514  -50046414.90649 -45809775.61348                  20214559.3744
        50.0004         42.0004
  20714543.7704  -64163767.99649 -49972822.39848                  20714542.4774
        50.5004         41.0004
  23762140.1064   -3624393.94549  -8471738.96146                  23762139.7534
        40.0004         22.2504
  21916648.2734  -33624693.55949 -26182853.41847                  21916647.1694
        48.0004         34.5004
  20957045.0634  -52452468.28949 -40808218.50847                  20957040.9664
        46.7504         39.0004
  24795655.6764     -56113.80559
        38.7504
  22871012.3894  -62070555.80149 -48335135.16047                  22871011.5484
        44.5004         31.5004
  23802807.1064  -46023689.58649 -44991291.42246                  23802807.8534
        40.0004         22.5004
 04  8  4 20 42 45.0000000  0  8G20G 1G13G16G23G 4G25G11
  20202974.5814  -50107304.57449 -45857222.11348                  20202972.4324
        49.7504         42.5004
  20703877.0044  -64219821.06649 -50016500.10948                  20703876.1284
        50.5004         40.7504
  23744964.9294   -3714647.13349  -8542066.06246                  23744965.2364
        40.0004         21.7504
  21901750.1034  -33702985.76649 -26243860.30947                  21901748.8334
        48.0004         35.2504
  20943351.8544  -52524426.89149 -40864290.14147                  20943347.8634
        48.5004         38.5004
  24780604.9744    -135206.09449
        36.7504
  22868688.1214  -62082770.34449 -48344653.00847                  22868687.2724
        44.0004         30.5004
  23800636.4824  -46035090.78549 -45000175.50846                  23800638.4584
        40.2504         22.5004
 04  8  4 20 43  0.0000000  0  8G20G 1G13G16G23G 4G25G11
  20191411.9994  -50168067.08249 -45904569.52348                  20191409.5514
        50.0004         42.2504
  20693217.8534  -64275834.96949 -50060147.30948                  20693217.0584
        51.0004         41.2504
  23727792.4854   -3804892.26249  -8612386.87146                  23727791.6194
        40.0004         21.7504
  21886873.3454  -33781162.61349 -26304777.30547                  21886872.1074
        48.0004         34.7504
  20929666.1784  -52596343.80549 -40920329.28947                  20929662.4414
        48.5004         39.0004
  24765575.5384    -214186.64549   -142336.71956                  24765572.4234
        41.0004         18.2504
  22866368.5294  -62094960.79349 -48354152.08247                  22866367.2074
        45.2504         31.5004
  23798468.9694  -46046484.82849 -45009054.05146                  23798470.4594
        39.2504         23.0004
 04  8  4 20 43 15.0000000  0  8G20G 1G13G16G23G 4G25G11
  20179873.7274  -50228702.16049 -45951817.64548                  20179871.5204
        49.7504         43.0004
  20682566.2364  -64331809.61749 -50103763.91848                  20682565.3514
        50.2504         40.7504
  23710621.1444   -3895129.12949  -8682701.30546                  23710619.9804
        42.0004         21.7504
  21872019.0844  -33859223.76249 -26365604.15647                  21872017.5314
        48.7504         35.0004
  20915989.2004  -52668218.91449 -40976335.86747                  20915984.7824
        48.0004         39.0004
  24750566.8524    -293055.32849   -203792.83246                  24750565.4714
        40.0004         17.5004
  22864053.6034  -62107127.30149 -48363632.48447                  22864051.8044
        46.5004         31.5004
  23796301.7974  -46057872.22749 -45017927.43746                  23796303.0104
        39.2504         22.2504
 04  8  4 20 43 30.0000000  0  8G20G 1G13G16G23G 4G25G11
  20168358.6824  -50289212.26649 -45998968.37948                  20168356.7004
        48.7504         41.5004
  20671921.5884  -64387747.59049 -50147351.94948                  20671920.8724
        50.0004         40.7504
  23693450.6914   -3985360.35949  -8753011.33646                  23693449.4424
        41.0004         22.0004
  21857185.7834  -33937171.44949 -26426342.60247                  21857184.3334
        48.0004         34.5004
  20902319.1524  -52740054.84049 -41032311.90647                  20902314.8584
        48.0004         38.7504
  24735580.4044    -371814.46949   -265163.57446                  24735578.8584
        42.2504         20.0004
  22861742.3244  -62119272.64549 -48373096.42247                  22861740.7014
        46.0004         31.5004
  23794136.4114  -46069255.87949 -45026797.90246                  23794137.2524
        40.0004         22.5004
 04  8  4 20 43 45.0000000  0  8G20G 1G13G16G23G 4G25G11
  20156868.2314  -50349597.23049 -46046021.60248                  20156865.9804
        49.0004         42.0004
  20661283.8424  -64443648.81649 -50190911.34848                  20661282.8864
        49.2504         40.7504
  23676281.1234   -4075585.81659  -8823316.87156                  23676279.7054
        40.5004         21.5004
  21842374.5604  -34015005.40249 -26486992.41847                  21842373.4014
        46.0004         34.5004
  20888656.7474  -52811851.44549 -41088257.30547                  20888652.9544
        47.2504         38.5004
  24720613.5334
        40.2504
  22859435.1254  -62131397.02749 -48382544.00447                  22859433.7974
        45.0004         31.5004
  23791971.5864  -46080636.10249 -45035665.67646                  23791971.7804
        40.0004         25.5004
 04  8  4 20 44  0.0000000  0  8G20G 1G13G16G23G 4G25G11
  20145400.9914  -50409857.03149 -46092977.29348                  20145398.9694
        49.5004         42.0004
  20650653.5344  -64499513.42649 -50234442.20348                  20650652.4394
        50.2504         40.7504
  23659111.6604   -4165805.68749  -8893618.02046                  23659111.8204
        40.5004         21.5004
  21827584.6704  -34092725.61749 -26547553.60547                  21827583.3414
        48.2504         34.5004
  20875001.7544  -52883608.85549 -41144172.17247                  20874997.7424
        47.7504         39.0004
  24705668.4574    -529002.29349   -387647.31256                  24705666.1064
        42.7504         18.2504
  22857131.7574  -62143500.89549 -48391975.60247                  22857130.1414
        45.0004         31.0004
  23789805.5364  -46092013.41449 -45044531.18047                  23789806.4604
        41.2504         26.0004
 04  8  4 20 44 15.0000000  0  8G20G 1G13G16G23G 4G25G11
  20133958.3084  -50469989.07449 -46139833.43748                  20133956.2624
        49.5004         42.0004
  20640030.0114  -64555339.00449 -50277942.66448                  20640029.2574
        50.0004         41.2504
  23641945.9214   -4256017.53549  -8963912.91046                  23641944.9994
        41.0004         22.2504
  21812817.2854  -34170329.39549 -26608024.06247                  21812815.6474
        48.0004         34.5004
  20861354.5244  -52955324.47749 -41200054.46948                  20861350.6804
        47.5004         39.5004
  24690743.4304    -607429.55549   -448759.49246                  24690742.3724
        41.7504         18.5004
  22854832.9594  -62155581.93049 -48401389.41447                  22854831.4914
        45.7504         31.5004
  23787641.5044  -46103385.59449 -45053392.70747                  23787643.0914
        41.0004         26.0004
 04  8  4 20 44 30.0000000  0  8G20G 1G13G16G23G 4G25G11
  20122539.7154  -50529993.05949 -46186589.79348                  20122537.7524
        49.0004         42.2504
  20629414.5414  -64611125.25449 -50321412.45748                  20629413.3884
        50.0004         41.7504
  23624780.4894   -4346221.14849  -9034201.38746                  23624781.0214
        40.5004         22.7504
  21798071.8784  -34247816.08249 -26668403.28547                  21798070.1224
        48.5004         34.7504
  20847715.6114  -53026998.12949 -41255904.05147                  20847711.9444
        47.5004         38.7504
  24675841.4724    -685744.00049   -509783.69546                  24675841.3784
        42.5004         19.2504
  22852538.3964  -62167640.24249 -48410785.52747                  22852537.2844
        45.7504         32.0004
  23785478.7484  -46114752.80949 -45062250.35246                  23785480.6114
        39.7504         23.7504
 04  8  4 20 44 45.0000000  0  8G20G 1G13G16G23G 4G25G11
  20111145.5804  -50589870.12149 -46233247.25048                  20111143.3754
        49.5004         42.0004
  20618805.5994  -64666873.44549 -50364852.60548                  20618805.0114
        50.2504         41.0004
  23607616.7114   -4436417.76649  -9104484.42646                  23607617.3844
        40.5004         22.5004
  21783348.4684  -34325186.77049 -26728692.10947                  21783347.2224
        47.7504         34.0004
  20834084.3824  -53098631.06649 -41311721.92647                  20834080.3434
        48.5004         39.0004
  24660959.3054    -763946.84849   -570720.94146                  24660959.7614
        41.7504         19.0004
  22850247.6684  -62179677.30149 -48420165.06647                  22850246.0704
        43.7504         31.7504
  23783316.2224  -46126116.77349 -45071105.45746                  23783317.6544
        36.7504         22.7504
 04  8  4 20 45  0.0000000  0  8G20G 1G13G16G23G 4G25G11
  20099776.6544  -50649614.50049 -46279801.31248                  20099774.7624
        49.5004         42.0004
  20608205.3144  -64722578.10249 -50408258.83248                  20608204.6544
        49.5004         41.2504
  23590454.9624   -4526601.84449  -9174757.68446                  23590454.7644
        41.0004         22.2504
  21768648.9404  -34402435.68049 -26788886.05147                  21768647.6554
        48.7504         34.5004
  20820461.7064  -53170217.78549 -41367503.78547                  20820457.8384
        47.5004         39.0004
  24646099.9204    -842032.43049   -631566.81246                  24646100.5214
        40.5004         19.2504
  22847961.9994  -62191687.89849 -48429524.00047                  22847961.4624
        44.0004         31.7504
  23781155.0124  -46137472.26649 -45079953.96946                  23781157.5744
        37.0004         24.2504
 04  8  4 20 45 15.0000000  0  6G20G 1G16G23G25G11
  20388225.1314  -50709226.43449 -46326252.18048                  20388223.2684
        49.0004         42.0004
  20897405.7374  -64778239.80149 -50451631.58248                  20897404.8064
        48.5004         41.2504
  22053764.8364  -34479561.77749 -26848984.29347                  22053763.2334
        47.7504         34.7504
  21106640.6304  -53241757.82449 -41423249.27048                  21106636.9594
        48.0004         40.5004
  23145473.0814  -62203675.65649 -48438865.12147                  23145472.2864
        44.2504         31.2504
  24078788.1164  -46148823.11749 -45088798.88346                  24078789.4404
        39.0004         25.5004
 04  8  4 20 45 30.0000000  0  8G20G 1G13G16G23G 4G25G11
  20376905.4054  -50768713.84849 -46372606.00448                  20376903.2674
        50.2504         42.0004
  20886820.9184  -64833865.95349 -50494976.64148                  20886819.8804
        50.0004         41.0004
  23855930.3284   -4706932.72759  -9315275.64156                  23855929.1824
        41.0004         22.2504
  22039109.3004  -34556575.05149 -26908994.60547                  22039108.3394
        48.7504         35.2504
  21093034.1134  -53313260.58649 -41478965.69547                  21093030.2654
        48.0004         39.0004
  24916239.4574     -74730.55159   -734364.82056                  24916240.6244
        39.5004         20.5004
  23143196.4914  -62215642.48449 -48448189.94547                  23143195.7874
        44.7504         32.0004
  24076628.9424  -46160171.30549 -45097641.69546                  24076629.7624
        40.5004         25.0004
 04  8  4 20 45 45.0000000  0  8G20G 1G13G16G23G 4G25G11
  20365609.7944  -50828070.99249 -46418858.33248                  20365607.9004
        49.2504         42.0004
  20876243.1034  -64889451.34849 -50538289.93748                  20876242.2984
        49.2504         41.2504
  23838773.7894   -4797090.86749  -9385528.73446                  23838772.8624
        42.2504         23.0004
  22024477.2254  -34633468.64549 -26968911.68047                  22024475.7344
        48.7504         35.0004
  21079435.9304  -53384719.68749 -41534648.11347                  21079431.8014
        46.7504         39.0004
  24901445.4494    -152474.82449   -794944.75446                  24901446.1104
        38.2504         17.7504
  23140923.0934  -62227586.38349 -48457496.89547                  23140922.7714
        45.2504         31.7504
  24074470.1144  -46171514.87949 -45106480.93047                  24074471.7084
        39.5004         26.0004
 04  8  4 20 46  0.0000000  0  8G20G 1G13G16G23G 4G25G11
  20354339.5004  -50887297.18049 -46465008.61348                  20354337.5154
        49.0004         42.0004
  20865673.3964  -64944995.30949 -50581570.94948                  20865672.3384
        49.5004         41.2504
  23821619.2854   -4887238.69549  -9455773.73847                  23821618.6054
        41.7504         26.0004
  22009867.8024  -34710241.57849 -27028734.73047                  22009866.4774
        48.0004         34.7504
  21065845.9884  -53456134.53949 -41590296.04747                  21065842.3354
        47.2504         39.2504
  24886674.4534    -230103.19949   -855434.39546                  24886673.7674
        40.0004         17.5004
  23138655.4114  -62239506.89849 -48466785.62547                  23138654.5264
        44.7504         32.7504
  24072312.5774  -46182853.43049 -45115316.23046                  24072313.8844
        39.5004         25.5004
 04  8  4 20 46 15.0000000  0  8G20G 1G13G16G23G 4G25G11
  20343094.2194  -50946393.14149 -46511057.41848                  20343091.9294
        49.7504         42.0004
  20855111.5284  -65000498.84849 -50624820.45348                  20855110.4624
        49.5004         41.2504
  23804466.1844   -4977377.28549  -9526011.55147                  23804466.1164
        42.2504         26.7504
  21995281.2274  -34786894.59849 -27088464.34447                  21995279.4334
        49.0004         35.5004
  21052264.8074  -53527506.08649 -41645910.23847                  21052260.7674
        47.5004         39.2504
  24871923.8674    -307616.67249   -915834.52746                  24871923.6544
        39.0004         19.5004
  23136390.8314  -62251405.25049 -48476057.09847                  23136389.5514
        44.0004         31.2504
  24070155.9374  -46194188.42249 -45124148.78546                  24070156.9544
        40.7504         24.5004
 04  8  4 20 46 30.0000000  0  8G20G 1G13G16G23G 4G25G11
  20331873.6454  -51005358.53549 -46557004.47748                  20331871.3274
        50.0004         42.0004
  20844557.2724  -65055961.56249 -50668038.15648                  20844556.3354
        50.7504         41.7504
  23787315.4894   -5067506.22749  -9596241.86346                  23787315.3944
        42.5004         24.5004
  21980717.5694  -34863427.15649 -27148100.09047                  21980716.2484
        48.7504         35.0004
  21038691.4354  -53598833.95349 -41701490.38347                  21038687.6174
        48.5004         39.2504
  24857194.4344    -385014.85549   -976144.78546                  24857194.5134
        38.5004         20.0004
  23134130.7554  -62263281.37949 -48485311.23447                  23134130.2674
        45.0004         31.0004
  24067999.5874  -46205519.82049 -45132978.50446                  24068000.2734
        39.5004         24.0004
 04  8  4 20 46 45.0000000  0  8G20G 1G13G16G23G 4G25G11
  20320677.3704  -51064193.53549 -46602849.93448                  20320675.3254
        49.7504         42.2504
  20834010.6594  -65111383.90249 -50711224.39848                  20834009.4144
        50.7504         41.0004
  23770166.5764   -5157625.93749  -9666465.00046                  23770165.4984
        43.5004         25.5004
  21966177.0874  -34939839.37549 -27207642.06647                  21966175.7684
        49.0004         35.2504
  21025126.3444  -53670118.53149 -41757036.80948                  21025122.2054
        47.5004         39.5004
  24842487.8984    -462297.78949  -1036365.26646                  24842488.0804
        39.0004         19.5004
  23131874.6254  -62275135.77349 -48494548.45347                  23131873.7544
        43.7504         31.2504
  24065844.0444  -46216848.50449 -45141806.12946                  24065845.3244
        39.5004         24.7504
 04  8  4 20 47  0.0000000  0  8G20G 1G13G16G23G 4G25G11
  20309506.4254  -51122897.83249 -46648593.53948                  20309504.4804
        49.7504         42.0004
  20823471.8984  -65166765.67649 -50754379.02748                  20823470.7734
        50.5004         40.7504
  23753018.7644   -5247736.18449  -9736680.77746                  23753017.8394
        42.5004         25.2504
  21951658.9574  -35016130.80949 -27267089.91447                  21951657.7414
        48.0004         35.0004
  21011569.6824  -53741359.61749 -41812549.34448                  21011565.7244
        47.7504         39.5004
  24827804.4404    -539465.35149  -1096495.81246                  24827803.7894
        41.2504         19.5004
  23129623.5324  -62286968.59849 -48503768.85947                  23129622.3544
        43.5004         31.2504
  24063688.7024  -46228174.44149 -45150631.63746                  24063690.1324
        38.0004         23.5004
 04  8  4 20 47 15.0000000  0  8G20G 1G13G16G23G 4G25G11
  20298360.6014  -51181468.28949 -46694232.86748                  20298358.6654
        49.7504         41.2504
  20812941.3904  -65222103.73849 -50797499.59048                  20812940.5744
        50.2504         40.7504
  23735873.2764   -5337834.01249  -9806886.85246                  23735873.7094
        43.0004         25.0004
  21937164.7804  -35092298.11349 -27326441.03947                  21937163.5974
        47.5004         35.2504
  20998021.9604  -53812554.00049 -41868025.48448                  20998018.1934
        48.2504         39.5004
  24813141.5864    -616514.11749  -1156533.83246                  24813141.8614
        39.7504         21.5004
  23127376.4214  -62298776.94549 -48512970.20347                  23127375.3534
        44.0004         30.5004
  24061534.0804  -46239494.91849 -45159452.85946                  24061535.8024
        38.2504         22.7504
 04  8  4 20 47 30.0000000  0  8G20G 1G13G16G23G 4G25G11
  20287240.4484  -51239906.06249 -46739768.79348                  20287238.0274
        50.0004         41.7504
  20802419.0334  -65277399.33649 -50840587.07448                  20802417.9354
        50.0004         41.0004
  23718731.2614   -5427920.57849  -9877084.13347                  23718731.3564
        42.5004         26.7504
  21922694.1784  -35168342.34849 -27385696.27747                  21922692.8834
        48.0004         34.7504
  20984482.4714  -53883702.91849 -41923466.19548                  20984478.8234
        46.0004         39.7504
  24798502.5634    -693445.38349  -1216480.22746                  24798502.4334
        39.5004         19.5004
  23125133.5154  -62310562.33249 -48522153.65247                  23125132.4304
        43.0004         29.5004
  24059380.3204  -46250811.74249 -45168271.26246                  24059382.0874
        37.0004         22.7504
 04  8  4 20 47 45.0000000  0  8G20G 1G13G16G23G 4G25G11
  20276145.6534  -51298210.06649 -46785200.49648                  20276143.0734
        50.0004         41.7504
  20791904.8814  -65332651.59849 -50883640.78548                  20791903.9414
        49.5004         41.0004
  23701590.7954   -5517994.96549  -9947271.95347                  23701590.8404
        43.2504         26.7504
  21908246.9694  -35244262.33249 -27444854.69547                  21908245.4214
        48.0004         35.0004
  20970951.9364  -53954805.50049 -41978870.80948                  20970948.3524
        46.7504         39.5004
  24783885.8894    -770258.00049  -1276334.25846                  24783885.2614
        39.2504         18.5004
  23122895.3264  -62322324.10549 -48531318.68047                  23122894.7694
        43.0004         30.7504
  24057227.9064  -46262124.19149 -45177086.25046                  24057230.1364
        40.0004         23.0004
 04  8  4 20 48  0.0000000  0  8G20G 1G13G16G23G 4G25G11
  20265075.7234  -51356381.42249 -46830528.82848                  20265073.6104
        49.5004         41.5004
  20781398.9944  -65387861.82049 -50926661.73448                  20781397.9904
        50.5004         40.7504
  23684452.4104   -5608058.50049 -10017451.28947                  23684451.7534
        42.7504         26.2504
  21893823.1604  -35320059.17649 -27503917.15247                  21893821.5774
        48.5004         35.0004
  20957430.2834  -54025862.96949 -42034240.25447                  20957426.2994
        47.0004         39.2504
  24769291.1314    -846953.21149  -1336096.78946                  24769290.8924
        39.5004         19.0004
  23120661.2534  -62334063.75449 -48540466.48047                  23120661.5074
        43.5004         31.2504
  24055075.8984  -46273434.05149 -45185899.19946                  24055077.7154
        41.2504         22.7504
 04  8  4 20 48 15.0000000  0  8G20G 1G13G16G23G 4G25G11
  20254032.0654  -51414417.43449 -46875751.70348                  20254029.9264
        50.0004         41.5004
  20770901.3284  -65443027.21549 -50969647.76248                  20770900.3354
        50.5004         40.7504
  23667315.8494   -5698108.62149 -10087620.19947                  23667315.5894
        43.0004         26.7504
  21879423.9914  -35395729.91849 -27562881.35547                  21879421.8414
        49.0004         35.0004
  20943917.6864  -54096872.59849 -42089572.42648                  20943913.8674
        47.5004         39.5004
  24754719.1524    -923527.91049  -1395765.40646                  24754718.9104
        38.7504         19.0004
  23118432.0054  -62345778.84849 -48549595.14847                  23118431.7984
        43.2504         30.5004
  24052925.8134  -46284739.03949 -45194708.34846                  24052926.6254
        41.5004         22.5004
 04  8  4 20 48 30.0000000  0  8G20G 1G13G16G23G 4G25G11
  20243013.6274  -51472318.30949 -46920869.27348                  20243011.4464
        50.0004         41.5004
  20760411.7314  -65498148.18049 -51012599.16048                  20760410.8804
        48.7504         41.0004
  23650182.5694   -5788145.60549 -10157778.87947                  23650181.9434
        43.0004         26.5004
  21865048.1784  -35471274.68049 -27621747.40247                  21865046.0724
        49.0004         35.2504
  20930413.9734  -54167834.69549 -42144867.56647                  20930410.2824
        46.0004         39.0004
  24740170.8834    -999982.69549  -1455340.55546                  24740170.7874
        38.5004         18.2504
  23116206.9024  -62357469.95749 -48558705.14147                  23116206.9714
        43.5004         31.5004
  24050774.6644  -46296039.82049 -45203514.20746                  24050775.7784
        40.0004         23.0004
 04  8  4 20 48 45.0000000  0  8G20G 1G13G16G23G 4G25G11
  20232021.3964  -51530084.21549 -46965881.67648                  20232019.1634
        49.5004         42.0004
  20749931.3344  -65553224.96949 -51055516.13748                  20749929.9514
        49.0004         40.5004
  23633051.4234   -5878169.66049 -10227927.48446                  23633051.0764
        43.2504         25.5004
  21850696.1494  -35546693.44949 -27680515.25847                  21850694.1194
        49.0004         35.0004
  20916919.4504  -54238749.48049 -42200125.82848                  20916916.0874
        47.2504         39.5004
  24725644.4354   -1076317.49249  -1514822.20346                  24725644.6684
        39.5004         18.5004
  23113987.2034  -62369137.64849 -48567796.87147                  23113986.8274
        43.2504         31.2504
  24048624.1694  -46307336.87549 -45212317.12546                  24048625.7974
        39.0004         21.7504
 04  8  4 20 49  0.0000000  0  8G20G 1G13G16G23G 4G25G11
  20221054.3094  -51587716.17649 -47010789.69948                  20221052.2534
        49.0004         41.7504
  20739458.4654  -65608258.80949 -51098399.65248                  20739457.5134
        50.0004         41.2504
  23615922.0684   -5968182.16049 -10298067.04346                  23615922.9094
        42.7504         25.2504
  21836368.2794  -35621987.20749 -27739185.69547                  21836366.4624
        48.5004         35.2504
  20903433.2864  -54309618.14849 -42255348.17247                  20903429.5904
        46.5004         39.2504
  24711140.0714   -1152533.44149  -1574211.30946                  24711141.9454
        38.0004         18.5004
  23111771.4394  -62380783.28949 -48576871.42247                  23111770.5294
        42.5004         31.2504
  24046474.7464  -46318631.84449 -45221118.46146                  24046476.9764
        39.0004         22.0004
 04  8  4 20 49 15.0000000  0  8G20G 1G13G16G23G 4G25G11
  20210113.1334  -51645213.61749 -47055592.90648                  20210111.0664
        48.5004         41.7504
  20728994.1474  -65663249.10949 -51141249.24648                  20728993.3404
        48.0004         40.7504
  23598795.6944   -6058182.41849 -10368197.07046                  23598795.7734
        42.5004         25.5004
  21822063.7324  -35697155.16849 -27797758.10947                  21822063.0684
        47.0004         35.0004
  20889956.5314  -54380440.00849 -42310534.03548                  20889952.8144
        44.7504         40.0004
  24696659.9364                                                   24696661.3764
        30.7504         17.5004
  23109558.8214  -62392406.65649 -48585928.61747                  23109558.5834
        42.2504         31.0004
  24044326.0684  -46329924.48049 -45229918.05946                  24044326.9954
        39.2504         21.0004
 04  8  4 20 49 30.0000000  0  8G20G 1G13G16G23G 4G25G11
  20199196.9934  -51702576.77349 -47100291.46548                  20199195.0614
        49.0004         42.0004
  20718537.7884  -65718196.33649 -51184065.25848                  20718537.5144
        49.0004         40.5004
  23581671.5544   -6148170.76649 -10438317.82447                  23581672.0134
        43.0004         26.2504
  21807784.3274  -35772197.52349 -27856232.66447                  21807782.7664
        48.2504         35.0004
  20876488.5294  -54451215.53949 -42365683.79347                  20876485.0464
        46.7504         39.2504
  24682201.9844   -1304606.85949  -1692710.02346                  24682202.7294
        36.2504         20.0004
  23107351.5024  -62404008.43449 -48594968.97747                  23107351.3744
        43.7504         30.7504
  24042178.4394  -46341215.53949 -45238716.32846                  24042178.8664
        42.5004         22.5004
 04  8  4 20 49 45.0000000  0  8G20G 1G13G16G23G 4G25G11
  20188306.8914  -51759805.24649 -47144885.08648                  20188304.8724
        48.5004         41.7504
  20708090.4464  -65773100.17649 -51226847.47748                  20708089.4124
        50.2504         40.7504
  23564549.9274   -6238146.93449 -10508429.11746                  23564549.3174
        43.0004         24.0004
  21793528.1144  -35847113.76649 -27914608.94547                  21793526.4734
        48.7504         35.5004
  20863029.3094  -54521944.40649 -42420797.19948                  20863025.1924
        48.7504         39.5004
  24667767.4854   -1380464.14549  -1751819.62146                  24667768.2334
        38.0004         21.0004
  23105147.8634  -62415588.38749 -48603992.34047                  23105147.1844
        43.7504         31.5004
  24040029.3604  -46352505.02049 -45247513.41446                  24040031.8854
        40.0004         22.5004
 04  8  4 20 50  0.0000000  0  8G20G 1G13G16G23G 4G25G11
  20177442.0934  -51816899.93749 -47189374.46548                  20177439.9394
        49.2504         41.7504
  20697650.4554  -65827961.54749 -51269596.59848                  20697649.3944
        51.0004         41.2504
  23547429.7224   -6328111.99249 -10578531.71946                  23547429.6994
        43.7504         24.7504
  21779295.8254  -35921904.68449 -27972887.57047                  21779294.3124
        48.7504         34.5004
  20849578.7614  -54592627.55549 -42475874.96148                  20849574.7454
        48.7504         39.5004
  24653355.0514   -1456202.66849  -1810836.66846                  24653355.1454
        40.5004         21.0004
  23102948.7254  -62427147.84449 -48612999.74247                  23102947.7994
        43.7504         30.7504
  24037881.4774  -46363794.31649 -45256310.36346                  24037883.3664
        40.0004         22.0004
 04  8  4 20 50 15.0000000  0  8G20G 1G13G16G23G 4G25G11
  20166602.9374  -51873860.75449 -47233759.52348                  20166600.8254
        48.5004         41.5004
  20687218.8524  -65882780.38349 -51312312.56648                  20687218.1204
        49.0004         41.0004
  23530312.2804   -6418065.95349 -10648625.67646                  23530312.0304
        42.2504         24.7504
  21765087.6434  -35996569.86749 -28031068.22347                  21765085.8784
        48.0004         35.5004
  20836136.9614  -54663264.87149 -42530917.02747                  20836132.8404
        46.0004         39.0004
  24638964.9504   -1531822.17649  -1869760.93446                  24638965.5484
        39.7504         19.5004
  23100753.0404  -62438687.05549 -48621991.36747                  23100751.8704
        44.0004         31.0004
  24035732.6334  -46375083.78949 -45265107.43746                  24035734.8224
        38.5004         21.0004
 04  8  4 20 50 30.0000000  0  8G20G 1G13G16G23G 4G25G11
  20155788.8524  -51930687.77349 -47278040.32448                  20155786.9024
        48.0004         41.2504
  20676795.3234  -65937557.02749 -51354995.66848                  20676794.6424
        49.2504         41.2504
  23513197.1174   -6508009.38749 -10718711.46147                  23513196.0914
        43.2504         26.0004
  21750902.8894  -36071109.50049 -28089151.02747                  21750901.4914
        47.2504         35.2504
  20822703.6084  -54733856.84049 -42585923.75047                  20822699.5844
        47.5004         39.0004
  24624598.2644   -1607322.90849  -1928592.62946                  24624597.8594
        40.5004         20.5004
  23098560.4824  -62450206.47749 -48630967.55147                  23098559.8594
        41.7504         30.7504
  24033584.6834  -46386374.14549 -45273905.18746                  24033585.8714
        40.7504         22.7504
 04  8  4 20 50 45.0000000  0  8G20G 1G13G16G23G 4G25G11
  20145000.4604  -51987380.88749 -47322216.77748                  20144998.6784
        48.5004         41.7504
  20666379.4764  -65992291.37949 -51397645.81648                  20666378.4234
        49.2504         41.0004
  23496083.4294   -6597941.58249 -10788788.44947                  23496082.7894
        44.5004         26.2504
  21736742.0974  -36145523.23449 -28147135.75047                  21736741.1104
        48.5004         34.5004
  20809279.0324  -54804402.99649 -42640894.77348                  20809275.2194
        46.2504         39.5004
  24610252.3394   -1682704.52349  -1987331.58246                  24610253.0234
        40.0004         20.0004
  23096372.1684  -62461706.21949 -48639928.40247                  23096371.5544
        42.5004         30.7504
  24031436.6474  -46397665.57049 -45282703.77046                  24031436.9244
        39.7504         21.0004
 04  8  4 20 51  0.0000000  0  8G20G 1G13G16G23G 4G25G11
  20134238.1384  -52043939.65249 -47366288.55148                  20134236.0744
        48.2504         42.0004
  20655972.2654  -66046983.13749 -51440262.77048                  20655971.3764
        50.2504         41.2504
  23478972.0054   -6687862.59049 -10858856.73446                  23478971.1244
        45.0004         25.0004
  21722605.9924  -36219810.56249 -28205021.97747                  21722604.3494
        48.7504         35.7504
  20795862.9894  -54874903.12149 -42695829.93447                  20795859.6444
        47.0004         39.2504
  24595930.5134   -1757966.59849  -2045977.32046                  24595930.0594
        40.2504         20.0004
  23094188.2584  -62473186.20349 -48648873.86347                  23094186.7964
        44.0004         30.5004
  24029287.2494  -46408958.14849 -45291503.24246                  24029288.1184
        40.2504         20.0004
 04  8  4 20 51 15.0000000  0  8G20G 1G13G16G23G 4G25G11
  20123500.7434  -52100364.23449 -47410255.76248                  20123498.9404
        48.0004         42.2504
  20645572.6064  -66101632.55549 -51482846.73448                  20645571.8734
        49.2504         40.5004
  23461862.3304   -6777772.75049 -10928916.57046                  23461861.1414
        42.0004         23.0004
  21708493.6444  -36293971.54349 -28262809.74247                  21708492.2514
        47.5004         35.7504
  20782456.3954  -54945357.51649 -42750729.44947                  20782452.3294
        46.5004         39.0004
  24581631.5484                                                   24581630.9954
        39.5004         17.7504
  23092006.6534  -62484646.86749 -48657804.27347                  23092006.2564
        43.5004         30.2504
  24027137.8584  -46420252.49249 -45300304.09046                  24027138.1294
        39.5004         20.0004
 04  8  4 20 51 30.0000000  0  8G20G 1G13G16G23G 4G25G11
  20112789.2464  -52156654.46949 -47454118.28548                  20112786.5954
        45.5004         42.0004
  20635181.4094  -66156239.48849 -51525397.59848                  20635180.7764
        50.2504         40.7504
  23444755.6254   -6867671.80149 -10998967.74247                  23444754.4704
        44.0004         26.0004
  21694405.2034  -36368005.85949 -28320498.79747                  21694403.8144
        48.0004         35.5004
  20769057.9054  -55015766.03149 -42805593.23047                  20769054.2164
        46.0004         39.2504
  24567354.9734   -1908131.81649  -2162988.93746                  24567353.8184
        41.0004         19.0004
  23089829.5134  -62496088.40649 -48666719.77047                  23089829.2354
        43.0004         30.0004
  24024988.5184  -46431548.81249 -45309106.50046                  24024989.9664
        39.0004         21.0004
 04  8  4 20 51 45.0000000  0  8G20G 1G13G16G23G 4G25G11
  20102103.2054  -52212809.93049 -47497875.79348                  20102100.5364
        48.2504         42.0004
  20624797.9634  -66210803.69149 -51567915.16048                  20624797.3034
        50.2504         41.0004
  23427650.4154   -6957559.60249 -11069010.15646                  23427649.3034
        44.2504         25.0004
  21680341.5094  -36441913.00849 -28378088.77047                  21680339.6724
        47.7504         35.5004
  20755668.3244  -55086128.23849 -42860420.91847                  20755664.7954
        47.2504         39.0004
  24553101.4154   -1983035.14549  -2221355.16846                  24553101.3194
        40.0004         18.2504
  23087656.1154  -62507510.77049 -48675620.34447                  23087655.3774
        43.7504         29.7504
  24022838.9994  -46442847.16449 -45317910.46546                  24022839.6144
        40.5004         21.5004
 04  8  4 20 52  0.0000000  0  8G20G 1G13G16G23G 4G25G11
  20091442.9424  -52268828.86749 -47541526.91448                  20091440.6914
        47.7504         42.0004
  20614423.2724  -66265323.52049 -51610398.14148                  20614422.2794
        49.0004         40.7504
  23410548.1894   -7047434.44949 -11139042.48846                  23410546.8144
        45.2504         25.2504
  21666301.9254  -36515691.07849 -28435578.17247                  21666300.1184
        48.2504         36.0004
  20742288.2174  -55156442.62949 -42915211.34447                  20742284.5424
        47.5004         39.2504
  24538871.3374   -2057816.87149  -2279626.63346                  24538870.7274
        40.2504         17.7504
  23085486.3544  -62518912.67649 -48684504.96547                  23085486.0244
        44.0004         30.0004
  24020688.4384  -46454146.34849 -45326715.14846                  24020689.3944
        38.2504         20.5004
 04  8  4 20 52 15.0000000  0  8G20G 1G13G16G23G 4G25G11
  20080808.7694  -52324710.69549 -47585071.19148                  20080806.9914
        47.7504         42.0004
  20604056.9294  -66319798.39849 -51652846.10248                  20604056.1704
        50.0004         41.2504
  23393447.1544   -7137295.90249 -11209064.37146                  23393446.2834
        44.2504         22.5004
  21652287.0764  -36589339.35549 -28492966.41447                  21652285.3944
        48.7504         35.0004
  20728916.8394  -55226708.46149 -42969963.94548                  20728912.8664
        46.2504         39.5004
  24524664.6624   -2132476.21949  -2337802.78546                  24524663.6344
        39.5004         17.7504
  23083321.0754  -62530293.79749 -48693373.38747                  23083319.5774
        45.2504         29.2504
  24018538.7214  -46465446.23849 -45335520.30546                  24018539.2854
        40.5004         20.5004
 04  8  4 20 52 30.0000000  0  8G20G 1G13G16G23G 4G25G11
  20070201.0654  -52380456.07449 -47628509.15648                  20070199.1954
        48.0004         42.0004
  20593699.0014  -66374229.14849 -51695259.67248                  20593698.1924
        49.7504         41.0004
  23376350.0634   -7227144.67249 -11279076.34846                  23376348.8554
        43.7504         22.5004
  21638296.8684  -36662858.34049 -28550253.93747                  21638295.3574
        48.5004         35.0004
  20715554.8494  -55296926.56649 -43024679.34048                  20715551.3904
        46.5004         39.7504
  24510480.0844   -2207013.94549  -2395884.11746                  24510480.5214
        39.7504         18.2504
  23081159.2104  -62541654.92649 -48702226.23047                  23081157.6814
        44.0004         29.7504
  24016386.8324  -46476747.84449 -45344326.80146                  24016389.4824
        39.0004         20.0004
 04  8  4 20 52 45.0000000  0  8G20G 1G13G16G23G 4G25G11
  20359412.5954  -52436058.07449 -47671835.39148                  20359410.5934
        47.0004         42.0004
  20883143.4064  -66428608.95749 -51737633.55148                  20883142.6694
        49.0004         40.5004
  23659048.8614   -7316971.62949 -11349071.37546                  23659047.5754
        44.0004         23.2504
  21924125.3004  -36736239.87149 -28607434.33247                  21924123.3374
        48.7504         35.5004
  21001995.9714  -55367089.17649 -43079351.50848                  21001992.1974
        46.2504         39.7504
  24796112.5584   -2281421.75449  -2453864.17246                  24796114.0394
        38.0004         18.2504
  23378794.1924  -62552992.64549 -48711060.83647                  23378792.4174
        44.7504         29.5004
  24314030.4264  -46488047.62949 -45353131.85546                  24314031.6954
        40.5004         20.0004
 04  8  4 20 53  0.0000000  0  8G20G 1G13G16G23G 4G25G11
  20348857.8444  -52491524.88349 -47715056.28148                  20348855.7624
        48.5004         42.2504
  20872803.8334  -66482945.81649 -51779973.96548                  20872802.5574
        49.7504         40.7504
  23641956.9574   -7406789.56649 -11419059.32447                  23641956.4644
        43.7504         25.7504
  21910185.5284  -36809494.26249 -28664515.66047                  21910183.9884
        48.0004         35.5004
  20988653.1744  -55437206.20349 -43133988.13748                  20988649.2444
        47.2504         39.5004
  24781976.6284   -2355710.17249  -2511751.22746                  24781977.1424
        37.5004         18.2504
  23376640.0244  -62564309.36349 -48719879.05947                  23376638.2064
        44.7504         27.7504
  24311879.5214  -46499348.19949 -45361937.58646                  24311881.9114
        40.5004         22.0004
 04  8  4 20 53 15.0000000  0  8G20G 1G13G16G23G 4G25G11
  20338329.7374  -52546851.53949 -47758167.97348                  20338327.5364
        49.0004         42.0004
  20862472.6654  -66537235.05149 -51822277.27048                  20862471.6724
        49.5004         41.0004
  23624868.1384   -7496591.37149 -11489034.74646                  23624867.6624
        43.0004         24.2504
  21896270.8424  -36882615.37949 -28721493.13747                  21896269.3804
        49.0004         35.2504
  20975320.0724  -55507272.06249 -43188584.90648                  20975316.2784
        47.5004         39.7504
  24767864.0774   -2429873.26249  -2569540.68046                  24767863.6694
        40.0004         17.7504
  23374490.5144  -62575603.39549 -48728679.61747                  23374489.8594
        45.0004         28.5004
  24309729.2434  -46510648.09449 -45370742.79746                  24309731.4104
        39.5004         22.0004
 04  8  4 20 53 30.0000000  0  8G20G 1G13G16G23G 4G25G11
  20327828.7464  -52602035.47349 -47801168.44548                  20327826.2614
        49.0004         42.0004
  20852151.1544  -66591474.07049 -51864541.43448                  20852150.6984
        50.0004         40.5004
  23607782.6984   -7586374.46949 -11558995.55946                  23607781.9334
        43.5004         22.7504
  21882382.4054  -36955600.47349 -28778364.62947                  21882380.3484
        48.7504         35.7504
  20961997.2384  -55577284.04349 -43243139.68748                  20961993.3094
        49.5004         39.7504
  24753774.8834   -2503908.21549  -2627230.23446                  24753774.9614
        36.2504         17.7504
  23372346.3984  -62586872.46149 -48737460.73047                  23372344.6694
        45.2504         27.7504
  24307578.7354  -46521945.16449 -45379545.77346                  24307580.6844
        41.5004         21.2504
 04  8  4 20 53 45.0000000  0  8G20G 1G13G16G23G 4G25G11
  20317354.1184  -52657077.96549 -47844058.69948                  20317352.2564
        46.2504         42.5004
  20841839.0764  -66645664.41449 -51906767.67648                  20841838.5664
        47.7504         41.2504
  23590700.6484   -7676140.53549 -11628943.13746                  23590699.8464
        42.2504         22.5004
  21868519.2464  -37028450.76249 -28835131.07847                  21868517.5814
        48.7504         34.5004
  20948684.3564  -55647243.60949 -43297653.63348                  20948680.5814
        48.0004         40.0004
  24739710.4924   -2577816.46149  -2684821.03146                  24739710.5894
        37.0004         17.5004
  23370206.4074  -62598118.38749 -48746223.79747                  23370204.2414
        46.0004         27.2504
  24305430.1054  -46533241.30149 -45388348.07046                  24305431.1054
        41.5004         21.0004
 04  8  4 20 54  0.0000000  0  8G20G 1G13G16G23G 4G25G11
  20306906.9434  -52711978.73849 -47886838.52348                  20306905.1754
        45.2504         42.2504
  20831536.4604  -66699805.80149 -51948955.77748                  20831535.5354
        47.2504         41.2504
  23573622.4834   -7765889.23049 -11698877.16846                  23573622.1144
        40.5004         22.5004
  21854682.4994  -37101165.90649 -28891792.21547                  21854680.3184
        49.2504         35.0004
  20935381.4774  -55717150.47749 -43352126.50848                  20935377.6214
        48.5004         39.5004
  24725670.0534   -2651597.75849  -2742312.95346                  24725670.1324
        38.5004         15.5004
  23368070.8644  -62609341.12149 -48754968.81647                  23368068.7654
        45.2504         28.0004
  24303281.3874  -46544536.55949 -45397149.62146                  24303282.1664
        41.0004         21.5004
 04  8  4 20 54 15.0000000  0  8G20G 1G13G16G23G 4G25G11
  20296486.4314  -52766737.84449 -47929507.96148                  20296484.7094
        48.2504         42.0004
  20821243.1214  -66753898.25049 -51991105.74648                  20821242.0434
        49.5004         41.0004
  23556547.0564   -7855620.53549 -11768797.66446                  23556546.0724
        42.2504         25.0004
  21840870.6614  -37173745.63349 -28948347.83247                  21840869.0654
        48.5004         34.7504
  20922088.7664  -55787004.64149 -43406558.32048                  20922084.5304
        48.5004         39.7504
  24711654.8294   -2725252.02749  -2799705.88746                  24711654.5584
        37.5004         17.0004
  23365939.5034  -62620540.82849 -48763695.85947                  23365937.5714
        44.2504         27.5004
  24301131.7074  -46555831.30149 -45405950.74646                  24301133.0564
        42.0004         21.7504
 04  8  4 20 54 30.0000000  0  8G20G 1G13G16G23G 4G25G11
  20286092.9094  -52821355.89549 -47972067.48448                  20286091.1734
        44.5004         42.0004
  20810958.8934  -66807942.50449 -52033218.14848                  20810958.1144
        46.5004         40.5004
  23539474.9704   -7945335.28149 -11838705.23046                  23539474.2854
        41.2504         22.0004
  21827085.1644  -37246190.52349 -29004798.37547                  21827083.2914
        47.5004         35.0004
  20908805.5884  -55856806.80549 -43460949.61748                  20908801.9294
        47.7504         39.7504
  24697663.4844   -2798779.70349  -2857000.20346                  24697662.2374
        38.0004         17.5004
  23363812.9714  -62631718.71149 -48772405.94147                  23363811.3664
        43.7504         28.2504
  24298982.0544  -46567126.68449 -45414752.41846                  24298983.6524
        41.7504         22.2504
 04  8  4 20 54 45.0000000  0  8G20G 1G13G16G23G 4G25G11
  20275726.4324  -52875832.78149 -48014517.01648                  20275724.0344
        44.5004         41.7504
  20800684.0204  -66861938.52749 -52075292.98048                  20800682.7554
        47.0004         40.7504
  23522405.7974   -8035033.41049 -11908599.85546                  23522405.7464
        41.5004         24.5004
  21813324.9214  -37318500.38349 -29061143.71147                  21813323.0654
        47.7504         35.5004
  20895533.1464  -55926556.93449 -43515300.35948                  20895528.7064
        47.2504         39.7504
  24683694.5784   -2872180.71548  -2914195.77746                  24683695.1644
        35.2504         17.0004
  23361689.7344  -62642874.82049 -48781099.02047                  23361688.0584
        43.5004         27.5004
  24296832.9974  -46578422.93749 -45423554.77746                  24296834.2664
        42.5004         24.2504
 04  8  4 20 55  0.0000000  0  8G20G 1G13G16G23G 4G25G11
  20265386.5824  -52930168.30149 -48056856.38348                  20265384.4664
        48.2504         41.7504
  20790417.8754  -66915886.10949 -52117330.05948                  20790417.0274
        49.7504         40.5004
  23505339.7274   -8124714.72749 -11978481.36746                  23505339.4494
        43.0004         25.0004
  21799590.3154  -37390674.75049 -29117383.46147                  21799589.1344
        49.2504         36.0004
  20882269.6504  -55996254.82849 -43569610.40248                  20882265.6584
        48.0004         39.7504
  24669751.2564   -2945454.99648  -2971292.62146                  24669750.5614
        33.0004         14.7504
  23359570.3764  -62654009.24249 -48789775.21547                  23359568.9514
        43.7504         27.5004
  24294683.1924  -46589720.30949 -45432357.99646                  24294683.9444
        41.2504         23.0004
 04  8  4 20 55 15.0000000  0  8G20G 1G13G16G23G 4G25G11
  20255073.4844  -52984364.34449 -48099087.07048                  20255071.5154
        48.2504         42.0004
  20780160.8364  -66969787.29349 -52159330.98448                  20780160.2214
        49.0004         41.5004
  23488277.1744   -8214381.28149 -12048351.39546                  23488276.3544
        43.2504         25.0004
  21785881.6704  -37462715.51649 -29173519.10947                  21785880.2064
        49.0004         36.0004
  20869015.9184  -56065902.45349 -43623881.28148                  20869012.5324
        47.5004         39.7504
  24655832.2964   -3018604.34849  -3028292.12546                  24655830.3744
        38.2504         15.5004
  23357455.7284  -62665124.25049 -48798436.27747                  23357454.0304
        43.5004         27.0004
  24292531.8974  -46601021.17649 -45441163.94546                  24292534.7794
        41.0004         24.0004
 04  8  4 20 55 30.0000000  0  8G20G 1G13G16G23G 4G25G11
  20244787.1124  -53038420.28949 -48141208.59048                  20244785.4354
        47.0004         42.2504
  20769912.3614  -67023641.57049 -52201295.35548                  20769911.8634
        50.2504         41.0004
  23471217.6174   -8304032.66049 -12118209.59047                  23471216.0484
        43.2504         26.0004
  21772198.2534  -37534621.95349 -29229550.09047                  21772196.9054
        48.0004         35.7504
  20855772.2924  -56135499.33649 -43678112.60547                  20855768.4694
        46.5004         39.0004
  24641935.0944   -3091628.16049  -3085193.75446                  24641934.9524
        36.7504         17.0004
  23355344.7434  -62676219.63749 -48807082.05147                  23355343.3564
        44.0004         27.2504
  24290381.1194  -46612325.46949 -45449972.55946                  24290383.4064
        42.0004         25.2504
 04  8  4 20 55 45.0000000  0  8G20G 1G13G16G23G 4G25G11
  20234527.4084  -53092335.80949 -48183220.68748                  20234525.1864
        47.5004         42.5004
  20759673.6974  -67077448.60549 -52243222.91448                  20759673.0034
        49.2504         41.0004
  23454160.1964   -8393668.53549 -12188055.70346                  23454158.9194
        42.7504         25.2504
  21758540.6634  -37606393.62949 -29285476.04747                  21758538.5354
        49.0004         35.0004
  20842538.3344  -56205045.08249 -43732304.10248                  20842534.5594
        46.2504         40.0004
  24628062.9234   -3164525.93748  -3141997.27746                  24628063.6184
        34.7504         15.5004
  23353236.7164  -62687295.18049 -48815712.38347                  23353235.5784
        43.0004         27.5004
  24288229.1054  -46623633.14849 -45458783.82046                  24288231.2924
        41.5004         22.7504
 04  8  4 20 56  0.0000000  0  8G20G 1G13G16G23G 4G25G11
  20224293.8804  -53146113.32449 -48225125.24648                  20224291.4664
        47.5004         42.2504
  20749442.9814  -67131210.80949 -52285115.54348                  20749442.6784
        48.0004         41.5004
  23437105.2924   -8483291.28549 -12257891.59047                  23437104.3554
        44.2504         26.7504
  21744907.9704  -37678032.70749 -29341298.68747                  21744906.2124
        47.5004         35.5004
  20829313.0324  -56274542.05549 -43786457.57448                  20829309.5014
        45.0004         39.7504
  24614216.0184   -3237300.18748  -3198704.43746                  24614214.5764
        35.5004         14.0004
  23351131.9794  -62698353.69949 -48824329.42647                  23351131.1674
        44.2504         27.7504
  24286076.6854  -46634946.95749 -45467599.85946                  24286079.0944
        41.5004         22.7504
 04  8  4 20 56 15.0000000  0  8G20G 1G13G16G23G 4G25G11
  20214086.4974  -53199753.04749 -48266922.44148                  20214084.4884
        47.5004         42.0004
  20739220.7774  -67184928.56649 -52326973.54348                  20739219.8364
        49.5004         41.7504
  23420053.2974   -8572901.20749 -12327717.49247                  23420051.5384
        44.0004         26.0004
  21731300.9644  -37749539.37149 -29397018.15647                  21731298.5404
        48.2504         34.7504
  20816097.6554  -56343990.53149 -43840573.28148                  20816093.8574
        46.7504         39.7504
  24600390.2784   -3309951.21949  -3255315.70746                  24600389.1174
        36.0004         15.5004
  23349031.6394  -62709395.63749 -48832933.58247                  23349030.4664
        42.0004         27.0004
  24283922.1354  -46646267.58649 -45476421.19546                  24283923.9584
        40.5004         24.7504
 04  8  4 20 56 30.0000000  0  8G20G 1G13G16G23G 4G25G11
  20203905.3354  -53253255.12549 -48308612.37548                  20203903.2334
        48.0004         41.2504
  20729007.0404  -67238602.12949 -52368797.09848                  20729006.5984
        49.0004         41.2504
  23403003.1394   -8662498.62549 -12397533.60547                  23403002.3224
        45.2504         27.0004
  21717718.5584  -37820913.71949 -29452634.52347                  21717716.7494
        47.7504         35.0004
  20802891.1534  -56413390.82449 -43894651.42248                  20802887.5194
        46.5004         40.0004
  24586587.8184   -3382478.93048  -3311830.73846                  24586587.4244
        35.5004         15.5004
  23346933.5964  -62720421.50849 -48841525.18747                  23346932.1524
        43.0004         27.7504
  24281767.2404  -46657595.71549 -45485248.39146                  24281768.2844
        42.0004         22.7504
 04  8  4 20 56 45.0000000  0  8G20G 1G13G16G23G 4G25G11
  20193750.6074  -53306619.36349 -48350194.90248                  20193748.8744
        47.0004         41.2504
  20718801.7794  -67292231.16049 -52410585.95748                  20718800.9914
        47.2504         41.2504
  23385955.6444   -8752083.32049 -12467339.84847                  23385954.9324
        44.5004         26.5004
  21704161.7964  -37892155.31649 -29508147.44947                  21704160.2954
        48.0004         35.5004
  20789694.1494  -56482742.70749 -43948691.84848                  20789690.3314
        45.5004         39.7504
  24572811.0834   -3454883.20749  -3368249.67646                  24572810.0334
        37.2504         15.5004
  23344837.8324  -62731431.43449 -48850104.35247                  23344837.1674
        44.0004         27.5004
  24279609.7494  -46668931.50449 -45494081.58646                  24279611.4904
        41.0004         24.0004
 04  8  4 20 57  0.0000000  0  8G20G 1G13G16G23G 4G25G11
  20183621.9484  -53359845.30149 -48391669.66048                  20183620.3334
        45.5004         41.5004
  20708605.0244  -67345815.39849 -52452339.90648                  20708604.0934
        47.7504         40.2504
  23368910.9194   -8841655.02349 -12537135.96547                  23368910.4484
        44.0004         27.5004
  21690630.3574  -37963263.60549 -29563556.49647                  21690628.8784
        48.0004         36.0004
  20776505.9824  -56552045.62149 -44002694.11748                  20776502.4944
        47.2504         40.0004
  24559056.0554   -3527163.73449  -3424572.09846                  24559055.5544
        36.7504         14.7504
  23342746.0424  -62742425.10549 -48858670.88747                  23342745.3124
        44.2504         29.0004
  24277451.1974  -46680274.92649 -45502920.67246                  24277453.7434
        41.2504         23.0004
 04  8  4 20 57 15.0000000  0  8G20G 1G13G16G23G 4G25G11
  20173519.5014  -53412932.82049 -48433036.55948                  20173517.7834
        44.0004         41.7504
  20698416.7984  -67399354.72349 -52494058.86748                  20698415.6974
        46.0004         41.0004
  23351868.3474   -8931213.65649 -12606921.86747                  23351867.9214
        45.7504         28.5004
  21677124.5034  -38034238.37549 -29618861.49247                  21677122.7054
        48.7504         36.0004
  20763327.4994  -56621299.64549 -44056658.29348                  20763323.9664
        48.0004         39.7504
  24545325.7594   -3599320.01649  -3480797.92646                  24545324.0574
        36.2504         14.0004
  23340656.5574  -62753402.75449 -48867224.91447                  23340655.8774
        43.5004         28.0004
  24275290.8844  -46691626.16049 -45511765.86346                  24275294.3374
        40.5004         22.5004
 04  8  4 20 57 30.0000000  0  8G20G 1G13G16G23G 4G25G11
  20163444.1524  -53465879.90649 -48474294.03148                  20163442.1844
        44.5004         42.0004
  20688237.7384  -67452847.23849 -52535741.34848                  20688236.6324
        46.2504         41.2504
  23334828.3834   -9020757.24649 -12676696.06647                  23334828.2444
        45.0004         29.0004
  21663644.0504  -38105077.47349 -29674060.77347                  21663641.7584
        48.5004         35.2504
  20750158.4364  -56690502.73449 -44110582.77348                  20750154.9544
        48.0004         39.5004
  24531618.8154   -3671350.27049  -3536925.30546                  24531617.6254
        36.0004         17.0004
  23338571.0874  -62764362.70349 -48875765.15247                  23338570.4294
        42.2504         29.2504
  24273130.3364  -46702983.73849 -45520615.99246                  24273132.9754
        40.2504         22.2504
 04  8  4 20 57 45.0000000  0  8G20G 1G13G16G23G 4G25G11
  20153395.3964  -53518687.71149 -48515442.98048                  20153393.3324
        48.5004         41.7504
  20678066.9064  -67506293.94549 -52577388.13348                  20678066.0644
        48.0004         41.2504
  23317792.2094   -9110286.88349 -12746459.38747                  23317791.3104
        45.2504         27.7504
  21650189.3934  -38175781.84849 -29729155.07447                  21650187.5064
        48.0004         36.0004
  20736999.0044  -56759655.85549 -44164468.30948                  20736995.4754
        45.7504         39.7504
  24517933.5014   -3743255.53948  -3592955.37946                  24517933.9624
        33.2504         16.2504
  23336488.9504  -62775306.18049 -48884292.55547                  23336487.6604
        43.5004         29.2504
  24270967.1184  -46714349.04749 -45529472.16446                  24270969.2084
        40.0004         21.5004
 04  8  4 20 58  0.0000000  0  7G20G 1G13G16G23G25G11
  20143373.3264  -53571354.31649 -48556481.90648                  20143371.2284
        44.0004         42.0004
  20667905.3184  -67559693.19149 -52618997.93448                  20667904.4454
        46.2504         41.0004
  23300757.5554   -9199800.83659 -12816210.49257                  23300757.6574
        44.2504         28.2504
  21636760.8784  -38246349.59849 -29784142.92247                  21636759.4364
        47.7504         36.0004
  20723849.5554  -56828757.39549 -44218313.66048                  20723846.0614
        46.5004         40.0004
  23334409.7444  -62786231.66049 -48892805.94947                  23334408.9304
        43.7504         28.7504
  24268803.0534  -46725720.72749 -45538333.30946                  24268804.9744
        41.0004         21.7504
 04  8  4 20 58 15.0000000  0  8G20G 1G13G16G23G 4G25G11
  20133377.8604  -53623880.25049 -48597411.21148                  20133375.7794
        47.0004         42.0004
  20657753.0574  -67613045.50049 -52660571.16848                  20657752.4124
        49.0004         41.0004
  23283726.2194   -9289299.81649 -12885949.93047                  23283726.2564
        45.2504         28.0004
  21623357.8224  -38316781.16449 -29839024.63747                  21623356.8294
        47.5004         36.2504
  20710709.4184  -56897807.84849 -44272119.21547                  20710705.6164
        47.7504         39.2504
  24490642.2094     -32444.91859
        36.7504
  23332334.2984  -62797140.10949 -48901306.05947                  23332333.5274
        42.5004         30.5004
  24266638.0754  -46737099.88349 -45547200.25846                  24266638.6794
        41.0004         21.7504
 04  8  4 20 58 30.0000000  0  8G20G 1G13G16G23G 4G25G11
  20123409.5984  -53676264.39149 -48638230.02048                  20123407.1474
        50.0004         42.0004
  20647609.6414  -67666349.77349 -52702106.96948                  20647608.9204
        51.0004         41.2504
  23266698.6584   -9378782.59449 -12955676.73847                  23266698.5304
        45.7504         28.0004
  21609981.7924  -38387075.19149 -29893799.19147                  21609980.3974
        49.0004         36.0004
  20697579.9294  -56966806.09049 -44325884.07048                  20697575.8364
        49.5004         39.7504
  24477029.4624    -103969.50048
        35.5004
  23330261.8594  -62808030.56649 -48909792.16047                  23330261.7344
        43.2504         30.5004
  24264471.2844  -46748485.55949 -45556072.32046                  24264472.3344
        38.5004         19.2504
 04  8  4 20 58 45.0000000  0  8G20G 1G13G16G23G 4G25G11
  20113468.6604  -53728504.68049 -48678936.74648                  20113466.3964
        50.2504         42.0004
  20637475.2334  -67719604.07449 -52743603.83648                  20637474.5784
        48.0004         41.2504
  23249673.6524   -9468247.25049 -13025389.41047                  23249673.9504
        46.0004         29.0004
  21596631.7054  -38457229.57849 -29948464.93447                  21596630.2314
        48.7504         36.2504
  20684460.5704  -57035750.10249 -44379606.68448                  20684456.3534
        45.5004         39.7504
  24463443.9534    -175364.48448
        34.7504
  23328193.1484  -62818901.41449 -48918262.97747                  23328192.9254
        43.5004         30.5004
  24262303.7374  -46759876.25049 -45564948.26646                  24262305.7694
        39.7504         20.0004
 04  8  4 20 59  0.0000000  0  8G20G 1G13G16G23G 4G25G11
  20103554.6864  -53780600.99649 -48719531.28548                  20103553.1154
        50.0004         42.0004
  20627351.0724  -67772808.20749 -52785061.60548                  20627350.1904
        49.7504         41.2504
  23232652.7094   -9557693.62149 -13095087.84447                  23232652.7354
        44.7504         27.5004
  21583308.7014  -38527244.01249 -30003021.62547                  21583306.6254
        48.5004         36.0004
  20671350.8594  -57104639.75449 -44433286.92648                  20671346.9624
        47.5004         39.5004
  24449883.6054    -246629.71949
        38.5004
  23326128.1914  -62829752.71549 -48926718.55147                  23326127.5834
        45.2504         30.0004
  24260135.3044  -46771271.93049 -45573828.05146                  24260136.7894
        42.2504         18.2504
 04  8  4 20 59 15.0000000  0  8G20G 1G13G16G23G 4G25G11
  20093668.6004  -53832553.87949 -48760014.06248                  20093666.3994
        49.7504         41.5004
  20617236.1124  -67825962.82849 -52826480.79348                  20617235.1614
        47.0004         41.2504
  23215634.3764   -9647122.32049 -13164772.51647                  23215635.1004
        44.5004         27.7504
  21570011.5404  -38597118.94949 -30057469.62547                  21570009.5284
        49.2504         36.0004
  20658252.1194  -57173475.52349 -44486925.18048                  20658247.7974
        45.0004         39.5004
  24436347.1734    -317765.74649
        38.0004
  23324067.0094  -62840585.35949 -48935159.57447                  23324066.0784
        45.0004         30.2504
  24257966.3334  -46782673.81249 -45582712.67646                  24257967.8324
        41.5004         20.0004
 04  8  4 20 59 30.0000000  0  8G20G 1G13G16G23G 4G25G11
  20083809.3984  -53884363.55949 -48800385.24248                  20083807.5194
        49.5004         41.2504
  20607130.5414  -67879068.09049 -52867861.52348                  20607129.9394
        48.7504         41.2504
  23198620.8444   -9736533.64849 -13234443.64847                  23198620.3754
        44.7504         28.0004
  21556741.2494  -38666854.36749 -30111808.89847                  21556740.0434
        48.5004         36.2504
  20645163.4094  -57242257.51649 -44540521.53548                  20645159.5704
        46.5004         39.5004
  24422834.4964    -388772.67249  -3900438.32456                  24422836.4304
        38.7504         19.2504
  23322009.3064  -62851399.64849 -48943586.30947                  23322008.9414
        45.2504         30.0004
  24255795.2854  -46794082.40249 -45591602.53546                  24255796.8544
        42.7504         21.2504
 04  8  4 20 59 45.0000000  0  8G20G 1G13G16G23G 4G25G11
  20073977.5264  -53936030.83249 -48840645.46548                  20073974.9874
        49.5004         41.5004
  20597034.3004  -67932124.89149 -52909204.48448                  20597033.4034
        49.0004         41.0004
  23181609.4994   -9825928.51649 -13304101.95747                  23181609.4164
        46.0004         27.7504
  21543497.0964  -38736451.06649 -30166040.07847                  21543495.9174
        48.7504         36.0004
  20632084.6224  -57310986.83249 -44594076.85248                  20632080.2984
        47.7504         39.5004
  24409346.5684    -459651.26649  -3955668.53146                  24409347.1674
        37.0004         17.0004
  23319954.5734  -62862196.63749 -48951999.57047                  23319953.4094
        46.0004         29.2504
  24253623.2044  -46805498.93749 -45600498.63746                  24253624.7364
        42.2504         22.0004
 04  8  4 21  0  0.0000000  0  8G20G 1G13G16G23G 4G25G11
  20363966.0574  -53987551.50849 -48880791.45348                  20363964.2874
        49.2504         42.0004
  20886740.4024  -67985128.95749 -52950506.35548                  20886739.1464
        48.7504         41.0004
  23464394.2114   -9915300.08649 -13373742.10947                  23464394.3944
        44.2504         27.5004
  21830073.6374  -38805903.51249 -30220158.85247                  21830072.0834
        47.0004         35.5004
  20918809.3144  -57379658.02049 -44647586.86348                  20918805.0464
        46.0004         39.5004
  24695676.0944    -530396.18449  -4010794.43446                  24695676.6754
        37.7504         17.7504
  23617695.6224  -62872975.24649 -48960398.50047                  23617695.4444
        44.5004         28.5004
  24551241.4034  -46816922.22349 -45609399.99246                  24551242.6754
        43.5004         21.0004
 04  8  4 21  0 15.0000000  0  8G20G 1G13G16G23G 4G25G11
  20354188.6864  -54038932.23449 -48920828.38748                  20354186.8454
        49.2504         41.5004
  20876663.0464  -68038087.33249 -52991772.62148                  20876661.5314
        48.5004         41.0004
  23447390.2494  -10004660.39849 -13443373.49647                  23447390.1434
        45.2504         27.0004
  21816882.9654  -38875220.75049 -30274172.27047                  21816881.3664
        44.0004         35.7504
  20905750.4124  -57448280.08249 -44701058.59848                  20905746.7344
        45.0004         39.7504
  24682238.1054    -601016.55949  -4065823.24646                  24682238.3284
        38.2504         17.7504
  23615647.6284  -62883737.02349 -48968784.34447                  23615646.9854
        45.2504         28.7504
  24549065.6034  -46828354.13749 -45618308.08246                  24549068.0434
        42.5004         19.2504
 04  8  4 21  0 30.0000000  0  8G20G 1G13G16G23G 4G25G11
  20344438.3904  -54090169.84049 -48960753.80548                  20344436.7454
        50.0004         42.0004
  20866594.4634  -68090996.58249 -53033000.60948                  20866593.2614
        49.5004         40.5004
  23430388.6754  -10094003.63349 -13512991.56647                  23430388.2674
        45.2504         27.2504
  21803718.8564  -38944398.18049 -30328076.74647                  21803717.5544
        43.7504         35.7504
  20892702.6624  -57516848.64549 -44754488.64148                  20892698.5824
        45.5004         39.5004
  24668823.3944    -671508.05549  -4120751.68446                  24668824.0574
        37.2504         17.7504
  23613603.4074  -62894481.63749 -48977156.78547                  23613602.1354
        45.0004         28.7504
  24546888.1384  -46839794.42249 -45627222.68446                  24546891.6554
        40.0004         20.5004
 04  8  4 21  0 45.0000000  0  8G20G 1G13G16G23G 4G25G11
  20334715.7014  -54141262.98049 -49000566.64148                  20334713.8674
        50.0004         42.0004
  20856535.6274  -68143855.42249 -53074189.32048                  20856535.0914
        48.7504         41.0004
  23413390.5534  -10183328.50449 -13582595.32847                  23413389.9214
        45.5004         26.0004
  21790581.7454  -39013434.44149 -30381871.21147                  21790580.0314
        45.7504         36.5004
  20879664.8444  -57585362.41049 -44807875.98848                  20879660.7634
        46.0004         39.5004
  24655434.6324    -741869.09049  -4175578.51246                  24655433.8494
        37.2504         16.2504
  23611562.2524  -62905208.05949 -48985515.05947                  23611560.8664
        44.2504         28.5004
  24544710.0544  -46851242.21949 -45636143.09446                  24544713.0464
        37.7504         20.0004
 04  8  4 21  1  0.0000000  0  8G20G 1G13G16G23G 4G25G11
  20325020.4294  -54192212.33249 -49040267.44148                  20325018.3504
        49.5004         41.7504
  20846486.2624  -68196664.55149 -53115339.28948                  20846485.3964
        48.2504         41.0004
  23396395.6174  -10272635.71549 -13652185.34847                  23396395.8194
        45.0004         25.7504
  21777471.4564  -39082329.92649 -30435556.00047                  21777469.9014
        47.0004         36.7504
  20866637.4924  -57653822.03949 -44861221.15648                  20866633.5744
        46.7504         39.7504
  24642070.0754    -812100.27749  -4230304.09846                  24642069.4604
        38.0004         15.5004
  23609524.7044  -62915917.06249 -48993859.75447                  23609523.0134
        44.2504         29.5004
  24542530.0134  -46862698.50849 -45645070.18046                  24542532.5084
        38.0004         20.5004
 04  8  4 21  1 15.0000000  0  8G20G 1G13G16G23G 4G25G11
  20315351.8484  -54243017.88749 -49079856.19548                  20315350.5844
        49.2504         41.5004
  20836446.4884  -68249424.07049 -53156450.60248                  20836445.6694
        47.5004         40.5004
  23379404.1654  -10361925.34849 -13721761.63747                  23379404.1424
        45.0004         25.7504
  21764387.7414  -39151084.57049 -30489131.03547                  21764386.3164
        47.5004         35.7504
  20853620.2474  -57722227.58649 -44914524.17648                  20853616.4274
        46.7504         40.2504
  24628729.7264    -882201.89849  -4284928.75046                  24628729.8524
        39.0004         17.0004
  23607489.4984  -62926609.12549 -49002191.24647                  23607488.9524
        44.0004         28.2504
  24540348.5524  -46874163.73449 -45654004.18746                  24540350.9814
        39.7504         19.2504
 04  8  4 21  1 30.0000000  0  8G20G 1G13G16G23G 4G25G11
  20305711.8314  -54293678.12149 -49119331.70748                  20305709.9424
        50.2504         41.7504
  20826416.4764  -68302132.50849 -53197522.11748                  20826415.6354
        49.5004         41.0004
  23362417.0894  -10451195.85949 -13791323.03947                  23362416.3694
        44.0004         26.2504
  21751331.2534  -39219696.83249 -30542595.13347                  21751329.5704
        47.5004         36.0004
  20840613.8944  -57790577.51249 -44967783.85548                  20840610.0514
        47.7504         40.5004
  24615415.1294    -952172.26249  -4339451.05546                  24615414.3774
        39.2504         15.5004
  23605458.4224  -62937282.95749 -49010508.54747                  23605457.4494
        45.2504         28.0004
  24538165.1334  -46885636.67649 -45662944.19546                  24538167.8754
        40.7504         20.5004
 04  8  4 21  1 45.0000000  0  8G20G 1G13G16G23G 4G25G11
  20296098.4204  -54344195.74249 -49158696.09048                  20296096.8664
        49.5004         41.2504
  20816395.5244  -68354792.53149 -53238555.90648                  20816394.5614
        48.0004         41.0004
  23345432.9304  -10540450.00849 -13860871.69947                  23345431.7114
        44.0004         25.7504
  21738301.2844  -39288169.09449 -30595950.12147                  21738299.6734
        47.7504         36.2504
  20827617.5334  -57858874.34849 -45021002.16848                  20827613.6664
        45.5004         40.5004
  24602124.6214   -1022013.94149  -4393873.09046                  24602123.9444
        39.5004         17.0004
  23603430.0844  -62947941.59849 -49018813.98847                  23603428.8154
        44.0004         28.2504
  24535980.3864  -46897120.54749 -45671892.77046                  24535982.9204
        41.0004         22.0004
 04  8  4 21  2  0.0000000  0  8G20G 1G13G16G23G 4G25G11
  20286513.1734  -54394568.43049 -49197947.53948                  20286511.6094
        49.7504         42.0004
  20806384.5744  -68407401.90649 -53279550.22348                  20806383.4254
        48.2504         41.0004
  23328451.6344  -10629685.62149 -13930405.92646                  23328450.9754
        43.2504         24.7504
  21725299.0484  -39356499.12949 -30649194.28947                  21725297.3854
        48.0004         36.5004
  20814631.3184  -57927115.93449 -45074177.42648                  20814627.4484
        46.5004         40.0004
  24588859.3614   -1091724.62549  -4448193.18446                  24588859.0774
        39.0004         16.2504
  23601405.5174  -62958582.89549 -49027105.93047                  23601404.3004
        44.5004         28.0004
  24533793.3824  -46908613.41449 -45680848.28946                  24533795.7294
        43.2504         21.5004
 04  8  4 21  2 15.0000000  0  8G20G 1G13G16G23G 4G25G11
  20276955.2994  -54444796.37549 -49237086.20348                  20276953.2334
        50.0004         41.5004
  20796382.7994  -68459960.77349 -53320505.18748                  20796381.9594
        48.2504         40.2504
  23311474.5554  -10718902.75049 -13999925.73446                  23311473.0254
        44.0004         25.0004
  21712322.9514  -39424686.87949 -30702327.59847                  21712321.5774
        48.0004         36.5004
  20801655.9014  -57995302.40249 -45127309.73847                  20801651.6794
        46.7504         39.2504
  24575618.4724   -1161304.58649  -4502411.35246                  24575618.9004
        38.0004         17.0004
  23599383.6854  -62969207.25449 -49035384.66047                  23599382.1984
        45.0004         28.0004
  24531604.1374  -46920115.70749 -45689811.24246                  24531606.9214
        42.5004         22.5004
 04  8  4 21  2 30.0000000  0  8G20G 1G13G16G23G 4G25G11
  20267424.8024  -54494878.38749 -49276111.15248                  20267422.7114
        49.0004         41.5004
  20786390.7334  -68512467.98049 -53361419.89548                  20786390.0494
        47.5004         40.7504
  23294499.9544  -10808100.34449 -14069430.30546                  23294499.6484
        43.5004         24.0004
  21699374.6394  -39492731.03549 -30755348.99647                  21699373.2774
        46.7504         36.7504
  20788691.5664  -58063432.47749 -45180398.10548                  20788687.7164
        47.0004         39.5004
  24562403.3784   -1230752.66449  -4556526.74246                  24562402.9044
        39.5004         16.2504
  23597365.2014  -62979813.84849 -49043649.54747                  23597363.8844
        44.0004         27.7504
  24529414.7694  -46931626.69549 -45698780.89546                  24529416.3404
        43.0004         22.5004
 04  8  4 21  2 45.0000000  0  8G20G 1G13G16G23G 4G25G11
  20257922.0104  -54544816.63349 -49315024.09448                  20257920.1254
        49.2504         42.0004
  20776408.5844  -68564925.60549 -53402295.97348                  20776407.6234
        49.0004         40.7504
  23277530.1504  -10897280.59849 -14138921.39546                  23277528.5374
        45.0004         24.0004
  21686453.1794  -39560633.71149 -30808260.16447                  21686451.7114
        47.0004         36.0004
  20775736.9594  -58131508.43749 -45233444.31248                  20775732.6464
        48.0004         39.5004
  24549212.8184   -1300070.74649  -4610540.80146                  24549211.8864
        37.2504         17.0004
  23595350.2494  -62990404.87949 -49051902.34847                  23595348.6554
        45.0004         27.0004
  24527221.9404  -46943148.84449 -45707759.28546                  24527224.2284
        43.2504         23.5004
 04  8  4 21  3  0.0000000  0  8G20G 1G13G16G23G 4G25G11
  20248446.3164  -54594610.43449 -49353824.45748                  20248444.7804
        48.5004         41.2504
  20766435.6194  -68617333.05549 -53443132.94948                  20766434.9024
        47.0004         40.0004
  23260562.5644  -10986442.85249 -14208398.43746                  23260561.8514
        43.7504         23.7504
  21673558.6614  -39628393.97749 -30861060.35547                  21673557.3644
        47.5004         36.0004
  20762792.7734  -58199529.55949 -45286447.77748                  20762789.1474
        46.0004         40.0004
  24536046.6114   -1369258.25049  -4664453.13746                  24536046.1314
        38.7504         16.2504
  23593337.0174  -63000979.94949 -49060142.67647                  23593336.3664
        44.2504         27.7504
  24525027.0324  -46954681.74249 -45716746.04746                  24525030.0934
        42.7504         23.0004
 04  8  4 21  3 15.0000000  0  8G20G 1G13G16G23G 4G25G11
  20238998.7054  -54644258.87149 -49392511.56248                  20238996.9204
        49.0004         42.2504
  20756472.7494  -68669689.37949 -53483930.08648                  20756471.3554
        48.2504         40.5004
  23243599.2384  -11075586.10249 -14277860.69546                  23243598.3954
        43.5004         24.2504
  21660691.3874  -39696010.86349 -30913748.82847                  21660689.7484
        47.5004         36.2504
  20749859.3874  -58267494.87149 -45339407.75848                  20749855.6574
        47.5004         39.7504
  24522905.7814   -1438314.24249  -4718262.98046                  24522906.2054
        38.5004         17.5004
  23591328.8374  -63011538.46149 -49068370.10247                  23591326.5914
        45.0004         27.0004
  24522830.7294  -46966225.12949 -45725740.98046                  24522834.5074
        43.0004         24.0004
 04  8  4 21  3 30.0000000  0  8G20G 1G13G16G23G 4G25G11
  20229578.1234  -54693763.15649 -49431086.33648                  20229576.5204
        49.5004         41.7504
  20746519.1744  -68721995.81249 -53524688.34448                  20746517.9524
        49.0004         40.5004
  23226639.3914  -11164711.69549 -14347309.17646                  23226638.0764
        44.0004         23.7504
  21647851.6534  -39763485.56649 -30966326.50447                  21647849.6284
        47.0004         36.0004
  20736936.4614  -58335405.58649 -45392325.18748                  20736932.6454
        46.5004         40.0004
  24509789.0554   -1507239.75049  -4771971.19946                  24509790.1894
        38.0004         16.2504
  23589321.7124  -63022081.92249 -49076585.79347                  23589320.9994
        43.5004         26.5004
  24520632.2254  -46977780.51249 -45734745.24246                  24520635.5304
        42.7504         24.2504
 04  8  4 21  3 45.0000000  0  8G20G 1G13G16G23G 4G25G11
  20220185.5514  -54743123.15649 -49469548.67248                  20220183.8104
        49.0004         42.2504
  20736574.9574  -68774252.19949 -53565407.61748                  20736574.0784
        48.0004         40.5004
  23209682.6024  -11253819.39149 -14416743.70346                  23209681.0944
        43.7504         24.7504
  21635038.7584  -39830817.68749 -31018793.08247                  21635036.7454
        44.5004         36.2504
  20724023.8664  -58403261.53149 -45445199.94548                  20724020.0284
        45.2504         39.5004
  24496698.6174   -1576034.91449  -4825577.84046                  24496698.5854
        37.7504         16.2504
  23587318.0114  -63032610.39149 -49084789.81647                  23587317.6034
        44.0004         27.5004
  24518430.8004  -46989348.11349 -45743759.05946                  24518433.6424
        43.7504         22.7504
 04  8  4 21  4  0.0000000  0  8G20G 1G13G16G23G 4G25G11
  20210819.9164  -54792339.78149 -49507899.29348                  20210818.2144
        49.0004         42.0004
  20726640.2114  -68826459.63349 -53606088.72748                  20726639.5944
        48.0004         40.0004
  23192729.4354  -11342910.37949 -14486165.23846                  23192727.6964
        44.0004         22.5004
  21622252.7164  -39898008.13749 -31071149.26247                  21622250.6104
        43.5004         36.5004
  20711121.6494  -58471063.66049 -45498032.77348                  20711117.9074
        45.2504         39.5004
  24483632.2114   -1644700.73048  -4879083.64546                  24483631.5584
        34.7504         15.5004
  23585317.7104  -63043125.10249 -49092983.11347                  23585317.4544
        44.5004         26.7504
  24516227.3604  -47000929.27349 -45752783.46546                  24516228.8344
        43.5004         23.0004
 04  8  4 21  4 15.0000000  0  8G20G 1G13G16G23G 4G25G11
  20201481.3854  -54841414.56649 -49546139.39548                  20201479.7984
        49.5004         42.0004
  20716714.6654  -68878619.61749 -53646732.87148                  20716713.4894
        48.5004         40.2504
  23175778.7504  -11431986.07049 -14555574.82846                  23175778.0494
        44.7504         25.0004
  21609493.7204  -39965058.40249 -31123396.21147                  21609491.7324
        46.0004         36.0004
  20698228.8754  -58538813.44549 -45550824.82448                  20698225.2964
        46.0004         40.0004
  24470588.7424   -1713238.37149  -4932489.57046                  24470588.8274
        36.5004         14.7504
  23583318.2974  -63053627.86349 -49101167.10947                  23583318.1654
        45.0004         27.7504
  24514020.2364  -47012525.81649 -45761819.83646                  24514022.4284
        43.5004         23.0004
 04  8  4 21  4 30.0000000  0  8G20G 1G13G16G23G 4G25G11
  20192169.9224  -54890346.30549 -49584268.02048                  20192168.0654
        50.5004         41.7504
  20706798.1254  -68930730.89549 -53687339.07448                  20706797.5044
        47.2504         40.7504
  23158831.6624  -11521045.30549 -14624971.61346                  23158830.3394
        45.0004         25.0004
  21596761.5714  -40031967.00049 -31175532.78147                  21596760.0564
        47.0004         36.5004
  20685346.7554  -58606509.73049 -45603575.17248                  20685342.8584
        46.2504         40.0004
  24457572.7174   -1781646.66849  -4985794.75046                  24457571.1684
        37.0004         14.7504
  23581322.4444  -63064117.49249 -49109340.86347                  23581322.2684
        44.7504         27.0004
  24511810.9484  -47024136.81649 -45770867.43746                  24511813.0754
        42.2504         23.0004
 04  8  4 21  4 45.0000000  0  8G20G 1G13G16G23G 4G25G11
  20182885.6064  -54939134.95349 -49622285.16048                  20182883.9184
        49.2504         41.7504
  20696890.8714  -68982793.39149 -53727907.24648                  20696889.7444
        47.5004         40.5004
  23141887.1444  -11610088.01249 -14694355.52746                  23141885.7084
        44.5004         23.2504
  21584056.0964  -40098733.78149 -31227558.82847                  21584054.4554
        48.5004         36.5004
  20672474.6864  -58674152.38749 -45656283.73048                  20672471.1524
        45.7504         40.0004
  24444578.5294   -1849925.73448  -5038999.15646                  24444577.2574
        35.2504         14.7504
  23579329.4904  -63074594.27349 -49117504.62147                  23579328.3374
        44.5004         27.0004
  24509598.7814  -47035762.71949 -45779926.67246                  24509600.9884
        42.5004         22.2504
 04  8  4 21  5  0.0000000  0  8G20G 1G13G16G23G 4G25G11
  20173628.1754  -54987782.26249 -49660192.16048                  20173626.5324
        49.5004         41.7504
  20686992.6814  -69034808.87149 -53768438.79348                  20686991.6664
        47.7504         40.7504
  23124945.5584  -11699116.03149 -14763727.98446                  23124944.3314
        44.5004         25.5004
  21571377.4014  -40165360.39149 -31279475.65247                  21571376.0184
        45.7504         36.5004
  20659612.9924  -58741743.00049 -45708951.73848                  20659609.1944
        47.2504         40.2504
  24431609.9434   -1918077.26648  -5092104.29746                  24431607.7184
        35.5004         16.2504
  23577338.1064  -63085060.25449 -49125659.94147                  23577337.0724
        44.2504         27.7504
  24507383.3634  -47047405.36349 -45788998.94146                  24507385.4794
        43.7504         25.5004
 04  8  4 21  5 15.0000000  0  8G20G 1G13G16G23G 4G25G11
  20164398.0564  -55036288.99649 -49697989.62148                  20164396.0744
        50.0004         41.5004
  20677103.4774  -69086778.06649 -53808934.27048                  20677102.4224
        48.5004         41.0004
  23108006.8264  -11788130.10549 -14833089.57446                  23108005.7034
        44.5004         22.7504
  21558725.3404  -40231847.46549 -31331283.75447                  21558723.8294
        46.5004         36.2504
  20646760.5124  -58809282.47349 -45761579.89548                  20646757.0014
        48.0004         40.5004
  24418665.1204   -1986101.57048  -5145110.20746                  24418663.0544
        33.5004         16.2504
  23575347.6684  -63095516.38749 -49133807.58647                  23575348.0234
        45.2504         27.5004
  24505164.0494  -47059066.09849 -45798085.31246                  24505167.0284
        44.2504         24.0004
 04  8  4 21  5 30.0000000  0  8G20G 1G13G16G23G 4G25G11
  20155193.9854  -55084656.00049 -49735678.20748                  20155192.1054
        50.0004         42.0004
  20667222.5204  -69138701.98849 -53849394.46948                  20667221.5504
        49.0004         41.0004
  23091069.8954  -11877131.14849 -14902441.02746                  23091069.4604
        44.5004         22.5004
  21546099.5774  -40298195.88349 -31382983.80947                  21546097.8894
        47.7504         36.7504
  20633917.7534  -58876771.65649 -45814168.86348                  20633914.0384
        48.7504         39.7504
  24405745.6394   -2054000.09858  -5198018.14856                  24405743.0444
        35.5004         14.0004
  23573359.4364  -63105963.79349 -49141948.45347                  23573359.9104
        44.5004         26.7504
  24502940.8554  -47070746.14849 -45807186.75846                  24502944.4564
        43.2504         25.0004
 04  8  4 21  5 45.0000000  0  8G20G 1G13G16G23G 4G25G11
  20146016.8144  -55132883.10249 -49773257.77348                  20146014.8224
        49.2504         42.0004
  20657350.5654  -69190580.30949 -53889819.14548                  20657349.8054
        48.7504         40.7504
  23074137.0994  -11966118.84449 -14971782.09046                  23074135.7894
        46.2504         25.2504
  21533500.6004  -40364405.21149 -31434575.49247                  21533498.8184
        48.0004         37.0004
  20621084.6204  -58944210.20749 -45866718.39147                  20621080.7344
        47.7504         39.0004
  24392846.6994   -2121772.20358
        28.5004
  23571373.4614  -63116402.39149 -49150082.44947                  23571373.0264
        45.2504         26.5004
  24500715.7934  -47082445.66449 -45816303.32846                  24500717.9424
        44.5004         24.0004
 04  8  4 21  6  0.0000000  0  7G20G 1G13G16G23G25G11
  20136866.3594  -55180968.46149 -49810726.88748                  20136864.2164
        49.5004         41.5004
  20647487.3284  -69242411.20349 -53930206.84848                  20647486.5594
        47.2504         41.0004
  23057206.0054  -12055091.29349 -15041111.25447                  23057205.6164
        45.5004         27.0004
  21520928.0754  -40430473.45349 -31486057.23047                  21520926.3004
        48.0004         37.0004
  20608261.8394  -59011596.31249 -45919227.03548                  20608257.7344
        46.5004         40.2504
  23569389.2684  -63126830.64149 -49158208.38747                  23569388.4294
        45.2504         27.2504
  24498485.9204  -47094163.13749 -45825433.92646                  24498488.6994
        42.7504         23.0004
 04  8  4 21  6 15.0000000  0  7G20G 1G13G16G23G25G11
  20127742.9364  -55228912.27049 -49848085.71148                  20127740.9854
        49.5004         41.5004
  20637633.2174  -69294194.77049 -53970557.68048                  20637632.3984
        47.5004         41.0004
  23040278.2944  -12144048.72349 -15110428.70347                  23040277.0154
        45.0004         26.5004
  21508382.4334  -40496400.55949 -31537428.98047                  21508381.0954
        46.2504         37.0004
  20595448.6834  -59078930.14549 -45971694.96148                  20595444.5034
        47.7504         40.0004
  23567406.0414  -63137248.89849 -49166326.51247                  23567405.6664
        45.2504         26.5004
  24496252.0134  -47105898.99249 -45834578.85246                  24496255.6984
        42.0004         22.7504
 04  8  4 21  6 30.0000000  0  8G20G 1G13G16G23G 4G25G11
  20118646.9404  -55276710.89849 -49885331.40248                  20118645.2884
        50.5004         41.7504
  20627788.7084  -69345927.50049 -54010868.89848                  20627787.1334
        48.5004         40.7504
  23023353.4164  -12232987.81649 -15179731.83646                  23023352.4884
        44.2504         24.2504
  21495864.5524  -40562183.10549 -31588688.10247                  21495863.0114
        48.5004         36.7504
  20582645.9204  -59146208.09449 -46024119.34048                  20582642.3464
        47.7504         40.2504
  24354304.1974
        29.5004
  23565427.1444  -63147653.88749 -49174434.32847                  23565425.7464
        46.2504         26.7504
  24494016.9414  -47117650.10549 -45843735.69946                  24494019.0104
        43.0004         24.7504
 04  8  4 21  6 45.0000000  0  8G20G 1G13G16G23G 4G25G11
  20109578.8084  -55324366.51249 -49922465.64848                  20109576.5394
        49.5004         42.2504
  20617953.7084  -69397611.44149 -54051142.10248                  20617952.8874
        48.0004         40.5004
  23006432.0644  -12321910.47749 -15249022.19946                  23006431.4094
        43.5004         24.7504
  21483373.8494  -40627822.97349 -31639836.03947                  21483371.8214
        48.5004         37.0004
  20569853.5914  -59213432.18449 -46076501.74648                  20569849.7934
        47.0004         40.5004
  24341507.3664    -158923.87158
        34.2504
  23563448.7574  -63158047.87949 -49182533.54746                  23563447.7414
        45.0004         25.0004
  24491776.2784  -47129418.92649 -45852906.31246                  24491779.9174
        40.5004         22.2504
 04  8  4 21  7  0.0000000  0  8G20G 1G13G16G23G 4G25G11
  20100537.4964  -55371878.19149 -49959487.74648                  20100535.4424
        50.2504         41.7504
  20608127.8104  -69449245.75049 -54091376.62948                  20608127.2704
        49.0004         40.0004
  22989513.8564  -12410815.90249 -15318299.16446                  22989512.6204
        44.0004         23.0004
  21470910.1144  -40693319.13749 -31690872.00047                  21470908.2024
        48.7504         36.5004
  20557071.7534  -59280601.44149 -46128841.42648                  20557068.0604
        49.2504         40.7504
  24328733.6584    -226048.42248
        34.2504
  23561472.8704  -63168430.18749 -49190623.66847                  23561472.2084
        44.2504         26.5004
  24489534.6824  -47141204.88749 -45862090.24246                  24489537.0404
        40.5004         23.2504
 04  8  4 21  7 15.0000000  0  9G20G 1G13G16G23G 4G27G25G11
  20391316.5324  -55419242.58249 -49996395.07048                  20391315.0434
        49.7504         42.0004
  20898104.8624  -69500826.78549 -54131569.64548                  20898103.9924
        49.2504         40.2504
  23272392.7364  -12499697.92249 -15387557.83646                  23272391.6914
        44.5004         23.7504
  21758267.2124  -40758666.96549 -31741792.37947                  21758265.3324
        48.7504         36.5004
  20844093.5474  -59347711.19949 -46181134.74248                  20844089.9914
        48.5004         40.5004
  24615778.5604    -293037.93448
        34.0004
  24886406.2454     -47862.14859
        37.7504
  23859291.4684  -63178800.22349 -49198704.24247                  23859291.0094
        43.7504         27.0004
  24787081.1024  -47153007.49649 -45871287.15246                  24787083.5014
        41.5004         24.7504
 04  8  4 21  7 30.0000000  0  9G20G 1G13G16G23G 4G27G25G11
  20382330.8244  -55466464.31249 -50033191.23048                  20382328.6594
        50.5004         42.2504
  20888298.5914  -69552359.75849 -54171725.21548                  20888297.5364
        48.0004         40.0004
  23255480.6834  -12588566.84049 -15456806.30546                  23255480.2234
        43.7504         24.5004
  21745859.6004  -40823873.38749 -31792602.57447                  21745857.0384
        50.5004         36.2504
  20831333.1634  -59414768.82449 -46233387.43448                  20831329.4344
        46.2504         40.5004
  24603054.7804    -359899.75849
        37.0004
  24868412.4274    -142419.93449    -81458.48856                  24868416.0864
        37.5004         20.5004
  23857321.0594  -63189157.83249 -49206775.14547                  23857320.1664
        45.0004         26.5004
  24784831.5774  -47164826.95349 -45880497.18046                  24784834.4284
        42.2504         22.7504
 04  8  4 21  7 45.0000000  0  9G20G 1G13G16G23G 4G27G25G11
  20373372.2294  -55513540.30949 -50069873.82048                  20373370.7424
        49.7504         41.5004
  20878502.0374  -69603841.25849 -54211840.66048                  20878501.1124
        49.0004         40.5004
  23238573.0854  -12677416.59049 -15526039.87146                  23238572.9914
        43.2504         25.2504
  21733478.4744  -40888933.93049 -31843299.09447                  21733476.2534
        48.0004         36.7504
  20818583.1204  -59481769.75449 -46285595.94548                  20818579.5794
        47.2504         40.2504
  24590355.8584
        31.2504
  24850427.6884    -236933.38749   -155105.21946                  24850430.4974
        38.5004         21.5004
  23855352.6254  -63199502.58249 -49214835.97746                  23855351.4054
        44.5004         25.2504
  24782579.4354  -47176662.73049 -45889719.94546                  24782583.2004
        40.5004         23.0004
 04  8  4 21  8  0.0000000  0  9G20G 1G13G16G23G 4G27G25G11
  20364441.5434  -55560472.71149 -50106444.54348                  20364439.6604
        50.2504         42.0004
  20868714.5964  -69655273.35949 -54251917.63348                  20868713.3994
        48.5004         40.5004
  23221669.8654  -12766249.39149 -15595260.23447                  23221667.9584
        44.0004         28.0004
  21721125.1864  -40953850.62949 -31893883.52747                  21721123.2474
        49.7504         36.5004
  20805843.6384  -59548716.07449 -46337761.90248                  20805839.9674
        47.2504         40.5004
  24577682.8074    -493228.67648
        34.7504
  24832449.8324    -331404.33649   -228718.85546                  24832452.7874
        39.5004         21.7504
  23853386.1594  -63209836.81649 -49222888.65646                  23853385.0284
        43.5004         25.0004
  24780323.2384  -47188517.37149 -45898957.41046                  24780326.8474
        38.7504         20.0004
 04  8  4 21  8 15.0000000  0  9G20G 1G13G16G23G 4G27G25G11
  20355537.5324  -55607264.17649 -50142905.43448                  20355535.8774
        50.0004         41.7504
  20858936.3534  -69706658.68049 -54291958.13748                  20858935.5084
        48.2504         40.5004
  23204767.2194  -12855067.97349 -15664469.46546                  23204766.7804
        44.0004         24.5004
  21708798.8964  -41018626.08249 -31944357.89147                  21708797.4294
        49.0004         37.2504
  20793113.9654  -59615610.35949 -46389887.32048                  20793110.1934
        47.5004         40.7504
  24565033.0964    -559700.39148
        35.2504
  24814480.5024    -425835.52749   -302301.54746                  24814482.7694
        39.2504         21.5004
  23851420.8934  -63220163.44149 -49230935.41446                  23851419.1404
        44.0004         25.5004
  24778063.8024  -47200393.77049 -45908211.82046                  24778067.1814
        39.0004         19.5004
 04  8  4 21  8 30.0000000  0  9G20G 1G13G16G23G 4G27G25G11
  20346661.0164  -55653911.35549 -50179253.88748                  20346659.1904
        50.0004         42.0004
  20849167.7394  -69757993.81249 -54331959.54748                  20849166.8344
        49.0004         41.2504
  23187868.7454  -12943868.79749 -15733664.89547                  23187868.3494
        43.0004         26.0004
  21696500.2314  -41083256.62149 -31994719.33247                  21696497.8834
        49.0004         37.0004
  20780395.1004  -59682449.22349 -46441969.53948                  20780391.3764
        48.0004         40.5004
  24552409.5984    -626041.36348
        34.2504
  24796518.5144    -520223.53549   -375850.57846                  24796521.8614
        37.2504         22.5004
  23849458.0964  -63230479.31249 -49238973.77046                  23849456.5434
        44.2504         25.0004
  24775800.3844  -47212289.02749 -45917480.91846                  24775803.9154
        38.0004         19.5004
 04  8  4 21  8 45.0000000  0  9G20G 1G13G16G23G 4G27G25G11
  20337811.5954  -55700416.59049 -50215491.74248                  20337809.2964
        50.0004         42.0004
  20839408.1324  -69809281.21149 -54371923.74648                  20839407.1484
        49.5004         41.0004
  23170973.4084  -13032654.47349 -15802848.49247                  23170972.9864
        43.2504         26.0004
  21684228.5614  -41147744.63349 -32044969.72347                  21684226.5314
        49.0004         36.5004
  20767685.8254  -59749235.06249 -46494010.45348                  20767682.3974
        48.0004         39.7504
  24539809.2454    -692253.66048
        34.5004
  24778565.3034    -614570.60949   -449367.67646                  24778568.1114
        40.2504         21.7504
  23847497.0614  -63240786.91049 -49247005.68047                  23847495.3944
        45.0004         25.7504
  24773532.6954  -47224205.75849 -45926766.77046                  24773535.7234
        40.2504         19.0004
 04  8  4 21  9  0.0000000  0  9G20G 1G13G16G23G 4G27G25G11
  20328988.4694  -55746778.13349 -50251617.62548                  20328986.8754
        50.0004         42.0004
  20829658.0754  -69860519.03549 -54411849.33648                  20829656.9974
        48.7504         41.0004
  23154081.4744  -13121423.04349 -15872018.80146                  23154081.4234
        42.0004         24.2504
  21671984.3374  -41212088.31249 -32095107.64147                  21671982.0184
        49.0004         37.0004
  20754987.5634  -59815965.91049 -46546008.51248                  20754983.6874
        47.7504         40.5004
  24527234.8704    -758335.61349
        36.0004
  24760619.7134    -708875.13349   -522851.64846                  24760622.8614
        38.0004         21.7504
  23845537.4984  -63251084.84449 -49255030.05546                  23845535.3914
        44.2504         25.2504
  24771261.4224  -47236142.58649 -45936068.26246                  24771263.7734
        40.0004         19.0004
 04  8  4 21  9 15.0000000  0  9G20G 1G13G16G23G 4G27G25G11
  20320194.2084  -55792995.46549 -50287631.13748                  20320192.0044
        50.5004         42.0004
  20819917.2104  -69911706.76649 -54451735.87148                  20819916.3074
        49.7504         41.0004
  23137192.9524  -13210174.01249 -15941175.36746                  23137191.7514
        43.0004         23.0004
  21659767.4164  -41276286.96149 -32145132.55547                  21659765.6184
        49.2504         37.0004
  20742299.4904  -59882641.39549 -46597963.42248                  20742295.9864
        48.7504         40.0004
  24514684.3864    -824286.75449
        36.0004
  24742682.7044    -803136.28949   -596301.82446                  24742685.6934
        39.7504         22.2504
  23843578.4954  -63261372.63349 -49263046.53946                  23843578.5164
        44.0004         25.0004
  24768985.7024  -47248099.41449 -45945385.35546                  24768987.3694
        39.5004         17.5004
 04  8  4 21  9 30.0000000  0  9G20G 1G13G16G23G 4G27G25G11
  20311426.9064  -55839066.28549 -50323530.47748                  20311424.9734
        49.5004         41.5004
  20810186.5344  -69962842.09849 -54491581.58648                  20810185.4024
        47.0004         41.0004
  23120307.6884  -13298905.05949 -16010316.43746                  23120306.6794
        42.7504         23.0004
  21647578.5614  -41340338.26649 -32195042.64847                  21647576.7434
        49.0004         36.5004
  20729622.6574  -59949259.02349 -46649873.26248                  20729618.9254
        45.5004         40.2504
  24502160.0614    -890104.77049
        38.5004
  24724754.0624    -897351.93749   -669716.55946                  24724757.1944
        41.0004         22.7504
  23841623.8664  -63271648.35549 -49271053.60947                  23841622.8424
        44.0004         26.5004
  24766707.1634  -47260074.21949 -45954716.39146                  24766708.8314
        40.5004         17.5004
 04  8  4 21  9 45.0000000  0  8G20G 1G13G16G23G 4G27G25
  20302687.6774  -55884990.41449 -50359315.52348                  20302686.3714
        49.2504         41.5004
  20800465.7264  -70013924.66049 -54531386.18748                  20800465.0004
        49.2504         41.0004
  23103427.2974  -13387615.79349 -16079441.68046                  23103426.0984
        43.2504         24.2504
  21635418.3464  -41404241.73849 -32244837.55547                  21635416.8454
        48.7504         37.5004
  20716956.9204  -60015818.48449 -46701737.77748                  20716953.2944
        48.0004         40.5004
  24489661.0054    -955789.24248
        34.7504
  24706833.1574    -991521.58649   -743095.41046                  24706836.3014
        40.2504         22.7504
  23839670.7394  -63281911.80149 -49279051.11347                  23839670.2434
        43.5004         26.2504
 04  8  4 21 10  0.0000000  0  8G20G 1G13G16G23G 4G27G25
  20293977.0364  -55930764.03549 -50394983.28948                  20293975.9284
        49.2504         41.5004
  20790755.6584  -70064950.75849 -54571146.78548                  20790755.0264
        48.2504         40.7504
  23086550.3604  -13476302.64549 -16148548.30146                  23086549.3294
        44.0004         25.0004
  21623287.2534  -41467993.61349 -32294514.32847                  21623285.4564
        49.5004         37.0004
  20704302.8044  -60082315.97749 -46753553.99248                  20704298.7804
        46.2504         40.5004
  24477187.2334   -1021336.58649
        38.7504
  24688922.8754   -1085641.46949   -816435.53146                  24688925.8074
        40.2504         22.5004
  23837720.3714  -63292159.43749 -49287036.30546                  23837720.1184
        42.2504         25.5004
 04  8  4 21 10 15.0000000  0  8G20G 1G13G16G23G 4G27G25
  20285295.0674  -55976389.37149 -50430535.50848                  20285292.9914
        49.2504         41.2504
  20781056.1454  -70115922.43749 -54610864.98048                  20781055.3994
        48.5004         41.0004
  23069677.8074  -13564967.65249 -16217637.89146                  23069677.1684
        43.2504         22.2504
  21611184.0004  -41531595.86749 -32344074.52047                  21611181.9594
        50.0004         36.7504
  20691660.3064  -60148753.68049 -46805323.62948                  20691656.1034
        47.7504         40.5004
  24464739.3994   -1086748.82049  -6078785.73856                  24464737.4764
        40.5004         17.7504
  24671021.2684   -1179713.74649   -889738.53546                  24671024.3084
        38.5004         22.2504
  23835772.6554  -63302393.54749 -49295010.95346                  23835772.6434
        42.5004         24.2504
 04  8  4 21 10 30.0000000  0  8G20G 1G13G16G23G 4G27G25
  20276641.4424  -56021863.72749 -50465970.07848                  20276639.7674
        49.5004         41.2504
  20771367.5304  -70166836.96949 -54650538.63348                  20771366.6364
        48.2504         40.7504
  23052809.8304  -13653608.14849 -16286708.39546                  23052809.0354
        44.0004         25.5004
  21599109.3754  -41595045.69949 -32393515.93747                  21599107.7164
        48.2504         37.0004
  20679029.3244  -60215128.82049 -46857044.51648                  20679025.5744
        47.2504         40.5004
  24452319.7564   -1152023.14148  -6129648.87146                  24452317.6154
        35.5004         17.7504
  24653130.1884   -1273735.64549   -963002.25046                  24653132.8994
        39.7504         21.5004
  23833828.6564  -63312611.82849 -49302973.28546                  23833828.0004
        43.7504         24.7504
 04  8  4 21 10 45.0000000  0  8G20G 1G13G16G23G 4G27G25
  20268017.2704  -56067186.70349 -50501286.69148                  20268015.1154
        50.0004         41.2504
  20761689.5004  -70217693.91449 -54690167.43748                  20761689.0084
        49.7504         40.5004
  23035947.5214  -13742223.70749 -16355759.44946                  23035946.3394
        45.0004         24.5004
  21587064.7944  -41658342.61349 -32442838.19547                  21587062.6584
        49.5004         36.5004
  20666410.7344  -60281440.86349 -46908716.23848                  20666406.7414
        49.2504         40.5004
  24439923.7664   -1217159.28549  -6180404.32846                  24439922.6044
        39.5004         18.2504
  24635248.2544   -1367706.77349  -1036226.43446                  24635251.2424
        41.0004         23.0004
  23831886.4394  -63322814.00849 -49310923.04747                  23831887.0034
        43.5004         26.0004
 04  8  4 21 11  0.0000000  0  8G20G 1G13G16G23G 4G27G25
  20259421.7474  -56112356.59049 -50536484.01248                  20259419.6454
        50.0004         41.5004
  20752022.8554  -70268491.62949 -54729750.07048                  20752022.3914
        47.2504         41.0004
  23019089.1104  -13830812.64149 -16424789.78546                  23019088.4054
        44.2504         23.5004
  21575049.0254  -41721484.79349 -32492039.89147                  21575047.3944
        49.2504         36.5004
  20653804.4634  -60347688.07849 -46960337.43748                  20653800.1314
        46.5004         40.0004
  24427555.8404   -1282155.57049  -6231050.75046                  24427554.6404
        38.2504         18.2504
  24617375.6824   -1461625.24649  -1109409.59846                  24617378.5714
        39.5004         22.2504
  23829948.9524  -63332998.54349 -49318859.07847                  23829949.1264
        42.5004         26.5004
 04  8  4 21 11 15.0000000  0  8G20G 1G13G16G23G 4G27G25
  20250855.3914  -56157373.39149 -50571562.04748                  20250853.2944
        49.7504         41.7504
  20742367.9444  -70319230.09449 -54769286.53948                  20742367.1784
        48.5004         40.7504
  23002236.0444  -13919375.03949 -16493799.39846                  23002235.7934
        44.5004         25.2504
  21563062.8844  -41784472.22349 -32541120.98847                  21563061.4294
        49.7504         36.2504
  20641210.3834  -60413870.47349 -47011908.13748                  20641206.7074
        47.2504         40.5004
  24415213.4174   -1347011.86749  -6281588.13746                  24415213.2684
        40.5004         18.5004
  24599513.0804   -1555490.99249  -1182551.66846                  24599516.0204
        39.0004         21.0004
  23828014.7864  -63343165.66449 -49326781.52346                  23828014.3664
        43.5004         25.5004
 04  8  4 21 11 30.0000000  0  8G20G 1G13G16G23G 4G27G25
  20242316.5734  -56202243.56249 -50606525.83248                  20242314.7174
        49.5004         41.0004
  20732723.1144  -70369915.69149 -54808781.81248                  20732721.7014
        49.7504         40.5004
  22985387.2694  -14007917.18049 -16562793.25447                  22985387.1484
        44.0004         25.7504
  21551104.8734  -41847311.13349 -32590086.36347                  21551103.5074
        49.2504         37.0004
  20628627.2974  -60479994.46149 -47063433.31648                  20628623.6834
        48.2504         40.5004
  24402897.3504   -1411734.86349  -6332021.66446                  24402897.0454
        39.5004         18.5004
  24581660.0984   -1649310.55149  -1255657.71946                  24581662.8754
        39.7504         21.0004
  23826082.2134  -63353321.97349 -49334695.54346                  23826081.1354
        42.7504         25.5004
 04  8  4 21 11 45.0000000  0  8G20G 1G13G16G23G 4G27G25
  20233806.3874  -56246965.11349 -50641373.79348                  20233804.5234
        49.5004         41.5004
  20723088.2224  -70420546.34049 -54848234.27048                  20723087.3334
        49.7504         40.5004
  22968542.6524  -14096437.08649 -16631769.77346                  22968541.7224
        44.7504         25.5004
  21539176.0014  -41909999.46149 -32638934.39547                  21539173.9044
        49.5004         36.7504
  20616055.3964  -60546057.95749 -47114911.35948                  20616051.8844
        49.0004         40.5004
  24390606.9744   -1476322.26249  -6382349.49646                  24390607.2464
        39.2504         19.5004
  24563815.7014   -1743081.81649  -1328726.16046                  24563818.5794
        39.0004         20.0004
  23824152.0214  -63363465.73049 -49342599.79747                  23824150.7784
        43.5004         26.7504
 04  8  4 21 12  0.0000000  0  8G20G 1G13G16G23G 4G27G25
  20225324.3904  -56291537.37949 -50676105.43748                  20225322.6134
        49.5004         42.0004
  20713463.9854  -70471121.48049 -54887643.47748                  20713463.1924
        47.5004         40.5004
  22951702.1364  -14184934.14549 -16700728.50446                  22951700.0544
        44.2504         24.0004
  21527275.1934  -41972536.46549 -32687664.52347                  21527273.4774
        49.2504         36.5004
  20603495.6534  -60612060.16049 -47166341.64548                  20603492.2174
        46.2504         40.0004
  24378342.8784   -1540773.44949  -6432571.21546                  24378342.8804
        40.2504         17.7504
  24545980.8424   -1836804.04749  -1401756.44546                  24545983.3764
        39.2504         19.5004
  23822223.7744  -63373596.47749 -49350493.89847                  23822223.5444
        44.0004         28.0004
 04  8  4 21 12 15.0000000  0  8G20G 1G13G16G23G 4G27G25
  20216870.5944  -56335963.00849 -50710722.81248                  20216868.9614
        49.7504         41.7504
  20703849.9694  -70521643.61349 -54927011.36748                  20703849.2764
        50.0004         40.7504
  22934865.9184  -14273410.81249 -16769671.32446                  22934864.6974
        45.0004         24.7504
  21515403.4924  -42034924.60949 -32736278.64547                  21515401.3674
        49.2504         36.5004
  20590947.6334  -60678003.61749 -47217726.16048                  20590943.6284
        48.7504         40.5004
  24366103.0584   -1605090.98449  -6482688.81646                  24366103.6844
        40.0004         18.5004
  24528154.5814   -1930479.69949  -1474750.33646                  24528157.1844
        37.5004         18.2504
  23820297.4274  -63383716.94549 -49358380.01247                  23820298.2664
        43.7504         27.5004
 04  8  4 21 12 30.0000000  0  8G20G 1G13G16G23G 4G27G25
  20208444.8984  -56380241.96949 -50745225.91848                  20208442.9404
        49.7504         41.0004
  20694245.9624  -70572112.64549 -54966337.89548                  20694245.2264
        50.0004         40.5004
  22918033.3134  -14361867.02349 -16838598.21946                  22918032.3644
        45.0004         25.5004
  21503560.3104  -42097163.74649 -32784776.67247                  21503557.3914
        49.7504         36.7504
  20578410.0584  -60743888.30949 -47269064.87548                  20578406.0684
        48.7504         40.5004
  24353889.2804   -1669274.91049  -6532702.23446                  24353890.0704
        41.2504         19.5004
  24510337.7204   -2024108.80149  -1547708.02746                  24510340.3854
        37.5004         18.2504
  23818374.0694  -63393827.30949 -49366258.24647                  23818373.5324
        44.5004         27.2504
 04  8  4 21 12 45.0000000  0  8G20G 1G13G16G23G 4G27G25
  20200046.2644  -56424377.12549 -50779616.95348                  20200044.2794
        49.0004         41.2504
  20684651.6954  -70622531.31649 -55005625.17248                  20684650.6114
        47.7504         41.0004
  22901203.7964  -14450305.60949 -16907511.38346                  22901202.7744
        44.0004         24.5004
  21491744.4684  -42159256.60249 -32833160.69947                  21491742.0864
        50.0004         37.0004
  20565883.1984  -60809716.92649 -47320359.88748                  20565879.2214
        46.0004         40.5004
  24341700.2584   -1733327.91849  -6582613.68446                  24341701.0434
        40.5004         18.2504
  24492529.0974   -2117694.10948  -1620631.55546                  24492531.7314
        35.7504         17.5004
  23816451.6144  -63403930.48449 -49374130.85547                  23816450.8934
        44.0004         26.0004
 04  8  4 21 13  0.0000000  0  8G20G 1G13G16G23G 4G27G25
  20191674.7094  -56468369.85549 -50813897.01248                  20191672.8484
        48.2504         41.5004
  20675066.4484  -70672900.91849 -55044874.21948                  20675065.6904
        47.5004         40.7504
  22884377.3944  -14538727.85949 -16976411.81646                  22884375.5674
        43.2504         25.5004
  21479955.4464  -42221204.38749 -32881431.69147                  21479953.6584
        50.0004         37.0004
  20553366.3964  -60875490.76649 -47371612.23448                  20553362.7654
        46.0004         40.5004
  24329536.3424   -1797251.49249  -6632424.29746                  24329537.1444
        40.5004         17.0004
  24474728.3304                                                   24474731.5054
        36.7504         14.7504
  23814530.2184  -63414028.01649 -49381999.07047                  23814529.6834
        44.0004         26.7504
 04  8  4 21 13 15.0000000  0  8G20G 1G13G16G23G 4G27G25
  20183330.0714  -56512219.50849 -50848065.57848                  20183328.3734
        48.5004         41.5004
  20665491.4394  -70723220.87149 -55084084.57448                  20665490.1874
        50.5004         40.7504
  22867555.0094  -14627133.17249 -17045299.04347                  22867552.7434
        44.2504         26.0004
  21468195.0954  -42283006.51649 -32929589.18047                  21468192.8504
        49.7504         36.2504
  20540860.8274  -60941209.21149 -47422821.41048                  20540857.0194
        49.0004         40.7504
  24317396.3164   -1861045.07849  -6682133.59046                  24317398.3424
        40.0004         19.0004
  24456934.9974   -2304736.30548  -1766378.57846                  24456938.8694
        35.5004         16.2504
  23812610.0744  -63424119.64549 -49389862.70347                  23812609.7124
        44.5004         27.0004
 04  8  4 21 13 30.0000000  0  8G20G 1G13G16G23G 4G27G25
  20175013.1454  -56555926.12949 -50882122.69148                  20175011.3594
        48.5004         42.0004
  20655924.9754  -70773491.26249 -55123256.30948                  20655924.1574
        50.0004         41.2504
  22850734.9134  -14715521.59049 -17114173.09547                  22850733.5924
        43.0004         26.2504
  21456462.4634  -42344662.99649 -32977633.18047                  21456460.4224
        49.5004         36.7504
  20528365.4304  -61006872.21549 -47473987.38348                  20528361.6724
        48.0004         41.0004
  24305281.6054   -1924708.51249  -6731741.41046                  24305283.0534
        39.2504         17.5004
  24439151.2034   -2398192.59449  -1839201.61346                  24439154.5624
        39.0004         16.2504
  23810690.2114  -63434205.48849 -49397721.81647                  23810690.4754
        44.0004         26.2504
 04  8  4 21 13 45.0000000  0  8G20G 1G13G16G23G 4G27G25
  20166722.8214  -56599490.56249 -50916069.01248                  20166721.5614
        48.0004         41.2504
  20646368.2024  -70823712.82049 -55162389.99248                  20646367.4544
        48.2504         41.0004
  22833917.8594  -14803893.88749 -17183034.60247                  22833916.4214
        43.0004         26.0004
  21444757.1134  -42406174.45349 -33025564.17247                  21444755.0014
        48.2504         36.5004
  20515880.9824  -61072480.52049 -47525110.73048                  20515877.1194
        48.2504         40.7504
  24293191.3874   -1988242.71149  -6781248.59046                  24293192.1034
        39.2504         15.5004
  24421374.7154   -2491606.49649  -1911991.57046                  24421377.5654
        38.5004         17.0004
  23808771.9324  -63444286.57849 -49405577.22346                  23808771.2534
        44.5004         24.7504
 04  8  4 21 14  0.0000000  0  8G20G 1G13G16G23G 4G27G25
  20158460.0104  -56642912.43049 -50949904.23848                  20158458.3724
        47.5004         41.2504
  20636820.8304  -70873885.04749 -55201485.23448                  20636819.9144
        48.7504         40.2504
  22817104.7314  -14892249.62149 -17251883.22747                  22817103.3664
        42.2504         26.5004
  21433079.2424  -42467540.25849 -33073381.67647                  21433077.2954
        48.0004         36.7504
  20503406.6874  -61138033.54749 -47576191.00448                  20503402.7944
        47.7504         40.0004
  24281126.0764   -2051647.23449  -6830654.72346                  24281126.6494
        38.7504         16.2504
  24403609.0054   -2584977.45349  -1984748.03146                  24403609.9434
        41.0004         18.2504
  23806854.5434  -63454362.53149 -49413428.62147                  23806854.0614
        43.5004         26.0004
 04  8  4 21 14 15.0000000  0  8G20G 1G13G16G23G 4G27G25
  20150224.6624  -56686190.58249 -50983627.47748                  20150222.6774
        48.7504         41.2504
  20627282.9734  -70924006.59849 -55240540.99248                  20627282.0954
        48.7504         40.7504
  22800294.4264  -14980587.47349 -17320717.85546                  22800292.9494
        43.2504         25.2504
  21421429.8834  -42528759.09849 -33121084.64547                  21421428.2054
        49.2504         36.5004
  20490943.0794  -61203530.06649 -47627227.25448                  20490938.7794
        48.0004         40.5004
  24269085.5274   -2114920.89849  -6879958.89846                  24269086.1284
        37.5004         14.7504
  24385848.4354   -2678304.21549  -2057470.19146                  24385850.4464
        41.2504         19.2504
  23804938.4294  -63464432.36749 -49421275.28947                  23804937.5874
        44.5004         26.0004
 04  8  4 21 14 30.0000000  0  8G20G 1G13G16G23G 4G27G25
  20142016.2204  -56729324.68749 -51017238.47748                  20142014.6614
        48.5004         41.2504
  20617754.5564  -70974077.23049 -55279557.07448                  20617753.7824
        48.5004         40.5004
  22783487.4224  -15068907.16049 -17389538.36746                  22783485.5004
        42.5004         25.5004
  21409808.1424  -42589830.73449 -33168672.91847                  21409806.6394
        50.0004         36.5004
  20478489.9984  -61268969.71949 -47678219.18448                  20478486.0814
        47.5004         41.0004
  24257069.8484   -2178063.32449  -6929160.78946                  24257069.9584
        39.5004         14.0004
  24368097.1644   -2771586.33249  -2130157.48046                  24368099.7934
        41.5004         20.0004
  23803023.8124  -63474496.00849 -49429117.11347                  23803023.1984
        44.5004         26.5004
 04  8  4 21 14 45.0000000  0  8G20G 1G13G16G23G 4G27G25
  20433629.0824  -56772310.39549 -51050733.85248                  20433627.1834
        49.2504         41.5004
  20908029.7564  -71024092.07849 -55318529.68048                  20908028.9934
        48.5004         40.2504
  23066478.1254  -15157201.12549 -17458338.83247                  23066477.0854
        43.2504         26.0004
  21698008.2094  -42650749.43749 -33216142.03547                  21698006.2574
        50.2504         36.7504
  20765842.0284  -61334346.74249 -47729162.32048                  20765837.7634
        47.5004         40.7504
  24544872.6554   -2241068.83649  -6978256.00046                  24544872.7614
        38.2504         15.5004
  24650148.8244   -2864816.18449  -2202804.05946                  24650151.1704
        41.5004         20.5004
  24100902.6014  -63484551.50849 -49436952.57447                  24100901.5194
        44.7504         27.0004
 04  8  4 21 15  0.0000000  0  8G20G 1G13G16G23G 4G27G25
  20425476.6794  -56815152.39849 -51084117.23448                  20425474.8574
        47.0004         41.0004
  20898522.0124  -71074056.66049 -55357463.12948                  20898521.0164
        47.5004         41.0004
  23049679.4604  -15245480.29349 -17527127.77346                  23049677.5864
        42.0004         24.7504
  21686443.6584  -42711522.19549 -33263497.41447                  21686441.6624
        47.5004         36.7504
  20753411.5414  -61399668.48049 -47780062.37548                  20753407.9004
        46.7504         40.5004
  24532907.6594   -2303944.86349  -7027250.29746                  24532906.2234
        36.2504         16.2504
  24632415.5304   -2958004.90649  -2275418.62546                  24632417.4094
        40.5004         21.7504
  24098990.5784  -63494599.24649 -49444782.00047                  24098990.2104
        42.7504         25.7504
 04  8  4 21 15 15.0000000  0  8G20G 1G13G16G23G 4G27G25
  20417351.9134  -56857847.55949 -51117386.19548                  20417349.9814
        49.0004         41.5004
  20889024.4364  -71123967.21549 -55396354.45348                  20889023.5844
        49.7504         40.2504
  23032884.8344  -15333738.25849 -17595900.20347                  23032882.9914
        42.7504         26.0004
  21674907.5484  -42772144.41849 -33310735.50847                  21674905.5024
        49.5004         36.5004
  20740992.8244  -61464930.20749 -47830915.66848                  20740988.4874
        48.2504         40.5004
  24520968.3494   -2366686.78149  -7076140.09846                  24520967.1844
        36.2504         15.5004
  24614691.0984   -3051145.93749  -2347995.95346                  24614694.1004
        41.0004         23.0004
  24097079.9794  -63504638.45749 -49452604.77046                  24097079.6904
        43.2504         25.2504
 04  8  4 21 15 30.0000000  0  8G20G 1G13G16G23G 4G27G25
  20409255.0544  -56900397.18749 -51150541.75448                  20409253.0354
        48.5004         41.0004
  20879536.3684  -71173825.10549 -55435204.77048                  20879535.2664
        48.2504         40.5004
  23016093.4684  -15421976.47349 -17664657.22747                  23016091.6914
        43.7504         25.7504
  21663399.8884  -42832617.50449 -33357857.38747                  21663398.0634
        49.5004         37.0004
  20728585.1714  -61530133.18749 -47881723.18048                  20728580.9614
        46.5004         41.2504
  24509054.4294   -2429295.84049  -7124926.39546                  24509053.9154
        37.0004         15.5004
  24596974.9304   -3144240.66849  -2420537.25446                  24596979.2914
        40.7504         23.0004
  24095171.0654  -63514670.73449 -49460422.16847                  24095170.8964
        44.0004         26.7504
 04  8  4 21 15 45.0000000  0  8G20G 1G13G16G23G 4G27G25
  20401185.7774  -56942800.72749 -51183583.48048                  20401184.1774
        49.2504         40.5004
  20870058.8884  -71223629.64849 -55474013.50448                  20870057.8974
        49.0004         40.7504
  22999305.8364
        39.7504
  21651920.6594  -42892940.67249 -33404862.43747                  21651919.1574
        48.0004         36.7504
  20716188.6634  -61595276.79349 -47932484.42648                  20716184.6674
        47.5004         41.2504
  24497167.1324                                                   24497163.9484
        36.0004         16.2504
  24579268.9834                                                   24579272.4034
        38.2504         21.2504
  24093263.6834  -63524695.48849 -49468233.68447                  24093263.5314
        41.5004         27.0004
 04  8  4 21 16  0.0000000  0  8G20G 1G13G16G23G 4G27G25
  20393144.8994  -56985056.53949 -51216510.09848                  20393143.0884
        49.5004         40.7504
  20860592.0054  -71273379.17249 -55512779.37948                  20860591.0074
        49.0004         41.0004
  22982522.7224  -15598387.55149 -17802119.91056                  22982521.9364
        43.2504         25.2504
  21640470.7364  -42953112.20349 -33451749.34847                  21640468.7704
        49.5004         37.5004
  20703804.0304  -61660359.24249 -47983198.01648                  20703799.7554
        47.5004         40.5004
  24485302.8444   -2554118.16849  -7222190.89546                  24485301.3774
        36.2504         17.0004
  24561572.4704   -3330288.27349  -2565509.47746                  24561575.1254
        41.0004         22.5004
  24091357.1794  -63534711.32449 -49476038.25447                  24091357.1854
        43.5004         26.2504
 04  8  4 21 16 15.0000000  0  8G20G 1G13G16G23G 4G27G25
  20385131.8164  -57027164.78549 -51249321.73048                  20385129.9974
        49.5004         41.5004
  20851135.6704  -71323073.77049 -55551502.43748                  20851134.0794
        49.5004         40.7504
  22965744.1754  -15686560.85549 -17870826.34847                  22965742.9054
        43.2504         25.7504
  21629049.0694  -43013132.28549 -33498518.23447                  21629047.5244
        49.5004         37.2504
  20691430.6914  -61725380.73449 -48033864.11748                  20691426.3414
        48.0004         40.7504
  24473465.6654   -2616323.91449  -7270662.93046                  24473464.9194
        38.0004         17.5004
  24543884.4474   -3423238.52349  -2637938.17646                  24543888.0454
        43.0004         24.7504
  24089453.0994  -63544718.50049 -49483836.06646                  24089451.9014
        43.7504         25.2504
 04  8  4 21 16 30.0000000  0  8G20G 1G13G16G23G 4G27G25
  20377146.4624  -57069126.77049 -51282019.38748                  20377144.6684
        49.5004         41.5004
  20841689.1214  -71372714.63349 -55590183.64148                  20841688.2374
        50.2504         40.7504
  22948969.2324  -15774713.33649 -17939516.58247                  22948967.8094
        44.7504         26.2504
  21617656.1594  -43073001.93049 -33545169.89547                  21617654.3004
        49.5004         36.7504
  20679068.8654  -61790342.34449 -48084483.55148                  20679065.0224
        49.0004         40.5004
  24461653.2084   -2678396.07049  -7319030.88746                  24461653.9004
        38.0004         17.0004
  24526205.4704   -3516141.35249  -2710329.91447                  24526208.5354
        42.0004         26.0004
  24087550.7634  -63554718.47749 -49491628.27746                  24087549.8404
        43.7504         25.5004
 04  8  4 21 16 45.0000000  0  8G20G 1G13G16G23G 4G27G25
  20369190.0374  -57110941.07049 -51314601.96148                  20369188.4454
        49.2504         41.2504
  20832253.3104  -71422300.18449 -55628821.72748                  20832252.2934
        50.0004         41.0004
  22932198.5564  -15862843.51249 -18008189.42246                  22932196.6764
        45.7504         25.5004
  21606292.4284  -43132719.64849 -33591703.16847                  21606290.5644
        50.2504         36.7504
  20666718.7284  -61855242.60949 -48135055.17648                  20666714.4324
        49.0004         40.7504
  24449867.5754   -2740333.29749  -7367293.64146                  24449867.6584
        38.0004         18.5004
  24508535.5924   -3608995.18049  -2782683.43747                  24508539.2744
        41.5004         26.0004
  24085648.6344  -63564709.88349 -49499413.80947                  24085649.0224
        43.2504         27.5004
 04  8  4 21 17  0.0000000  0  8G20G 1G13G16G23G 4G27G25
  20361261.4744  -57152605.37549 -51347067.66448                  20361259.8674
        49.7504         41.5004
  20822828.1664  -71471828.05949 -55667414.87148                  20822827.9724
        50.5004         40.0004
  22915432.3424  -15950948.85549 -18076842.89546                  22915430.9374
        43.7504         25.5004
  21594957.7564  -43192282.93449 -33638116.11747                  21594956.0974
        49.2504         37.0004
  20654380.7244  -61920078.96949 -48185577.02048                  20654377.2824
        49.0004         40.7504
  24438107.0064   -2802132.91849  -7415449.20746                  24438107.7204
        37.5004         18.5004
  24490876.1734   -3701797.53149  -2854996.89847                  24490879.5744
        41.0004         26.0004
  24083750.0224  -63574690.55549 -49507190.97746                  24083749.6644
        43.0004         25.0004
 04  8  4 21 17 15.0000000  0  8G20G 1G13G16G23G 4G27G25
  20353362.1094  -57194116.85549 -51379414.27348                  20353360.1124
        49.7504         41.5004
  20813415.2524  -71521295.45749 -55705960.90648                  20813414.0244
        48.2504         40.5004
  22898671.9884  -16039026.46949 -18145474.80947                  22898670.2864
        43.0004         26.2504
  21583653.2634  -43251689.01249 -33684406.56247                  21583651.4704
        49.5004         36.7504
  20642055.2634  -61984848.63749 -48236046.88748                  20642051.8784
        47.7504         40.7504
  24426373.3264   -2863792.34449  -7463495.52346                  24426374.5704
        38.7504         17.5004
  24473227.0484   -3794545.62949  -2927268.01246                  24473229.9374
        42.5004         25.2504
  24081853.0264  -63584657.92649 -49514957.80146                  24081852.9254
        43.5004         25.2504
 04  8  4 21 17 30.0000000  0  8G20G 1G13G16G23G 4G27G25
  20345491.4544  -57235475.05549 -51411641.44948                  20345490.4074
        50.2504         41.7504
  20804013.4074  -71570701.73049 -55744459.30148                  20804012.7684
        49.5004         41.0004
  22881916.4874  -16127075.99249 -18214084.80946                  22881915.4534
        43.0004         23.5004
  21572378.5834  -43310937.21549 -33730573.98047                  21572376.6734
        49.7504         37.5004
  20629743.1484  -62049550.91049 -48286464.24248                  20629739.0414
        48.7504         40.5004
  24414667.3604   -2925311.05949  -7511432.26646                  24414668.1144
        38.2504         17.5004
  24455587.5804   -3887238.92649  -2999496.50846                  24455589.6884
        41.5004         24.2504
  24079958.2004  -63594611.66449 -49522713.97346                  24079958.9824
        42.0004         25.5004
 04  8  4 21 17 45.0000000  0  8G20G 1G13G16G23G 4G27G25
  20337650.9884  -57276680.75849 -51443749.80548                  20337649.1404
        50.2504         41.7504
  20794623.2764  -71620047.70749 -55782910.70748                  20794622.5544
        49.7504         41.2504
  22865166.9534  -16215098.10949 -18282673.43446                  22865164.6744
        43.2504         25.0004
  21561134.2994  -43370028.22749 -33776618.92247                  21561132.0384
        49.7504         37.0004
  20617443.0554  -62114186.55149 -48336829.66848                  20617439.4554
        48.7504         41.0004
  24402987.7144   -2986689.94149  -7559259.92246                  24402987.6994
        38.5004         17.5004
  24437958.3864   -3979878.11749  -3071682.84846                  24437961.6124
        41.0004         24.7504
  24078067.0704  -63604552.69549 -49530460.26246                  24078067.3484
        43.0004         25.0004
 04  8  4 21 18  0.0000000  0  8G20G 1G13G16G23G 4G27G25
  20329838.7934  -57317731.49649 -51475737.38748                  20329837.3724
        50.0004         41.5004
  20785244.8744  -71669330.73049 -55821313.06248                  20785244.4484
        49.7504         40.2504
  22848422.0954  -16303090.14149 -18351238.62147                  22848420.8564
        43.0004         25.7504
  21549919.9444  -43428959.51249 -33822539.39847                  21549917.7754
        49.5004         37.0004
  20605156.9424  -62178752.93449 -48387141.14548                  20605153.2514
        48.0004         40.5004
  24391334.9554   -3047926.23449  -7606976.50046                  24391334.1634
        39.5004         17.5004
  24420340.6864   -4072460.64149  -3143825.01646                  24420343.6904
        40.2504         22.7504
  24076178.5374  -63614478.59449 -49538194.74246                  24076178.7074
        42.7504         25.5004
 04  8  4 21 18 15.0000000  0  8G20G 1G13G16G23G 4G27G25
  20322056.8104  -57358627.71149 -51507604.57848                  20322054.9694
        49.5004         41.2504
  20775878.2724  -71718551.18749 -55859666.66448                  20775877.6374
        50.0004         40.7504
  22831683.1384  -16391052.59849 -18419780.78547                  22831682.4634
        43.2504         26.0004
  21538735.7144  -43487731.32849 -33868335.61747                  21538734.0384
        50.2504         36.7504
  20592883.3344  -62243250.49649 -48437398.97348                  20592879.5564
        50.2504         41.0004
  24379708.2314   -3109020.50849  -7654582.43046                  24379707.8504
        39.5004         16.2504
  24402733.9554   -4164986.82049  -3215923.25446                  24402736.8584
        39.7504         22.2504
  24074292.0794  -63624389.96149 -49545917.89546                  24074291.2734
        41.2504         24.0004
 04  8  4 21 18 30.0000000  0  8G20G 1G13G16G23G 4G27G25
  20314303.9054  -57399368.66849 -51539350.78948                  20314302.5984
        47.7504         41.0004
  20766524.3454  -71767708.14549 -55897970.78548                  20766523.8274
        48.0004         41.0004
  22814950.9184  -16478984.60949 -18488299.18747                  22814949.7164
        41.7504         26.5004
  21527582.0624  -43546342.77749 -33914006.87147                  21527580.5754
        47.0004         37.0004
  20580623.0894  -62307678.27749 -48487602.44548                  20580618.8534
        47.5004         40.5004
  24368110.6244   -3169971.93049  -7702077.07846                  24368109.5844
        38.7504         16.2504
  24385137.9984   -4257455.60549  -3287976.78946                  24385140.3054
        40.7504         21.5004
  24072409.3664  -63634286.04749 -49553629.15247                  24072409.2694
        40.5004         26.2504
 04  8  4 21 18 45.0000000  0  8G20G 1G13G16G23G 4G27G25
  20306580.5354  -57439957.04749 -51570978.10948                  20306578.3314
        49.7504         41.7504
  20757181.7874  -71816804.27749 -55936227.52348                  20757180.9834
        49.5004         41.0004
  22798222.5864  -16566888.76649 -18556795.92247                  22798222.2404
        43.0004         27.5004
  21516459.1614  -43604796.49649 -33959555.21547                  21516457.4874
        49.0004         37.7504
  20568375.6164  -62372038.78149 -48537753.48048                  20568371.7144
        48.5004         41.0004
  24356538.1284   -3230783.15249  -7749462.40246                  24356538.1854
        36.7504         17.0004
  24367550.9384   -4349869.86749  -3359987.78146                  24367553.9854
        40.7504         21.2504
  24070528.4624  -63644169.81649 -49561330.80946                  24070528.3934
        41.0004         24.5004
 04  8  4 21 19  0.0000000  0  8G20G 1G13G16G23G 4G27G25
  20298885.5284  -57480392.75449 -51602486.46148                  20298883.6914
        49.7504         41.2504
  20747850.8914  -71865839.37149 -55974436.68448                  20747849.5684
        50.2504         40.5004
  22781500.2444  -16654764.71549 -18625270.64847                  22781499.6574
        42.0004         27.0004
  21505365.6334  -43663092.32449 -34004980.52347                  21505363.8064
        49.2504         37.2504
  20556141.1454  -62436331.83249 -48587851.95748                  20556137.0844
        49.0004         41.0004
  24344993.7034   -3291454.08658  -7796738.49256                  24344992.3944
        34.7504         15.5004
  24349975.8314   -4442229.34449  -3431956.13346                  24349978.4434
        40.2504         21.2504
  24068649.2914  -63654041.25049 -49569022.87146                  24068649.1674
        38.5004         22.5004
 04  8  4 21 19 15.0000000  0  8G20G 1G13G16G23G 4G27G25
  20291219.5854  -57520676.44949 -51633876.35948                  20291218.0004
        49.2504         41.0004
  20738530.9404  -71914814.03949 -56012598.77048                  20738529.7524
        50.0004         40.2504
  22764783.5904  -16742613.18749 -18693724.00047                  22764782.8924
        44.0004         28.0004
  21494302.3074  -43721230.74249 -34050283.19147                  21494300.3854
        49.7504         37.0004
  20543919.2224  -62500558.04349 -48637898.36348                  20543915.3364
        50.0004         41.0004
  24333473.6964   -3351985.44948  -7843905.80946                  24333473.8654
        34.5004         14.7504
  24332410.3694   -4534534.57849  -3503882.21946                  24332413.9064
        39.5004         20.0004
  24066773.4904  -63663901.05949 -49576705.87146                  24066773.2644
        37.7504         22.5004
 04  8  4 21 19 30.0000000  0  8G20G 1G13G16G23G 4G27G25
  20283583.1634  -57560807.27749 -51665147.14848                  20283581.0464
        49.5004         41.2504
  20729222.5564  -71963727.30149 -56050713.00448                  20729222.1764
        50.7504         40.7504
  22748071.6854  -16830433.33249 -18762155.26647                  22748071.4084
        44.7504         28.5004
  21483269.4404  -43779210.85249 -34095462.50047                  21483266.9444
        50.5004         37.5004
  20531710.0494  -62564716.44149 -48687891.91448                  20531706.3604
        50.5004         40.7504
  24321978.5794   -3412376.28148  -7890963.64846                  24321981.2944
        30.7504         15.5004
  24314855.7914   -4626784.57449  -3575765.23446                  24314858.3694
        40.0004         20.0004
  24064899.3044  -63673748.60949 -49584379.32046                  24064899.1894
        41.0004         23.0004
 04  8  4 21 19 45.0000000  0  8G20G 1G13G16G23G 4G27G25
  20275975.3094  -57600788.02349 -51696300.97348                  20275973.1584
        50.0004         41.7504
  20719926.4634  -72012581.86349 -56088781.49248                  20719925.3774
        50.0004         40.7504
  22731364.4664  -16918227.72349 -18830566.46147                  22731363.6884
        43.5004         27.5004
  21472265.3074  -43837035.28549 -34140520.48847                  21472263.5014
        50.0004         37.7504
  20519513.8894  -62628809.58649 -48737834.62148                  20519509.7394
        49.5004         41.2504
  24310517.0654   -3472629.28548  -7937914.07046                  24310515.7014
        34.0004         14.7504
  24297311.2634   -4718982.08649  -3647607.40646                  24297313.4454
        38.7504         20.5004
  24063027.2054  -63683586.82049 -49592045.48446                  24063027.3074
        40.0004         22.5004
 04  8  4 21 20  0.0000000  0  8G20G 1G13G16G23G 4G27G25
  20268395.7764  -57640617.84449 -51727337.20748                  20268393.9504
        50.7504         41.2504
  20710641.1064  -72061376.77749 -56126803.50448                  20710639.9824
        51.2504         40.7504
  22714663.3074  -17005995.44549 -18898956.87147                  22714662.1654
        44.0004         27.0004
  21461291.6944  -43894703.00449 -34185456.37547                  21461289.9944
        50.7504         37.5004
  20507329.6114  -62692836.49649 -48787725.71948                  20507325.8584
        49.2504         41.2504
  24299076.2964   -3532743.65648  -7984756.34446                  24299075.6404
        33.2504         15.5004
  24279776.3324   -4811126.12949  -3719407.82846                  24279779.2704
        38.0004         18.5004
  24061156.1814  -63693414.86749 -49599703.71146                  24061157.0254
        39.5004         23.2504
 04  8  4 21 20 15.0000000  0  8G20G 1G13G16G23G 4G27G25
  20260844.6494  -57680299.12149 -51758257.68748                  20260842.8714
        50.0004         41.0004
  20701366.7904  -72110114.39149 -56164780.87148                  20701365.8224
        51.0004         40.7504
  22697966.7584  -17093738.80549 -18967328.28547                  22697965.1874
        44.2504         26.7504
  21450347.0344  -43952216.57049 -34230272.12547                  21450345.1914
        49.5004         38.0004
  20495158.0224  -62756799.50849 -48837567.02348                  20495154.0234
        51.0004         40.7504
  24287662.4944   -3592721.96158  -8031492.68756                  24287662.8374
        35.0004         14.7504
  24262252.2774   -4903219.01649  -3791168.52346                  24262254.4004
        39.7504         20.0004
  24059288.6074  -63703235.41049 -49607356.11746                  24059288.2434
        39.7504         22.2504
 04  8  4 21 20 30.0000000  0  8G20G 1G13G16G23G 4G27G25
  20253321.5604  -57719831.59449 -51789062.21948                  20253320.1094
        49.7504         41.2504
  20692103.1064  -72158794.23849 -56202713.22348                  20692101.9144
        51.0004         40.7504
  22681273.8544  -17181457.34049 -19035680.38347                  22681272.9044
        43.5004         27.0004
  21439432.0054  -44009575.35949 -34274967.27747                  21439430.6654
        49.5004         37.2504
  20482998.7444  -62820698.14849 -48887358.16848                  20482994.5984
        50.2504         41.0004
  24276275.2214   -3652563.56248  -8078122.50446                  24276275.8964
        32.2504         15.5004
  24244737.2334   -4995260.44149  -3862889.02046                  24244738.6874
        41.0004         20.5004
  24057421.0084  -63713048.22749 -49615002.48446                  24057421.3914
        39.5004         22.7504
 04  8  4 21 20 45.0000000  0  8G20G 1G13G16G23G 4G27G25
  20245827.7574  -57759213.64549 -51819749.53948                  20245826.0024
        49.7504         40.7504
  20682850.6494  -72207414.59449 -56240599.21148                  20682850.0234
        50.2504         41.0004
  22664586.6314  -17269149.43449 -19104011.86347                  22664585.2294
        43.2504         27.2504
  21428546.8184  -44066777.69149 -34319540.52047                  21428545.5554
        49.7504         37.2504
  20470851.7014  -62884530.75449 -48937097.86348                  20470847.8774
        50.5004         40.7504
  24264914.2284   -3712267.01248  -8124644.63346                  24264914.6404
        35.7504         15.5004
  24227233.1354   -5087248.45349  -3934567.94546                  24227234.3194
        42.0004         20.0004
  24055555.3934  -63722851.75049 -49622641.59846                  24055555.1784
        41.0004         23.0004
 04  8  4 21 21  0.0000000  0  8G20G 1G13G16G23G 4G27G25
  20238361.6884  -57798447.02049 -51850321.01248                  20238360.1154
        49.7504         41.0004
  20673609.6184  -72255977.12549 -56278440.14148                  20673608.9934
        51.0004         41.0004
  22647904.2764  -17356816.72349 -19172324.03147                  22647903.6044
        43.7504         28.5004
  21417691.1894  -44123825.16849 -34363993.10247                  21417688.8954
        49.7504         37.5004
  20458717.0604  -62948298.88749 -48986787.31248                  20458713.2814
        50.7504         40.5004
  24253579.6024   -3771833.80149  -8171060.40646                  24253579.6464
        36.7504         15.5004
  24209738.0894   -5179185.03149  -4006206.77346                  24209739.4704
        41.7504         21.0004
  24053691.1684  -63732647.75049 -49630274.86346                  24053691.3604
        39.5004         23.2504
 04  8  4 21 21 15.0000000  0  8G20G 1G13G16G23G 4G27G25
  20230924.5194  -57837530.84849 -51880775.94948                  20230922.7664
        49.5004         41.2504
  20664379.8234  -72304480.83649 -56316235.24648                  20664378.6664
        51.5004         40.7504
  22631226.5304  -17444458.21949 -19240616.07047                  22631225.6644
        43.2504         28.0004
  21406864.9064  -44180716.98049 -34408324.38347                  21406863.1474
        50.0004         37.2504
  20446594.8724  -63012001.63749 -49036425.81648                  20446590.6514
        50.5004         41.0004
  24242270.9824   -3831263.36749  -8217369.12146                  24242270.3794
        38.0004         17.0004
  24192252.6234   -5271068.97349  -4077804.57846                  24192255.0104
        41.5004         21.5004
  24051828.8624  -63742435.58249 -49637901.81246                  24051829.1054
        40.0004         22.0004
 04  8  4 21 21 30.0000000  0  8G20G 1G13G16G23G 4G27G25
  20223515.6714  -57876464.48849 -51911113.85948                  20223513.8504
        49.2504         41.2504
  20655161.2194  -72352924.99249 -56353983.93448                  20655159.9884
        51.5004         40.5004
  22614554.0264  -17532073.19949 -19308887.46547                  22614552.4504
        44.0004         28.7504
  21396068.3994  -44237452.26649 -34452533.68447                  21396066.5834
        49.0004         37.0004
  20434484.7024  -63075638.27049 -49086012.80548                  20434480.7774
        50.2504         41.0004
  24230987.7894   -3890554.89849  -8263570.36746                  24230987.8794
        38.5004         17.0004
  24174778.7744   -5362899.58649  -4149360.85946                  24174780.4344
        42.5004         21.7504
  24049968.6634  -63752214.82049 -49645521.98846                  24049967.1594
        40.7504         22.5004
 04  8  4 21 21 45.0000000  0  8G20G 1G13G16G23G 4G27G25
  20216135.3154  -57915247.69149 -51941334.54348                  20216133.9414
        48.7504         41.2504
  20645954.1474  -72401309.25049 -56391685.95748                  20645953.2394
        49.5004         40.5004
  22597886.3884  -17619661.34449 -19377137.94547                  22597885.2574
        43.5004         28.2504
  21385301.7624  -44294030.72349 -34496620.78947                  21385300.1194
        48.2504         36.0004
  20422387.9074  -63139208.27749 -49135547.86748                  20422383.8974
        48.0004         41.2504
  24219730.2684   -3949708.20348  -8309663.95746                  24219730.7444
        33.0004         15.5004
  24157314.0594   -5454676.60549  -4220875.40646                  24157316.5624
        41.2504         21.7504
  24048108.7984  -63761985.23049 -49653135.32846                  24048108.6774
        40.7504         22.7504
 04  8  4 21 22  0.0000000  0  8G20G 1G13G16G23G 4G27G25
  20508576.6094  -57953879.08249 -51971436.93448                  20508574.8474
        49.7504         41.7504
  20936551.3784  -72449631.23849 -56429339.45748                  20936550.0094
        50.7504         40.5004
  22881018.3234  -17707217.60549 -19445363.58647                  22881016.7084
        46.2504         29.0004
  21674358.2294  -44350449.45349 -34540583.43047                  21674356.4234
        49.2504         37.0004
  20710096.6534  -63202708.28549 -49185028.39548                  20710092.8684
        49.5004         41.2504
  24508293.8604   -4008720.15648  -8355647.23446                  24508293.7954
        34.5004         15.5004
  24439652.0474   -5546394.68449  -4292343.92646                  24439654.8404
        41.5004         21.7504
  24346043.4724  -63771747.09049 -49660741.97346                  24346043.6394
        41.0004         23.0004
 04  8  4 21 22 15.0000000  0  8G20G 1G13G16G23G 4G27G25
  20501253.0464  -57992365.82449 -52001426.60948                  20501251.3714
        50.5004         41.5004
  20927366.0914  -72497899.48449 -56466951.07848                  20927364.9694
        50.5004         40.7504
  22864359.8084  -17794755.82449 -19513575.16447                  22864359.0084
        46.2504         30.0004
  21663650.8164  -44406718.02749 -34584429.06247                  21663649.0234
        50.0004         37.0004
  20698024.6664  -63266148.79349 -49234462.55148                  20698020.6044
        49.5004         40.5004
  24497088.0264   -4067601.03549  -8401528.41046                  24497089.5794
        36.2504         15.5004
  24422207.5424   -5638068.20349  -4363777.80546                  24422210.1664
        42.0004         21.7504
  24344187.9474  -63781504.21549 -49668344.96946                  24344187.0144
        43.5004         23.2504
 04  8  4 21 22 30.0000000  0  8G20G 1G13G16G23G 4G27G25
  20493957.5124  -58030703.43749 -52031300.08248                  20493955.8624
        49.7504         41.5004
  20918191.6094  -72546108.78549 -56504516.76648                  20918191.0564
        51.0004         41.0004
  22847706.7004  -17882268.11749 -19581766.52747                  22847705.5594
        46.2504         28.7504
  21652972.7334  -44462830.71949 -34628153.23447                  21652971.1144
        50.0004         37.5004
  20685964.2404  -63329523.53149 -49283845.46948                  20685960.5634
        50.2504         40.5004
  24485910.8514   -4126344.71149  -8447302.71946                  24485911.3994
        36.0004         12.5004
  24404772.0924   -5729689.02749  -4435170.58646                  24404775.3654
        42.0004         22.2504
  24342331.6834  -63791254.14849 -49675942.31646                  24342330.9134
        43.0004         24.5004
 04  8  4 21 22 45.0000000  0  8G20G 1G13G16G23G 4G27G25
  20486690.6334  -58068891.90249 -52061057.33248                  20486688.7364
        49.7504         41.7504
  20909029.4744  -72594259.00449 -56542036.41048                  20909028.6184
        51.2504         41.0004
  22831058.0764  -17969754.42649 -19649937.66447                  22831057.4564
        46.0004         29.2504
  21642324.7884  -44518787.38349 -34671755.82447                  21642323.0824
        49.7504         37.7504
  20673917.3574  -63392832.35949 -49333177.01248                  20673913.3054
        49.7504         40.5004
  24474758.0834   -4184951.26249  -8492970.14846                  24474758.2144
        37.0004         14.7504
  24387347.0744   -5821257.07049  -4506522.25446                  24387349.6384
        42.0004         21.7504
  24340478.1954  -63800996.81649 -49683534.02746                  24340477.6184
        41.7504         22.2504
 04  8  4 21 23  0.0000000  0  8G20G 1G13G16G23G 4G27G25
  20479451.6204  -58106932.41049 -52090699.29748                  20479449.7194
        49.7504         41.2504
  20899877.7384  -72642351.17649 -56579510.83648                  20899876.6724
        51.0004         40.0004
  22814414.9234  -18057215.80149 -19718089.34847                  22814414.7954
        46.7504         29.7504
  21631706.1964  -44574589.05549 -34715237.64547                  21631703.6574
        49.7504         37.2504
  20661882.4064  -63456076.35549 -49382458.05148                  20661878.8444
        49.7504         40.5004
  24463631.1314   -4243421.94148  -8538531.79746                  24463631.2224
        35.7504         12.5004
  24369932.9124   -5912773.24649  -4577833.54346                  24369934.1314
        43.7504         22.0004
  24338625.3514  -63810733.57049 -49691121.14146                  24338624.5724
        42.7504         22.2504
 04  8  4 21 23 15.0000000  0  8G20G 1G13G16G23G 4G27G25
  20472240.7884  -58144825.25849 -52120226.19548                  20472239.0704
        50.0004         41.0004
  20890737.2134  -72690385.50849 -56616940.19148                  20890736.2404
        50.0004         41.0004
  22797776.6874  -18144652.48449 -19786221.80947                  22797775.4454
        45.7504         29.0004
  21621116.5984  -44630236.02049 -34758598.90247                  21621115.0314
        49.0004         37.2504
  20649859.5364  -63519255.48049 -49431688.53148                  20649855.9274
        49.5004         40.2504
  24452530.9754   -4301756.80949  -8583987.48446                  24452529.8134
        39.0004         12.5004
  24352527.3414   -6004237.93049  -4649104.66846                  24352530.0814
        43.0004         22.2504
  24336773.6504  -63820464.84449 -49698703.94946                  24336772.6894
        41.7504         22.2504
 04  8  4 21 23 30.0000000  0  8G20G 1G13G16G23G 4G27G25
  20465057.7424  -58182571.58649 -52149638.93748                  20465056.3384
        50.2504         41.0004
  20881607.4084  -72738362.94949 -56654325.21148                  20881606.3664
        50.7504         40.0004
  22781142.2194  -18232065.21549 -19854335.60947                  22781141.4264
        46.0004         28.5004
  21610557.0214  -44685729.20349 -34801840.33647                  21610554.9634
        50.0004         37.2504
  20637849.4744  -63582370.85549 -49480869.34448                  20637845.4424
        49.2504         40.7504
  24441455.8654   -4359957.22359
        36.2504
  24335132.3754   -6095652.06249  -4720336.41046                  24335134.3334
        43.7504         23.0004
  24334923.0204  -63830191.83649 -49706283.45346                  24334921.8154
        42.0004         24.0004
 04  8  4 21 23 45.0000000  0  8G20G 1G13G16G23G 4G27G25
  20457903.0514  -58220170.86349 -52178937.07848                  20457901.0554
        49.5004         40.7504
  20872488.3254  -72786282.90649 -56691665.43048                  20872487.4444
        51.0004         40.5004
  22764512.7854  -18319453.57049 -19922430.42647                  22764512.1104
        46.2504         29.0004
  21600026.0964  -44741067.98049 -34844961.45347                  21600024.2224
        50.2504         37.2504
  20625851.3084  -63645421.84449 -49529999.97748                  20625847.6104
        50.5004         40.0004
  24430406.0054   -4418022.41448
        33.2504
  24317746.5114   -6187014.96549  -4791528.20746                  24317749.4614
        44.2504         24.7504
  24333072.2104  -63839914.07849 -49713859.24646                  24333071.6514
        41.7504         23.5004
 04  8  4 21 24  0.0000000  0  8G20G 1G13G16G23G 4G27G25
  20450775.8624  -58257623.95349 -52208121.30948                  20450773.9084
        50.0004         41.0004
  20863380.3324  -72834146.07449 -56728961.42248                  20863379.5704
        51.5004         40.5004
  22747888.3164  -18406818.30949 -19990506.81247                  22747887.0674
        47.2504         28.5004
  21589524.6334  -44796253.14549 -34887962.87147                  21589522.7194
        50.0004         37.2504
  20613865.2924  -63708409.13749 -49579080.98048                  20613861.3154
        50.5004         40.5004
  24419382.5424   -4475953.14848
        35.2504
  24300369.8404   -6278327.43049  -4862680.72746                  24300372.3384
        43.5004         25.5004
  24331222.9914  -63849632.50449 -49721432.05946                  24331221.3514
        41.7504         22.2504
 04  8  4 21 24 15.0000000  0  8G20G 1G13G16G23G 4G27G25
  20443676.6224  -58294931.28149 -52237191.96548                  20443674.6624
        50.0004         41.0004
  20854282.8664  -72881952.80949 -56766213.41848                  20854282.2164
        50.5004         40.0004
  22731267.4804  -18494159.68749 -20058565.01647                  22731266.4114
        46.7504         29.0004
  21579052.4974  -44851285.03949 -34930844.85947                  21579050.7814
        49.5004         37.2504
  20601891.2294  -63771332.95349 -49628112.52748                  20601887.1004
        50.0004         40.7504
  24408383.4214   -4533750.23448
        35.0004
  24283003.1414   -6369589.71949  -4933794.13346                  24283005.0764
        44.0004         24.5004
  24329374.5944  -63859347.64549 -49729002.30146                  24329373.3464
        41.5004         22.5004
 04  8  4 21 24 30.0000000  0  8G20G 1G13G16G23G 4G27G25
  20436604.7424  -58332094.57049 -52266150.38348                  20436602.8284
        50.5004         41.0004
  20845196.1444  -72929704.70349 -56803422.68448                  20845195.3264
        51.5004         40.2504
  22714651.3444  -18581479.22749 -20126606.18447                  22714650.1484
        46.0004         29.5004
  21568609.2044  -44906165.32049 -34973608.71147                  21568607.3814
        49.2504         37.7504
  20589928.8754  -63834194.93049 -49677095.87548                  20589925.0114
        49.7504         40.5004
  24397409.6604   -4591415.25848
        33.2504
  24265645.9784   -6460803.60549  -5004869.82046                  24265647.8394
        43.2504         24.2504
  24327525.7304  -63869061.34849 -49736571.45746                  24327525.2314
        40.5004         21.7504
 04  8  4 21 24 45.0000000  0  8G20G 1G13G16G23G 4G27G25
  20429560.1334  -58369112.28549 -52294995.36748                  20429558.5344
        49.5004         41.0004
  20836119.8954  -72977400.03149 -56840587.87948                  20836118.9204
        50.7504         40.7504
  22698039.8884  -18668775.19949 -20194629.00847                  22698038.4364
        46.7504         29.2504
  21558194.7984  -44960892.21549 -35016253.04747                  21558192.9754
        49.0004         37.5004
  20577978.9724  -63896993.25449 -49726029.63748                  20577975.0464
        50.0004         41.2504
  24386462.2204   -4648946.19158
        32.5004
  24248297.8934   -6551967.14849  -5075906.30146                  24248300.0714
        42.7504         25.0004
  24325678.0154  -63878772.08649 -49744138.28946                  24325677.0054
        40.5004         22.5004
 04  8  4 21 25  0.0000000  0  8G20G 1G13G16G23G 4G27G25
  20422543.5004  -58405986.55549 -52323728.57048                  20422541.8254
        49.5004         41.5004
  20827054.5204  -73025040.87549 -56877710.62148                  20827053.2014
        50.5004         40.5004
  22681431.7814  -18756049.78549 -20262635.15247                  22681430.7364
        47.0004         29.0004
  21547809.4634  -45015467.85549 -35058779.50447                  21547807.5494
        49.5004         37.2504
  20566040.6414  -63959730.02049 -49774915.42648                  20566036.5564
        49.0004         40.5004
  24375539.2264   -4706345.57848
        34.2504
  24230958.7484   -6643082.53149  -5146905.25446                  24230961.1724
        42.5004         23.0004
  24323830.2534  -63888482.12149 -49751704.53546                  24323828.7994
        42.2504         23.2504
 04  8  4 21 25 15.0000000  0  8G20G 1G13G16G23G 4G27G25
  20415553.6034  -58442717.68749 -52352350.24248                  20415552.1794
        50.0004         41.2504
  20817999.2124  -73072627.30949 -56914790.96948                  20817998.2354
        51.5004         40.5004
  22664827.5674  -18843303.03949 -20330624.67647                  22664827.2574
        47.0004         29.2504
  21537452.9794  -45069892.29349 -35101188.16447                  21537451.1124
        49.7504         37.2504
  20554113.5624  -64022405.28149 -49823753.29748                  20554109.7424
        50.2504         41.0004
  24364642.5104   -4763613.70348
        35.2504
  24213630.2384   -6734149.93449  -5217866.82446                  24213631.0034
        41.0004         22.7504
  24321982.0684  -63898191.57449 -49759270.36346                  24321981.6964
        40.5004         22.2504
 04  8  4 21 25 30.0000000  0  8G20G 1G13G16G23G 4G27G25
  20408591.3104  -58479307.10549 -52380861.49248                  20408589.1124
        50.0004         41.2504
  20808953.6334  -73120160.65649 -56951829.94548                  20808952.8334
        51.2504         40.7504
  22648228.0214  -18930536.34849 -20398598.66047                  22648226.9724
        46.2504         29.0004
  21527124.6654  -45124167.05149 -35143480.16847                  21527122.6134
        49.5004         37.0004
  20542198.6564  -64085020.34449 -49872544.24648                  20542194.8504
        50.2504         40.7504
  24353769.1894   -4820751.67649
        36.0004
  24196309.3074   -6825170.63749  -5288791.93446                  24196310.9864
        41.7504         22.5004
  24320134.5894  -63907902.22749 -49766837.14846                  24320133.9334
        41.2504         22.7504
 04  8  4 21 25 45.0000000  0  8G20G 1G13G16G23G 4G27G25
  20401655.8494  -58515753.82049 -52409261.53548                  20401653.7274
        49.5004         41.0004
  20799918.7274  -73167639.76249 -56988826.64848                  20799917.8044
        51.0004         40.2504
  22631631.8254  -19017748.44949 -20466556.14847                  22631630.6554
        45.2504         27.7504
  21516825.7534  -45178290.96949 -35185654.65647                  21516823.6024
        49.5004         37.0004
  20530295.1724  -64147574.00849 -49921287.35248                  20530291.0704
        50.2504         40.2504
  24342920.6344   -4877758.73848
        34.2504
  24178997.4594   -6916143.56649  -5359679.92246                  24178999.5144
        41.2504         22.5004
  24318287.0104  -63917612.98449 -49774403.98846                  24318286.2464
        41.0004         22.2504
 04  8  4 21 26  0.0000000  0  8G20G 1G13G16G23G 4G27G25
  20394746.9914  -58552057.87549 -52437550.41448                  20394745.3924
        50.0004         41.2504
  20790894.2854  -73215064.53149 -57025781.02048                  20790893.1584
        52.0004         40.5004
  22615039.3694  -19104939.37949 -20534497.09447                  22615038.8494
        45.0004         28.5004
  21506554.8894  -45232263.93049 -35227711.50047                  21506552.8474
        50.2504         37.5004
  20518402.5414  -64210066.12549 -49969982.51248                  20518398.9924
        50.2504         40.0004
  24332097.6844   -4934634.66048
        32.5004
  24161694.1134   -7007068.59849  -5430530.49246                  24161696.8794
        41.5004         24.0004
  24316439.0904  -63927323.92649 -49781970.96146                  24316437.9924
        42.5004         22.5004
 04  8  4 21 26 15.0000000  0  8G20G 1G13G16G23G 4G27G25
  20387866.3254  -58588217.80149 -52465726.98848                  20387864.5254
        49.7504         41.5004
  20781880.0384  -73262433.40649 -57062691.83248                  20781879.2764
        51.7504         40.5004
  22598451.8604  -19192107.52749 -20602420.29747                  22598451.5094
        45.0004         28.0004
  21496312.7994  -45286084.39849 -35269649.52747                  21496311.2974
        49.7504         37.5004
  20506522.8654  -64272495.05149 -50018628.42648                  20506518.9254
        50.2504         40.0004
  24321300.7374   -4991378.28948
        34.0004
  24144401.2874   -7097944.19949  -5501342.57846                  24144403.8454
        42.0004         25.5004
  24314591.6234  -63937033.75849 -49789537.10246                  24314590.5494
        43.0004         22.5004
 04  8  4 21 26 30.0000000  0  8G20G 1G13G16G23G 4G27G25
  20381012.6644  -58624232.42649 -52493790.34848                  20381011.1984
        50.2504         41.0004
  20772876.9644  -73309745.08249 -57099558.07448                  20772875.7214
        51.7504         40.0004
  22581869.1614  -19279251.55149 -20670324.72347                  22581868.2354
        44.0004         27.0004
  21486100.0054  -45339751.03149 -35311467.66447                  21486098.5244
        49.2504         37.2504
  20494655.4124  -64334859.43749 -50067224.03948                  20494651.8964
        50.2504         40.5004
  24310528.1194   -5047988.09049
        37.7504
  24127118.5944   -7188768.90649  -5572115.02046                  24127120.2894
        42.0004         25.2504
  24312744.3714  -63946741.39849 -49797101.53946                  24312743.2914
        43.0004         23.0004
 04  8  4 21 26 45.0000000  0  8G20G 1G13G16G23G 4G27G25
  20374186.7754  -58660104.00449 -52521742.22748                  20374185.2104
        50.0004         41.2504
  20763884.3854  -73357001.52049 -57136381.27748                  20763883.1084
        51.0004         40.2504
  22565290.6964  -19366373.50049 -20738211.90647                  22565289.5654
        44.2504         26.2504
  21475916.7454  -45393266.00849 -35353167.62947                  21475914.8724
        49.0004         37.0004
  20482799.8774  -64397161.39549 -50115771.01248                  20482795.8814
        50.0004         40.5004
  24299781.1954   -5104466.55549
        36.5004
  24109843.4494   -7279544.99649  -5642849.54346                  24109846.4284
        41.2504         23.0004
  24310896.8134  -63956449.15649 -49804666.03546                  24310895.3054
        42.7504         22.0004
 04  8  4 21 27  0.0000000  0  8G20G 1G13G16G23G 4G27G25
  20367388.4814  -58695828.47349 -52549579.49648                  20367386.7844
        50.0004         41.0004
  20754903.1054  -73404198.68749 -57173158.28548                  20754901.8604
        52.0004         40.7504
  22548716.5514  -19453469.21549 -20806078.69147                  22548714.8744
        45.0004         27.2504
  21465762.7334  -45446625.16049 -35394746.19547                  21465760.7924
        50.0004         37.2504
  20470956.7064  -64459396.87549 -50164266.19948                  20470952.7514
        51.5004         40.7504
  24289057.1724   -5160809.30548
        32.2504
  24092578.6504   -7370268.27049  -5713542.95346                  24092582.5414
        40.0004         22.7504
  24309050.8734  -63966153.02749 -49812227.48046                  24309048.2924
        44.2504         22.2504
 04  8  4 21 27 15.0000000  0  8G20G 1G13G16G23G 4G27G25
  20360618.0944  -58731407.12149 -52577303.12148                  20360616.4394
        50.2504         41.2504
  20745932.5274  -73451337.66849 -57209889.96148                  20745931.5694
        51.5004         40.7504
  22532147.7524  -19540539.85249 -20873925.93047                  22532146.7614
        45.0004         28.5004
  21455638.5374  -45499829.69149 -35436204.27347                  21455636.8964
        50.0004         37.0004
  20459126.4914  -64521566.87549 -50212710.34848                  20459122.2464
        51.2504         41.0004
  24278363.9174   -5217017.79348
        35.7504
  24075324.8564   -7460939.88749  -5784196.06246                  24075328.0784
        40.5004         22.0004
  24307204.5004  -63975854.35949 -49819786.96946                  24307202.8124
        43.5004         23.5004
 04  8  4 21 27 30.0000000  0  8G20G 1G13G16G23G 4G27G25
  20353875.6074  -58766839.07049 -52604912.45348                  20353874.2664
        49.7504         40.5004
  20736973.5914  -73498417.30549 -57246575.39148                  20736972.9304
        51.5004         40.7504
  22515583.9234  -19627584.24249 -20941752.68747                  22515582.3654
        46.0004         28.0004
  21445543.5544  -45552878.60949 -35477541.07847                  21445541.8664
        50.0004         37.2504
  20447308.5444  -64583670.13349 -50261102.49248                  20447304.6114
        50.2504         40.5004
  24267692.4334   -5273091.25848
        34.2504
  24058080.4164   -7551558.82449  -5854808.14846                  24058083.8464
        40.5004         22.5004
  24305358.6574  -63985552.31249 -49827343.85246                  24305357.3014
        42.7504         22.2504
 04  8  4 21 27 45.0000000  0  8G20G 1G13G16G23G 4G27G25
  20347161.2424  -58802123.37549 -52632406.71948                  20347159.3704
        50.0004         40.7504
  20728026.0764  -73545436.55949 -57283213.77048                  20728025.2944
        51.7504         40.7504
  22499024.8224  -19714601.46149 -21009558.28947                  22499023.8594
        46.5004         28.5004
  21435478.4964  -45605770.89149 -35518755.84047                  21435476.3624
        50.0004         37.5004
  20435503.6774  -64645705.64549 -50309441.84848                  20435499.0974
        51.7504         40.5004
  24257046.9424   -5329028.63348
        35.5004
  24040847.2514   -7642123.85949  -5925378.31246                  24040849.1124
        42.2504         22.2504
  24303513.7684  -63995245.96549 -49834897.35946                  24303512.2754
        43.5004         22.7504
 04  8  4 21 28  0.0000000  0  8G20G 1G13G16G23G 4G27G25
  20340474.7094  -58837260.59849 -52659786.38748                  20340472.8034
        50.2504         40.5004
  20719090.4134  -73592395.92649 -57319805.48848                  20719089.1844
        51.7504         40.7504
  22482470.7484  -19801591.86349 -21077343.01247                  22482470.5314
        46.0004         29.0004
  21425443.2854  -45658506.96549 -35559848.88747                  21425440.8024
        50.0004         37.2504
  20423711.1984  -64707673.82849 -50357728.73848                  20423707.3504
        50.5004         40.7504
  24246428.7914   -5384830.25848
        33.0004
  24023623.5944   -7732635.72349  -5995907.00046                  24023624.9694
        41.7504         22.5004
  24301670.4864  -64004935.92249 -49842448.01246                  24301669.0174
        42.7504         23.5004
 04  8  4 21 28 15.0000000  0  8G20G 1G13G16G23G 4G27G25
  20333816.2584  -58872250.33649 -52687051.11348                  20333814.7004
        50.2504         41.2504
  20710166.0284  -73639294.81249 -57356350.07848                  20710164.2814
        51.5004         40.5004
  22465922.8384  -19888554.97749 -21145106.45347                  22465921.6164
        46.2504         29.0004
  21415437.5914  -45711086.35549 -35600819.83647                  21415435.6904
        50.5004         37.5004
  20411931.8824  -64769574.15649 -50405962.76648                  20411927.8704
        51.0004         41.0004
  24235836.2544   -5440495.76249
        36.5004
  24006410.5904   -7823093.62949  -6066393.58646                  24006411.9184
        42.7504         22.2504
  24299826.2164  -64014621.73449 -49849995.42646                  24299825.8084
        42.2504         22.5004
 04  8  4 21 28 30.0000000  0  8G20G 1G13G16G23G 4G27G25
  20327186.2934  -58907093.08249 -52714201.32048                  20327184.5554
        50.5004         41.2504
  20701252.7274  -73686133.57849 -57392847.81248                  20701251.3684
        51.0004         41.0004
  22449379.1534  -19975490.96549 -21212848.75847                  22449377.8224
        46.0004         28.5004
  21405461.7564  -45763509.52749 -35641669.04347                  21405459.8114
        50.2504         37.2504
  20400165.6394  -64831406.85249 -50454144.08648                  20400161.1934
        50.0004         40.5004
  24225268.6584   -5496025.80548
        35.7504
  23989206.1174   -7913498.02049  -6136838.51246                  23989208.0544
        41.5004         22.5004
  24297984.9694  -64024304.04749 -49857540.11346                  24297983.3674
        43.2504         21.5004
 04  8  4 21 28 45.0000000  0  8G20G 1G13G16G23G 4G27G25
  20320584.1204  -58941787.46949 -52741235.92248                  20320582.4644
        49.5004         41.5004
  20692351.4014  -73732910.68749 -57429297.52048                  20692349.9364
        50.5004         41.0004
  22432840.9844  -20062398.61349 -21280568.99247                  22432840.0744
        45.7504         29.2504
  21395516.2384  -45815775.01249 -35682395.39147                  21395514.3894
        49.0004         37.5004
  20388412.6504  -64893170.40649 -50502271.52748                  20388408.1074
        50.0004         40.5004
  24214728.3014   -5551418.80558
        34.7504
  23972012.1054   -8003847.49649  -6207240.64846                  23972014.6214
        41.5004         22.2504
  24296143.3744  -64033981.70749 -49865081.17246                  24296140.9854
        43.0004         21.7504
 04  8  4 21 29  0.0000000  0  8G20G 1G13G16G23G 4G27G25
  20314010.4344  -58976333.32849 -52768154.78548                  20314008.2574
        49.5004         41.2504
  20683461.4234  -73779625.90649 -57465698.98848                  20683460.7894
        51.5004         41.2504
  22416308.8694  -20149277.30549 -21348266.64147                  22416308.1434
        46.7504         28.5004
  21385600.4724  -45867882.41449 -35722998.56247                  21385598.6634
        49.5004         37.7504
  20376672.4054  -64954864.44549 -50550344.80148                  20376668.2294
        50.5004         40.2504
  24204213.7254   -5606674.78148
        35.5004
  23954831.1694   -8094141.73449  -6277599.75846                  23954833.2094
        42.2504         22.5004
  24294302.4064  -64043654.61349 -49872618.50046                  24294300.8674
        42.0004         22.0004
 04  8  4 21 29 15.0000000  0  8G20G 1G13G16G23G 4G27G25
  20307464.9544  -59010731.19949 -52794958.32848                  20307462.7924
        50.2504         41.2504
  20674583.6714  -73826279.52049 -57502052.44948                  20674582.7184
        51.5004         40.7504
  22399781.4464  -20236127.44149 -21415942.05147                  22399780.9624
        45.7504         28.7504
  21375714.8194  -45919832.25449 -35763478.95747                  21375712.4284
        50.5004         37.7504
  20364945.0604  -65016489.39149 -50598364.23448                  20364941.5884
        50.5004         40.5004
  24193723.9784   -5661794.08248
        33.0004
  23937658.3934   -8184381.06649  -6347916.04746                  23937661.3954
        43.0004         24.0004
  24292462.2914  -64053323.16849 -49880152.45746                  24292460.4224
        42.0004         22.2504
 04  8  4 21 29 30.0000000  0  8G20G 1G13G16G23G 4G27G25
  20600739.6434  -59044979.92649 -52821645.65248                  20600737.7754
        50.2504         41.0004
  20965510.2734  -73872869.40649 -57538356.27048                  20965509.3174
        51.0004         40.7504
  22683053.1074  -20322944.24649 -21483591.50047                  22683052.9134
        45.7504         28.0004
  21665651.5814  -45971622.05549 -35803834.62947                  21665650.1574
        48.5004         37.2504
  20653024.8734  -65078042.15649 -50646327.41848                  20653021.3344
        50.2504         40.5004
  24483053.0084   -5716774.35248
        31.2504
  24220290.6274   -8274560.53149  -6418185.73446                  24220293.5814
        42.2504         24.5004
  24590416.3014  -64062987.89849 -49887683.44146                  24590413.8694
        42.7504         23.2504
 04  8  4 21 29 45.0000000  0  8G20G 1G13G16G23G 4G27G25
  20594250.2674  -59079083.48449 -52848219.86748                  20594248.2934
        50.7504         41.2504
  20956655.7994  -73919400.98049 -57574614.62548                  20956654.5754
        51.5004         40.2504
  22666536.4084  -20409738.58649 -21551223.42247                  22666536.3184
        46.0004         27.5004
  21655825.8054  -46023258.04349 -35844070.44947                  21655824.4934
        49.2504         37.5004
  20641324.0674  -65139529.94949 -50694239.97748                  20641320.1404
        50.0004         40.5004
  24472617.0894   -5771621.88748
        34.0004
  24203139.2664   -8364691.43449  -6488417.53146                  24203141.2764
        43.0004         24.7504
  24588577.0144  -64072649.52349 -49895211.98446                  24588574.8644
        42.0004         21.7504
 04  8  4 21 30  0.0000000  0  8G20G 1G13G16G23G 4G27G25
  20587787.8944  -59113043.34449 -52874682.09448                  20587786.0374
        49.7504         41.0004
  20947812.0874  -73965874.75049 -57610827.96148                  20947811.0994
        50.5004         40.7504
  22650025.0984  -20496508.23049 -21618836.11747                  22650023.6844
        46.2504         28.5004
  21646029.5134  -46074740.41449 -35884186.59447                  21646027.0144
        49.2504         37.5004
  20629636.0814  -65200952.21149 -50742101.48848                  20629632.0924
        49.5004         40.5004
  24462204.2744   -5826337.01258
        35.5004
  24185997.2354   -8454771.15249  -6558609.46546                  24185998.9014
        42.5004         23.5004
  24586738.4164  -64082311.18449 -49902740.60946                  24586736.8734
        41.2504         21.2504
